[[{"header":{"parameterUnit":"m.s-1","parameterCategory":1,"la1":31.0,"la2":29.5877,"lo1":-88.7671,"lo2":-86.6584,"dy":0.0162,"dx":0.0185,"nx":115,"ny":88,"refTime":"2023-08-31T06:00:00:Z","depth":0,"parameterNumber":2,"parameterNumberName":"U-component_of_WINDS"},"data":[0.0,0.0,0.0,0.0,0.0,0.0,0.0,0.0,0.0,0.0,0.0,0.0,0.0,0.0,0.0,0.0,0.0,0.0,0.0,0.0,0.0,0.0,0.0,0.0,0.0,0.0,0.0,0.0,0.0,0.0,0.0,0.0,0.0,0.0,0.0,0.0,0.0,0.0,0.0,0.0,0.0,0.0,0.0,0.0,0.0,0.0,0.0,0.0,0.0,0.0,0.0,0.0,0.0,0.0,0.0,0.0,0.0,0.0,0.0,0.0,0.0,0.0,0.0,0.0,0.0,0.0,0.0,0.0,0.0,0.0,0.0,0.0,0.0,0.0,0.0,0.0,0.0,0.0,0.0,0.0,0.0,0.0,0.0,0.0,0.0,0.0,0.0,0.0,0.0,0.0,0.0,0.0,0.0,0.0,0.0,0.0,0.0,0.0,0.0,0.0,0.0,0.0,0.0,0.0,0.0,0.0,0.0,0.0,0.0,0.0,0.0,0.0,0.0,0.0,0.0,0.0,0.0,0.0,0.0,0.0,0.0,0.0,0.0,0.0,0.0,0.0,0.0,0.0,0.0,0.0,0.0,0.0,0.0,0.0,0.0,0.0,0.0,0.0,0.0,0.0,0.0,0.0,0.0,0.0,0.0,0.0,0.0,0.0,0.0,0.0,0.0,0.0,0.0,0.0,0.0,0.0,0.0,0.0,0.0,0.0,0.0,0.0,0.0,0.0,0.0,0.0,0.0,0.0,0.0,0.0,0.0,0.0,0.0,0.0,0.0,0.0,0.0,0.0,0.0,0.0,0.0,0.0,0.0,0.0,0.0,0.0,0.0,0.0,0.0,0.0,0.0,0.0,0.0,0.0,0.0,0.0,0.0,0.0,0.0,0.0,0.0,0.0,0.0,0.0,0.0,0.0,0.0,0.0,0.0,0.0,0.0,0.0,0.0,0.0,0.0,0.0,0.0,0.0,0.0,0.0,0.0,0.0,0.0,0.0,0.0,0.0,0.0,0.0,0.0,0.0,0.0,0.0,0.0,0.0,0.0,0.0,0.0,0.0,0.0,0.0,0.0,0.0,0.0,0.0,0.0,0.0,0.0,0.0,0.0,0.0,0.0,0.0,0.0,0.0,0.0,0.0,0.0,0.0,0.0,0.0,0.0,0.0,0.0,0.0,0.0,0.0,0.0,0.0,0.0,0.0,0.0,0.0,0.0,0.0,0.0,0.0,0.0,0.0,0.0,0.0,0.0,0.0,0.0,0.0,0.0,0.0,0.0,0.0,0.0,0.0,0.0,0.0,0.0,0.0,0.0,0.0,0.0,0.0,0.0,0.0,0.0,0.0,0.0,0.0,0.0,0.0,0.0,0.0,0.0,0.0,0.0,0.0,0.0,0.0,0.0,0.0,0.0,0.0,0.0,0.0,0.0,0.0,0.0,0.0,0.0,0.0,0.0,0.0,0.0,0.0,0.0,0.0,0.0,0.0,0.0,0.0,0.0,0.0,0.0,0.0,0.0,0.0,0.0,0.0,0.0,0.0,0.0,0.0,0.0,0.0,0.0,0.0,0.0,0.0,0.0,0.0,0.0,0.0,0.0,0.0,0.0,0.0,0.0,0.0,0.0,0.0,0.0,0.0,0.0,0.0,0.0,0.0,0.0,0.0,0.0,0.0,0.0,0.0,0.0,0.0,0.0,0.0,0.0,0.0,0.0,0.0,0.0,0.0,0.0,0.0,0.0,0.0,0.0,0.0,0.0,0.0,0.0,0.0,0.0,0.0,0.0,0.0,0.0,0.0,0.0,0.0,0.0,0.0,0.0,0.0,0.0,0.0,0.0,0.0,0.0,0.0,0.0,0.0,0.0,0.0,0.0,0.0,0.0,0.0,0.0,0.0,0.0,0.0,0.0,0.0,0.0,0.0,0.0,0.0,0.0,0.0,0.0,0.0,0.0,0.0,0.0,0.0,0.0,0.0,0.0,0.0,0.0,0.0,0.0,0.0,0.0,0.0,0.0,0.0,0.0,0.0,0.0,0.0,0.0,0.0,0.0,0.0,0.0,0.0,0.0,0.0,0.0,0.0,0.0,0.0,0.0,0.0,0.0,0.0,0.0,0.0,0.0,0.0,0.0,0.0,0.0,0.0,0.0,0.0,0.0,0.0,0.0,0.0,0.0,0.0,0.0,0.0,0.0,0.0,0.0,0.0,0.0,0.0,0.0,0.0,0.0,0.0,0.0,0.0,0.0,0.0,0.0,0.0,0.0,0.0,0.0,0.0,0.0,0.0,0.0,0.0,0.0,0.0,0.0,0.0,0.0,0.0,0.0,0.0,0.0,0.0,0.0,0.0,0.0,0.0,0.0,0.0,0.0,0.0,0.0,0.0,0.0,0.0,0.0,0.0,0.0,0.0,0.0,0.0,0.0,0.0,0.0,0.0,0.0,0.0,0.0,0.0,0.0,0.0,0.0,0.0,0.0,0.0,0.0,0.0,0.0,0.0,0.0,0.0,0.0,0.0,0.0,0.0,0.0,0.0,0.0,0.0,0.0,0.0,0.0,0.0,0.0,0.0,0.0,0.0,0.0,0.0,0.0,0.0,0.0,0.0,0.0,0.0,0.0,0.0,0.0,0.0,0.0,0.0,0.0,0.0,0.0,0.0,0.0,0.0,0.0,0.0,0.0,0.0,0.0,0.0,0.0,0.0,0.0,0.0,0.0,0.0,0.0,0.0,0.0,0.0,0.0,0.0,0.0,0.0,0.0,0.0,0.0,0.0,0.0,0.0,0.0,0.0,0.0,0.0,0.0,0.0,0.0,0.0,0.0,0.0,0.0,0.0,0.0,0.0,0.0,0.0,0.0,0.0,0.0,0.0,0.0,0.0,0.0,0.0,0.0,0.0,0.0,0.0,0.0,0.0,0.0,0.0,0.0,0.0,0.0,0.0,0.0,0.0,0.0,0.0,0.0,0.0,0.0,0.0,0.0,0.0,0.0,0.0,0.0,0.0,0.0,0.0,0.0,0.0,0.0,0.0,0.0,0.0,0.0,0.0,0.0,0.0,0.0,0.0,0.0,0.0,0.0,0.0,0.0,0.0,0.0,0.0,0.0,0.0,0.0,0.0,0.0,0.0,0.0,0.0,0.0,0.0,0.0,0.0,0.0,0.0,0.0,0.0,0.0,0.0,0.0,0.0,0.0,0.0,0.0,0.0,0.0,0.0,0.0,0.0,0.0,0.0,0.0,0.0,0.0,0.0,0.0,0.0,0.0,0.0,0.0,0.0,0.0,0.0,0.0,0.0,0.0,0.0,0.0,0.0,0.0,0.0,0.0,0.0,0.0,0.0,0.0,0.0,0.0,0.0,0.0,0.0,0.0,0.0,0.0,0.0,0.0,0.0,0.0,0.0,0.0,0.0,0.0,0.0,0.0,0.0,0.0,0.0,0.0,0.0,0.0,0.0,0.0,0.0,0.0,0.0,0.0,0.0,0.0,0.0,0.0,0.0,0.0,0.0,0.0,0.0,0.0,0.0,0.0,0.0,0.0,0.0,0.0,0.0,0.0,0.0,0.0,0.0,0.0,0.0,0.0,0.0,0.0,0.0,0.0,0.0,0.0,0.0,0.0,0.0,0.0,0.0,0.0,0.0,0.0,0.0,0.0,0.0,0.0,0.0,0.0,0.0,0.0,0.0,0.0,0.0,0.0,0.0,0.0,0.0,0.0,0.0,0.0,0.0,0.0,0.0,0.0,0.0,0.0,0.0,0.0,0.0,0.0,0.0,0.0,0.0,0.0,0.0,0.0,0.0,0.0,0.0,0.0,0.0,0.0,0.0,0.0,0.0,0.0,0.0,0.0,0.0,0.0,0.0,0.0,0.0,0.0,0.0,0.0,0.0,0.0,0.0,0.0,0.0,0.0,0.0,0.0,0.0,0.0,0.0,0.0,0.0,0.0,0.0,0.0,0.0,0.0,0.0,0.0,0.0,0.0,0.0,0.0,0.0,0.0,0.0,0.0,0.0,0.0,0.0,0.0,0.0,0.0,0.0,0.0,0.0,0.0,0.0,0.0,0.0,0.0,0.0,0.0,0.0,0.0,0.0,0.0,0.0,0.0,0.0,0.0,0.0,0.0,0.0,0.0,0.0,0.0,0.0,0.0,0.0,0.0,0.0,0.0,0.0,0.0,0.0,0.0,0.0,0.0,0.0,0.0,0.0,0.0,0.0,0.0,0.0,0.0,0.0,0.0,0.0,0.0,0.0,0.0,0.0,0.0,0.0,0.0,0.0,0.0,0.0,0.7555,0.0,0.0,0.0,0.0,0.0,0.0,0.0,0.0,0.0,0.0,0.0,0.0,0.0,0.0,0.0,0.0,0.0,0.0,0.0,0.0,0.0,0.0,0.0,0.0,0.0,0.0,0.0,0.0,0.0,0.0,0.0,0.0,0.0,0.0,0.0,0.0,0.0,0.0,0.0,0.0,0.0,0.0,0.0,0.0,0.0,0.0,0.0,0.0,0.0,0.0,0.0,0.0,0.0,0.0,0.0,0.0,0.0,0.0,0.0,0.0,0.0,0.0,0.0,0.0,0.0,0.0,0.0,0.0,0.0,0.0,0.0,0.0,0.0,0.0,0.0,0.0,0.0,0.0,0.0,0.0,0.0,0.0,0.0,0.0,0.0,0.0,0.0,0.0,0.0,0.0,0.0,0.0,0.0,0.0,0.0,0.0,0.0,0.0,0.0,0.0,0.0,0.0,0.0,0.0,0.0,0.0,0.0,0.0,0.0,0.0,0.8632,0.8057,0.8514,0.8368,0.7555,0.0,0.0,0.0,0.0,0.0,0.0,0.0,0.0,0.0,0.0,0.0,0.0,0.0,0.0,0.0,0.0,0.0,0.0,0.0,0.0,0.0,0.0,0.0,0.0,0.0,0.0,0.0,0.0,0.0,0.0,0.0,0.0,0.0,0.0,0.0,0.0,0.0,0.0,0.0,0.0,0.0,0.0,0.0,0.0,0.0,0.0,0.0,0.0,0.0,0.0,0.0,0.0,0.0,0.0,0.0,0.0,0.0,0.0,0.0,0.0,0.0,0.0,0.0,0.0,0.0,0.0,0.0,0.0,0.0,0.0,0.0,0.0,0.0,0.0,0.0,0.0,0.0,0.0,0.0,0.0,0.0,0.0,0.0,0.0,0.0,0.0,0.0,0.0,0.0,0.0,0.0,0.0,0.0,0.0,0.0,0.0,0.0,0.0,0.0,0.0,0.0,0.0,0.0,0.0,0.0,0.0,0.0,0.0,0.0,0.0,0.0,0.0,0.8943,0.8586,0.7693,0.0,0.0,0.0,0.0,0.0,0.0,0.0,0.0,0.0,0.0,0.0,0.0,0.0,0.0,0.0,0.0,0.0,0.0,0.0,0.0,0.0,0.0,0.0,0.0,0.0,0.0,0.0,0.0,0.0,0.0,0.0,0.0,0.0,0.0,0.0,0.0,0.0,0.0,0.0,0.0,0.0,0.0,0.0,0.0,0.0,0.0,0.0,0.0,0.0,0.0,0.0,0.0,0.0,0.0,0.0,0.0,0.0,0.0,0.0,0.0,0.0,0.0,0.0,0.0,0.0,0.0,0.0,0.0,0.0,0.0,0.0,0.0,0.0,0.0,0.0,0.0,0.0,0.0,0.0,0.0,0.0,0.0,0.0,0.0,0.0,0.0,0.0,0.0,0.0,0.0,0.0,0.0,0.0,0.0,0.0,0.0,0.0,0.0,0.0,0.0,0.0,0.0,0.0,0.0,0.0,0.0,0.0,0.0,0.0,0.0,0.8915,0.9639,0.8719,0.0,0.8072,0.0,0.0,0.0,0.0,0.0,0.0,0.0,0.0,0.0,0.0,0.0,0.0,0.0,0.0,0.0,0.0,0.0,0.0,0.0,0.0,0.0,0.0,0.0,0.0,0.0,0.0,0.0,0.0,0.0,0.0,0.0,0.0,0.0,0.0,0.0,0.0,0.0,0.0,0.0,0.0,0.0,0.0,0.0,0.0,0.0,0.0,0.0,0.0,0.0,0.0,0.0,0.0,0.0,0.0,0.0,0.0,0.0,0.0,0.0,0.0,0.0,0.0,0.0,0.0,0.0,0.0,0.0,0.0,0.0,0.0,0.0,0.0,0.0,0.0,0.0,0.0,0.0,0.0,0.0,0.0,0.0,0.0,0.0,0.0,0.0,0.0,0.0,0.0,0.0,0.0,0.0,0.0,0.0,0.0,0.0,0.0,0.0,0.0,0.0,0.0,0.0,0.0,0.0,0.0,0.0,0.0,0.0,0.0,0.0,0.0,0.8591,0.936,0.8447,0.7992,0.0,0.0,0.0,0.0,0.0,0.0,0.0,0.0,0.0,0.0,0.0,0.0,0.0,0.0,0.0,0.0,0.0,0.0,0.0,0.0,0.0,0.0,0.0,0.0,0.0,0.0,0.0,0.0,0.0,0.0,0.0,0.0,0.0,0.0,0.0,0.0,0.0,0.0,0.0,0.0,0.0,0.0,0.0,0.0,0.0,0.0,0.0,0.0,0.0,0.0,0.0,0.0,0.0,0.0,0.0,0.0,0.0,0.0,0.0,0.0,0.0,0.0,0.0,0.0,0.0,0.0,0.0,0.0,0.0,0.0,0.0,0.0,0.0,0.0,0.0,0.0,0.0,0.0,0.0,0.0,0.0,0.0,0.0,0.0,0.0,0.0,0.0,0.0,0.0,0.0,0.0,0.0,0.0,0.0,0.0,0.0,0.0,0.0,0.0,0.0,0.0,0.0,0.0,0.0,0.0,0.0,0.0,0.0,0.0,0.0,0.8492,0.8476,0.9131,0.8442,0.8072,0.8256,0.0,0.0,0.0,0.0,0.0,0.0,0.0,0.0,0.0,0.0,0.0,0.0,0.0,0.0,0.0,0.0,0.0,0.0,0.0,0.0,0.0,0.0,0.0,0.0,0.0,0.0,0.0,0.0,0.0,0.0,0.0,0.0,0.0,0.0,0.0,0.0,0.0,0.0,0.0,0.0,0.0,0.0,0.0,0.0,0.0,0.0,0.0,0.0,0.0,0.0,0.0,0.0,0.0,0.0,0.0,0.0,0.0,0.0,0.0,0.0,0.0,0.0,0.0,0.0,0.0,0.0,0.0,0.0,0.0,0.0,0.0,0.0,0.0,0.0,0.0,0.0,0.0,0.0,0.0,0.0,0.0,0.0,0.0,0.0,0.0,0.0,0.0,0.0,0.0,0.0,0.0,0.0,0.0,0.0,0.0,0.0,0.0,0.0,0.0,0.0,0.0,0.0,0.0,0.0,0.0,0.0,0.0,0.0,1.0462,0.9158,0.875,0.9466,0.8893,0.8574,0.0,0.0,0.0,0.0,0.0,0.0,0.0,0.0,0.0,0.0,0.0,0.0,0.0,0.0,0.0,0.0,0.0,0.0,0.0,0.0,0.0,0.0,0.0,0.0,0.0,0.0,0.0,0.0,0.0,0.0,0.0,0.0,0.0,0.0,0.0,0.0,0.0,0.0,0.0,0.0,0.0,0.0,0.0,0.0,0.0,0.0,0.0,0.0,0.0,0.0,0.0,0.0,0.0,0.0,0.0,0.0,0.0,0.0,0.0,0.0,0.0,0.0,0.0,0.0,0.0,0.0,0.0,0.0,0.0,0.0,0.0,0.0,0.0,0.0,0.0,0.0,0.0,0.0,0.0,0.0,0.0,0.0,0.0,0.0,0.0,0.0,0.0,0.0,0.0,0.0,0.0,0.0,0.0,0.0,0.0,0.0,0.0,0.0,0.0,0.0,0.0,0.0,0.0,0.0,0.0,0.0,0.0,0.0,0.0,0.9701,0.9752,0.9788,0.9866,0.9294,0.9064,0.0,0.0,0.0,0.0,0.0,0.0,0.0,0.0,0.0,0.0,0.0,0.0,0.0,0.0,0.0,0.0,0.0,0.0,0.0,0.0,0.0,0.0,0.0,0.0,0.0,0.0,0.0,0.0,0.0,0.0,0.0,0.0,0.0,0.0,0.0,0.0,0.0,0.0,0.0,0.0,0.0,0.0,0.0,0.0,0.0,0.0,0.0,0.0,0.0,0.0,0.0,0.0,0.0,0.0,0.0,0.0,0.0,0.0,0.0,0.0,0.0,0.0,0.0,0.0,0.0,0.0,0.0,0.0,0.0,0.0,0.0,0.0,0.0,0.0,0.0,0.0,0.0,0.0,0.0,0.0,0.0,0.0,0.0,0.0,0.0,0.0,0.0,0.0,0.0,0.0,0.0,0.0,0.0,0.0,0.0,0.0,0.0,0.0,0.0,0.0,0.0,0.0,0.0,0.0,0.0,0.0,0.0,0.0,0.0,0.9439,0.0,1.0467,1.0305,0.9684,0.9419,0.0,0.0,0.0,0.0,0.0,0.0,0.0,0.0,0.0,0.0,0.0,0.0,0.0,0.0,0.0,0.0,0.0,0.0,0.0,0.0,0.0,0.0,0.0,0.0,0.0,0.0,0.0,0.0,0.0,0.0,0.0,0.0,0.0,0.0,0.0,0.0,0.0,0.0,0.0,0.0,0.0,0.0,0.0,0.0,0.0,0.0,0.0,0.0,0.0,0.0,0.0,0.0,0.0,0.0,0.0,0.0,0.0,0.0,0.0,0.0,0.0,0.0,0.0,0.0,0.0,0.0,0.0,0.0,0.0,0.0,0.0,0.0,0.0,0.0,0.0,0.0,0.0,0.0,0.0,0.0,0.0,0.0,0.0,0.0,0.0,0.0,0.0,0.0,0.0,0.0,0.0,0.0,0.0,0.0,0.0,0.0,0.0,0.0,0.0,0.0,0.0,0.0,0.0,0.0,0.0,0.0,0.0,0.0,0.8915,0.9753,1.0361,1.0653,1.0695,1.0025,0.9599,0.0,0.0,0.0,0.0,0.0,0.0,0.0,0.0,0.0,0.0,0.0,0.0,0.0,0.0,0.0,0.0,0.0,0.0,0.0,0.0,0.0,0.0,0.0,0.0,0.0,0.0,0.0,0.0,0.0,0.0,0.0,0.0,0.0,0.0,0.0,0.0,0.0,0.0,0.0,0.0,0.0,0.0,0.0,0.0,0.0,0.0,0.0,0.0,0.0,0.0,0.0,0.0,0.0,0.0,0.0,0.0,0.0,0.0,0.0,0.0,0.0,0.0,0.0,0.0,0.0,0.0,0.0,0.0,0.0,0.0,0.0,0.0,0.0,0.0,0.0,0.0,0.0,0.0,0.0,0.0,0.0,0.0,0.0,0.0,0.0,0.0,0.0,0.0,0.0,0.0,0.0,0.0,0.0,0.0,0.0,0.0,0.0,0.0,0.0,0.0,0.0,0.0,0.0,0.0,0.0,0.0,0.0,0.0,0.0,0.9519,0.9747,1.0207,1.09,1.0134,0.991,0.0,0.0,0.0,0.0,0.0,0.0,0.0,0.0,0.0,0.0,0.0,0.0,0.0,0.0,0.0,0.0,0.0,0.0,0.0,0.0,0.0,0.0,0.0,0.0,0.0,0.0,0.0,0.0,0.0,0.0,0.0,0.0,0.0,0.0,0.0,0.0,0.0,0.0,0.0,0.0,0.0,0.0,0.0,0.0,0.0,0.0,0.0,0.0,0.0,0.0,0.0,0.0,0.0,0.0,0.0,0.0,0.0,0.0,0.0,0.0,0.0,0.0,0.0,0.0,0.0,0.0,0.0,0.0,0.0,0.0,0.0,0.0,0.0,0.0,0.0,0.0,0.0,0.0,0.0,0.0,0.0,0.0,0.0,0.0,0.0,0.0,0.0,0.0,0.0,0.0,0.0,0.0,0.0,0.0,0.0,0.0,0.0,0.0,0.0,0.0,0.0,0.0,0.0,0.0,0.0,0.0,0.0,0.0,0.0,0.9965,0.9816,1.0155,1.0959,1.0225,1.0094,1.0689,0.0,0.0,0.0,0.0,0.0,0.0,0.0,0.0,0.0,0.0,0.0,0.0,0.0,0.0,0.0,0.0,0.0,0.0,0.0,0.0,0.0,0.0,0.0,0.0,0.0,0.0,0.0,0.0,0.0,0.0,0.0,0.0,0.0,0.0,0.0,0.0,0.0,0.0,0.0,0.0,0.0,0.0,0.0,0.0,0.0,0.0,0.0,0.0,0.0,0.0,0.0,0.0,0.0,0.0,0.0,0.0,0.0,0.0,0.0,0.0,0.0,0.0,0.0,0.0,0.0,0.0,0.0,0.0,0.0,0.0,0.0,0.0,0.0,0.0,0.0,0.0,0.0,0.0,0.0,0.0,0.0,0.0,0.0,0.0,0.0,0.0,0.0,0.0,0.0,0.0,0.0,0.0,0.0,0.0,0.0,0.0,0.0,0.0,0.0,0.0,0.0,0.0,0.0,0.0,0.0,0.0,0.0,0.0,1.0907,1.0511,1.051,1.0886,1.0349,1.0248,0.0,0.0,0.0,0.0,0.0,0.0,0.0,0.0,0.0,0.0,0.0,0.0,0.0,0.0,0.0,0.0,0.0,0.0,0.0,0.0,0.0,0.0,0.0,0.0,0.0,0.0,0.0,0.0,0.0,0.0,0.0,0.0,0.0,0.0,0.0,0.0,0.0,0.0,0.0,0.0,0.0,0.0,0.0,0.0,0.0,0.0,0.0,0.0,0.0,0.0,0.0,0.0,0.0,0.0,0.0,0.0,0.0,0.0,0.0,0.0,0.0,0.0,0.0,0.0,0.0,0.0,0.0,0.0,0.0,0.0,0.0,0.0,0.0,0.0,0.0,0.0,0.0,0.0,0.0,0.0,0.0,0.0,0.0,0.0,0.0,0.0,0.0,0.0,0.0,0.0,0.0,0.0,0.0,0.0,0.0,0.0,0.0,0.0,0.0,0.0,0.0,0.0,0.0,0.0,0.0,0.0,0.0,0.0,0.0,1.109,1.1288,1.1569,1.1858,1.0897,1.0555,0.0,0.0,0.0,0.0,0.0,0.0,0.0,0.0,0.0,0.0,0.0,0.0,0.0,0.0,0.0,0.0,0.0,0.0,0.0,0.0,0.0,0.0,0.0,0.0,0.0,0.0,0.0,0.0,0.0,0.0,0.0,0.0,0.0,0.0,0.0,0.0,0.0,0.0,0.0,0.0,0.0,0.0,0.0,0.0,0.0,0.0,0.0,0.0,0.0,0.0,0.0,0.0,0.0,0.0,0.0,0.0,0.0,0.0,0.0,0.0,0.0,0.0,0.0,0.0,0.0,0.0,0.0,0.0,0.0,0.0,0.0,0.0,0.0,0.0,0.0,0.0,0.0,0.0,0.0,0.0,0.0,0.0,0.0,0.0,0.0,0.0,0.0,0.0,0.0,0.0,0.0,0.0,0.0,0.0,0.0,0.0,0.0,0.0,0.0,0.0,0.0,0.0,0.0,0.0,0.0,0.0,0.0,0.0,1.0942,1.1735,1.2336,1.2762,1.2944,1.1784,1.1221,0.0,0.0,0.0,0.0,0.0,0.0,0.0,0.0,0.0,0.0,0.0,0.0,0.0,0.0,0.0,0.0,0.0,0.0,0.0,0.0,0.0,0.0,0.0,0.0,0.0,0.0,0.0,0.0,0.0,0.0,0.0,0.0,0.0,0.0,0.0,0.0,0.0,0.0,0.0,0.0,0.0,0.0,0.0,0.0,0.0,0.0,0.0,0.0,0.0,0.0,0.0,0.0,0.0,0.0,0.0,0.0,0.0,0.0,0.0,0.0,0.0,0.0,0.0,0.0,0.0,0.0,0.0,0.0,0.0,0.0,0.0,0.0,0.0,0.0,0.0,0.0,0.0,0.0,0.0,0.0,0.0,0.0,0.0,0.0,0.0,0.0,0.0,0.0,0.0,0.0,0.0,0.0,0.0,0.0,0.0,0.0,0.0,0.0,0.0,0.0,0.0,0.0,0.0,0.0,0.0,0.0,0.0,0.0,1.1727,1.2557,1.3469,1.3948,1.3924,1.2742,1.2002,0.0,0.0,0.0,0.0,0.0,0.0,0.0,0.0,0.0,0.0,0.0,0.0,0.0,0.0,0.0,0.0,0.0,0.0,0.0,0.0,0.0,0.0,0.0,0.0,0.0,0.0,0.0,0.0,0.0,0.0,0.0,0.0,0.0,0.0,0.0,0.0,0.0,0.0,0.0,0.0,0.0,0.0,0.0,0.0,0.0,0.0,0.0,0.0,0.0,0.0,0.0,0.0,0.0,0.0,0.0,0.0,0.0,0.0,0.0,0.0,0.0,0.0,0.0,0.0,0.0,0.0,0.0,0.0,0.0,0.0,0.0,0.0,0.0,0.0,0.0,0.0,0.0,0.0,0.0,0.0,0.0,0.0,0.0,0.0,0.0,0.0,0.0,0.0,0.0,0.0,0.0,0.0,0.0,0.0,0.0,0.0,0.0,0.0,0.0,0.0,0.0,0.0,0.0,0.0,0.0,0.0,0.0,0.0,1.1887,1.2927,1.3787,1.4214,1.4208,1.3147,1.2427,0.0,0.0,0.0,0.0,0.0,0.0,0.0,0.0,0.0,0.0,0.0,0.0,0.0,0.0,0.0,0.0,0.0,0.0,0.0,0.0,0.0,0.0,0.0,0.0,0.0,0.0,0.0,0.0,0.0,0.0,0.0,0.0,0.0,0.0,0.0,0.0,0.0,0.0,0.0,0.0,0.0,0.0,0.0,0.0,0.0,0.0,0.0,0.0,1.3245,0.0,0.0,0.0,0.0,0.0,0.0,0.0,0.0,0.0,0.0,0.0,0.0,0.0,0.0,0.0,0.0,0.0,0.0,0.0,0.0,0.0,0.0,0.0,0.0,0.0,0.0,0.0,0.0,0.0,0.0,0.0,0.0,0.0,0.0,0.0,0.0,0.0,0.0,0.0,0.0,0.0,0.0,0.0,0.0,0.0,0.0,0.0,0.0,0.0,0.0,0.0,0.0,0.0,0.0,0.0,0.0,0.0,0.0,0.0,1.2504,1.3477,1.4014,1.4298,1.4268,1.3507,1.2898,0.0,0.0,0.0,0.0,0.0,0.0,0.0,0.0,0.0,0.0,0.0,0.0,0.0,0.0,0.0,0.0,0.0,0.0,0.0,0.0,0.0,0.0,0.0,0.0,0.0,0.0,0.0,0.0,0.0,0.0,0.0,0.0,0.0,0.0,0.0,0.0,0.0,0.0,0.0,0.0,0.0,0.0,0.0,0.0,0.0,0.0,0.0,0.0,0.0,0.0,0.0,0.0,0.0,0.0,0.0,0.0,0.0,0.0,0.0,0.0,0.0,0.0,0.0,0.0,0.0,0.0,0.0,0.0,0.0,0.0,0.0,0.0,0.0,0.0,0.0,0.0,0.0,0.0,0.0,0.0,0.0,0.0,0.0,0.0,0.0,0.0,0.0,0.0,0.0,0.0,0.0,0.0,0.0,0.0,0.0,0.0,0.0,0.0,0.0,0.0,0.0,0.0,0.0,0.0,0.0,0.0,0.0,1.2306,1.3055,1.3876,1.4159,1.4298,1.4286,1.3827,1.3308,1.2729,0.0,0.0,0.0,0.0,0.0,0.0,0.0,0.0,0.0,0.0,0.0,0.0,0.0,0.0,0.0,0.0,0.0,0.0,0.0,0.0,0.0,0.0,0.0,0.0,0.0,0.0,0.0,0.0,0.0,0.0,0.0,0.0,0.0,0.0,0.0,0.0,0.0,0.0,1.3293,1.3989,0.0,0.0,0.0,0.0,0.0,0.0,0.0,0.0,1.3765,0.0,0.0,0.0,0.0,0.0,0.0,0.0,0.0,0.0,0.0,0.0,0.0,0.0,0.0,0.0,0.0,0.0,0.0,0.0,0.0,0.0,0.0,0.0,0.0,0.0,0.0,0.0,0.0,0.0,0.0,0.0,0.0,0.0,0.0,0.0,0.0,0.0,0.0,0.0,0.0,0.0,0.0,0.0,0.0,0.0,0.0,0.0,0.0,0.0,0.0,0.0,0.0,0.0,0.0,0.0,0.0,1.2127,1.2312,1.2874,1.3882,1.4165,1.4298,1.4292,1.4002,1.3483,1.2735,0.0,0.0,0.0,0.0,0.0,0.0,0.0,0.0,0.0,0.0,0.0,0.0,0.0,0.0,0.0,0.0,0.0,0.0,0.0,0.0,0.0,0.0,0.0,0.0,0.0,0.0,0.0,0.0,0.0,0.0,0.0,0.0,0.0,0.0,0.0,0.0,0.0,0.0,0.0,1.4596,1.4951,0.0,0.0,0.0,0.0,0.0,0.0,0.0,0.0,1.3513,0.0,0.0,0.0,0.0,0.0,0.0,0.0,0.0,0.0,0.0,0.0,0.0,0.0,0.0,0.0,0.0,0.0,0.0,0.0,0.0,0.0,0.0,0.0,0.0,0.0,0.0,0.0,0.0,0.0,0.0,0.0,0.0,0.0,0.0,0.0,0.0,0.0,0.0,0.0,0.0,0.0,0.0,0.0,0.0,0.0,0.0,0.0,0.0,0.0,0.0,0.0,0.0,0.0,0.0,0.0,1.2282,1.2723,1.332,1.4075,1.4232,1.4298,1.4292,1.3912,1.3459,0.0,0.0,0.0,0.0,0.0,0.0,0.0,0.0,0.0,0.0,0.0,0.0,0.0,0.0,0.0,0.0,0.0,0.0,0.0,0.0,0.0,0.0,0.0,0.0,0.0,0.0,0.0,0.0,0.0,0.0,0.0,0.0,0.0,0.0,0.0,0.0,0.0,0.0,0.0,0.0,1.4951,1.5206,1.5367,0.0,0.0,0.0,0.0,0.0,0.0,1.3975,1.3812,0.0,0.0,0.0,0.0,0.0,0.0,0.0,0.0,0.0,0.0,0.0,0.0,0.0,0.0,0.0,0.0,0.0,0.0,0.0,0.0,0.0,0.0,0.0,0.0,0.0,0.0,0.0,0.0,0.0,0.0,0.0,0.0,0.0,0.0,0.0,0.0,0.0,0.0,0.0,0.0,0.0,0.0,0.0,0.0,0.0,0.0,0.0,0.0,0.0,0.0,0.0,0.0,0.0,0.0,0.0,1.2397,1.3133,1.3773,1.4274,1.4298,1.4298,1.4292,1.3894,1.3501,0.0,0.0,0.0,0.0,0.0,0.0,0.0,0.0,0.0,0.0,0.0,0.0,0.0,0.0,0.0,0.0,0.0,0.0,0.0,0.0,0.0,0.0,0.0,0.0,0.0,0.0,0.0,0.0,0.0,0.0,0.0,0.0,0.0,0.0,0.0,0.0,0.0,0.0,0.0,0.0,0.0,1.5442,1.5225,1.5582,0.0,0.0,0.0,0.0,1.3994,1.4142,0.0,0.0,0.0,0.0,0.0,0.0,0.0,0.0,0.0,0.0,0.0,0.0,0.0,0.0,0.0,0.0,0.0,0.0,0.0,0.0,0.0,0.0,0.0,0.0,0.0,0.0,0.0,0.0,0.0,0.0,0.0,0.0,0.0,0.0,0.0,0.0,0.0,0.0,0.0,0.0,0.0,0.0,0.0,0.0,0.0,0.0,0.0,0.0,0.0,0.0,0.0,0.0,0.0,0.0,0.0,0.0,1.2656,1.323,1.3767,1.4268,1.4298,1.4298,1.4298,1.4238,1.387,0.0,0.0,0.0,0.0,0.0,0.0,0.0,0.0,0.0,0.0,0.0,0.0,0.0,0.0,0.0,0.0,0.0,0.0,0.0,0.0,0.0,0.0,0.0,0.0,0.0,0.0,0.0,0.0,0.0,0.0,0.0,0.0,0.0,0.0,0.0,0.0,0.0,0.0,0.0,0.0,0.0,1.5512,1.4629,1.5325,1.533,0.0,0.0,1.2948,1.2315,1.2414,0.0,0.0,0.0,0.0,0.0,0.0,0.0,0.0,0.0,0.0,0.0,0.0,0.0,0.0,0.0,0.0,0.0,0.0,0.0,0.0,0.0,0.0,0.0,0.0,0.0,0.0,0.0,0.0,0.0,0.0,0.0,0.0,0.0,0.0,0.0,0.0,0.0,0.0,0.0,0.0,0.0,0.0,0.0,0.0,0.0,0.0,0.0,0.0,0.0,0.0,0.0,0.0,0.0,0.0,0.0,1.218,1.2699,1.3242,1.3773,1.4274,1.4298,1.4298,1.4298,1.4153,1.3845,0.0,0.0,0.0,0.0,0.0,0.0,0.0,0.0,0.0,0.0,0.0,0.0,0.0,0.0,0.0,0.0,0.0,0.0,0.0,0.0,0.0,0.0,0.0,0.0,0.0,0.0,0.0,0.0,0.0,0.0,0.0,0.0,0.0,0.0,0.0,0.0,0.0,0.0,0.0,0.0,0.0,0.0,1.5527,1.5557,0.0,0.0,0.0,1.3466,1.3061,0.0,0.0,0.0,0.0,0.0,0.0,0.0,0.0,0.0,0.0,0.0,0.0,0.0,0.0,0.0,0.0,0.0,0.0,0.0,0.0,0.0,0.0,0.0,0.0,0.0,0.0,0.0,0.0,0.0,0.0,0.0,0.0,0.0,0.0,0.0,0.0,0.0,0.0,0.0,0.0,0.0,0.0,0.0,0.0,0.0,0.0,0.0,0.0,0.0,0.0,0.0,0.0,0.0,0.0,0.0,0.0,0.0,1.2705,1.3369,1.3906,1.428,1.4298,1.4298,1.4298,1.4105,0.0,0.0,0.0,0.0,0.0,0.0,0.0,0.0,0.0,0.0,0.0,0.0,0.0,0.0,0.0,0.0,0.0,0.0,0.0,0.0,0.0,0.0,0.0,0.0,0.0,0.0,0.0,1.4716,0.0,0.0,0.0,0.0,0.0,0.0,0.0,0.0,0.0,0.0,0.0,0.0,0.0,0.0,1.5323,1.5379,1.5119,1.4673,0.0,0.0,1.3534,1.328,1.2905,1.2571,0.0,0.0,0.0,0.0,0.0,0.0,0.0,0.0,0.0,0.0,0.0,0.0,0.0,0.0,0.0,0.0,0.0,0.0,0.0,0.0,0.0,0.0,0.0,0.0,0.0,0.0,0.0,0.0,0.0,0.0,0.0,0.0,0.0,0.0,0.0,0.0,0.0,0.0,0.0,0.0,0.0,0.0,0.0,0.0,0.0,0.0,0.0,0.0,0.0,0.0,0.0,0.0,0.0,0.0,0.0,1.2735,1.3719,1.4256,1.4298,1.4298,1.4298,1.4298,1.428,1.4032,0.0,0.0,0.0,0.0,0.0,0.0,0.0,0.0,0.0,0.0,0.0,0.0,0.0,0.0,0.0,0.0,0.0,0.0,0.0,0.0,0.0,0.0,0.0,0.0,0.0,0.0,0.0,0.0,0.0,0.0,0.0,0.0,0.0,0.0,0.0,0.0,0.0,0.0,0.0,0.0,0.0,1.4652,1.2819,1.3345,1.3377,0.0,0.0,1.222,1.1765,1.1647,1.1544,1.1325,0.0,0.0,0.0,0.0,0.0,0.0,0.0,0.0,0.0,0.0,0.0,0.0,0.0,0.0,0.0,0.0,0.0,0.0,0.0,0.0,0.0,0.0,0.0,0.0,0.0,0.0,0.0,0.0,0.0,0.0,0.0,0.0,0.0,0.0,0.0,0.0,0.0,0.0,0.0,0.0,0.0,0.0,0.0,0.0,0.0,0.0,0.0,0.0,0.0,0.0,0.0,0.0,0.0,1.2542,1.2711,1.3598,1.4135,1.4292,1.4298,1.4298,1.4298,1.4298,1.4129,0.0,0.0,0.0,0.0,0.0,0.0,0.0,0.0,0.0,0.0,0.0,0.0,0.0,0.0,0.0,0.0,0.0,0.0,0.0,0.0,0.0,0.0,0.0,0.0,0.0,0.0,0.0,0.0,1.6016,1.6126,1.6151,0.0,0.0,0.0,0.0,0.0,0.0,0.0,0.0,0.0,0.0,1.3695,1.3713,1.3499,0.0,0.0,1.2932,1.2815,1.1848,1.1761,1.1827,1.1614,1.1647,0.0,0.0,0.0,0.0,0.0,0.0,0.0,0.0,0.0,0.0,0.0,0.0,0.0,0.0,0.0,0.0,0.0,0.0,0.0,0.0,0.0,0.0,0.0,0.0,0.0,0.0,0.0,0.0,0.0,0.0,0.0,0.0,0.0,0.0,0.0,0.0,0.0,0.0,0.0,0.0,0.0,0.0,0.0,0.0,0.0,0.0,0.0,0.0,0.0,0.0,0.0,0.0,1.2355,1.2705,1.3391,1.3969,1.4292,1.4298,1.4298,1.4298,1.4298,1.4171,0.0,0.0,0.0,0.0,0.0,0.0,0.0,0.0,0.0,0.0,0.0,0.0,0.0,0.0,0.0,0.0,0.0,0.0,0.0,0.0,0.0,0.0,0.0,0.0,0.0,0.0,0.0,0.0,1.6585,1.6531,1.6274,0.0,0.0,0.0,0.0,0.0,0.0,0.0,0.0,0.0,0.0,1.31,1.3674,1.31,1.273,1.2957,1.307,1.284,1.203,1.1935,1.194,1.1841,0.0,0.0,0.0,0.0,0.0,0.0,0.0,0.0,0.0,0.0,0.0,0.0,0.0,0.0,0.0,0.0,0.0,0.0,0.0,0.0,0.0,0.0,0.0,0.0,0.0,0.0,0.0,0.0,0.0,0.0,0.9176,0.0,0.0,0.0,0.0,0.0,0.0,0.0,0.0,0.0,0.0,0.0,0.0,0.0,0.0,0.0,0.0,0.0,0.0,0.0,0.0,0.0,0.0,1.2198,1.268,1.3246,1.3763,1.4298,1.4298,1.4298,1.4298,1.4298,1.4177,1.3912,0.0,0.0,0.0,0.0,0.0,0.0,0.0,0.0,0.0,0.0,0.0,0.0,0.0,0.0,0.0,0.0,0.0,0.0,0.0,0.0,0.0,0.0,0.0,0.0,0.0,0.0,1.6269,1.6329,1.6474,0.0,0.0,0.0,0.0,0.0,0.0,0.0,0.0,0.0,0.0,1.3421,1.3023,1.2014,1.1864,1.194,1.2154,1.2021,1.1902,1.2106,1.1968,1.1822,0.0,0.0,0.0,0.0,0.0,0.0,0.0,0.0,0.0,0.0,0.0,0.0,0.0,0.0,0.0,0.0,0.0,0.0,0.0,0.0,0.0,0.0,0.0,0.0,0.0,0.0,0.0,0.9408,0.9284,0.0,0.0,0.0,0.0,0.0,0.0,0.0,0.0,0.0,0.0,0.0,1.081,1.0884,0.0,0.0,0.0,0.0,0.0,0.0,0.0,0.0,0.0,0.0,0.0,0.0,1.2458,1.2937,1.3292,1.3775,1.4298,1.4298,1.4298,1.4298,1.3962,1.3653,1.3391,0.0,0.0,0.0,0.0,0.0,0.0,0.0,0.0,0.0,0.0,0.0,0.0,0.0,0.0,0.0,0.0,0.0,0.0,0.0,0.0,0.0,0.0,0.0,0.0,0.0,1.7458,0.0,0.0,0.0,0.0,0.0,0.0,0.0,0.0,0.0,0.0,0.0,1.3964,1.3472,1.2787,1.2223,1.2011,1.1977,1.2053,0.0,0.0,0.0,0.0,0.0,0.0,0.0,0.0,0.0,0.0,0.0,0.0,0.0,0.0,1.037,1.0132,1.0092,1.0092,1.0092,0.0,0.0,0.0,0.0,0.0,0.0,0.0,0.0,0.0,0.0,0.0,0.0,0.0,0.0,0.0,0.0,0.9096,0.0,0.0,0.0,0.0,0.0,0.0,0.0,0.0,1.0194,1.0428,1.0683,1.0759,1.0863,0.0,1.1,1.107,0.0,0.0,0.0,0.0,0.0,0.0,0.0,0.0,1.2355,1.3195,1.3244,1.3582,1.425,1.4298,1.4298,1.4298,1.3775,1.3411,1.3235,1.3008,1.275,0.0,0.0,0.0,0.0,0.0,0.0,0.0,0.0,0.0,0.0,0.0,0.0,0.0,0.0,0.0,0.0,0.0,0.0,0.0,0.0,0.0,0.0,0.0,1.7424,0.0,0.0,0.0,0.0,0.0,0.0,0.0,0.0,0.0,1.5548,1.439,1.3397,1.3111,1.2446,1.2087,1.2175,0.0,0.0,0.0,0.0,0.0,0.0,0.0,1.2543,1.2155,1.2155,1.2011,1.1742,1.1193,1.0533,0.9735,0.0,0.0,0.9452,0.942,0.9442,0.9444,0.9287,0.9052,0.9052,0.8825,0.8684,0.0,0.0,0.0,0.0,0.0,0.0,0.0,0.0,0.9315,0.9428,0.0,0.9409,0.0,0.0,0.0,0.0,0.0,0.9847,0.0,0.0,1.0683,1.0891,1.0929,1.1113,1.1212,1.1212,1.1217,1.1458,1.1922,1.1094,0.0,0.0,0.0,0.0,0.0,0.0,1.1983,1.3379,1.3031,1.3266,1.4238,1.4286,1.428,1.4286,1.3804,1.3508,1.3443,1.2751,1.2383,1.242,1.2337,0.0,0.0,0.0,0.0,0.0,0.0,0.0,0.0,0.0,0.0,0.0,0.0,0.0,0.0,0.0,0.0,0.0,0.0,0.0,0.0,1.6211,0.0,0.0,0.0,0.0,0.0,0.0,0.0,0.0,0.0,0.0,1.3714,1.3667,1.3323,1.2512,0.0,0.0,0.0,0.0,1.2526,1.2729,1.2828,1.2899,1.3089,1.3065,1.2712,1.1733,0.0,0.0,1.0402,1.0251,0.9996,0.9303,0.9121,0.9278,0.9615,0.9629,0.9721,0.9803,0.9252,0.8778,0.8729,0.8195,0.774,1.0188,0.0,0.0,0.0,0.0,0.9428,0.9582,0.9828,0.9937,0.9946,0.9871,0.9965,0.0,0.0,0.0,0.0,0.0,0.0,1.0189,1.0535,1.0659,1.0905,1.1335,1.1401,1.1501,1.1638,1.1638,1.1689,1.1836,1.162,1.1619,1.1888,0.0,0.0,0.0,0.0,1.2119,1.2863,1.277,1.3159,1.4209,1.4209,1.4059,1.3724,1.375,1.3402,1.2655,1.2294,1.2271,1.2603,1.2083,0.0,0.0,0.0,0.0,0.0,0.0,0.0,0.0,0.0,0.0,0.0,0.0,0.0,0.0,0.0,0.0,0.0,0.0,0.0,1.8169,1.7282,1.6635,0.0,0.0,0.0,0.0,0.0,0.0,0.0,0.0,0.0,1.2886,1.2778,1.2695,0.0,0.0,1.2382,1.2382,1.2573,1.2696,1.2762,0.0,0.0,0.0,1.2488,1.1967,1.1623,1.1093,1.041,0.967,0.9516,0.9227,0.8419,0.8297,0.8303,0.842,0.8435,0.8476,0.8378,0.8154,0.7968,0.7894,0.7732,0.7695,1.0594,0.9893,0.9767,0.9776,0.9894,0.9894,1.0008,1.0251,1.0384,1.0412,1.0369,1.0371,1.0412,1.0369,1.0374,0.0,0.0,0.0,1.0749,1.1066,1.1066,1.1269,1.1619,1.1633,1.1699,1.1813,1.1817,1.1817,1.1817,1.1817,1.1938,1.2154,0.0,0.0,1.2104,1.1958,1.2238,1.295,1.271,1.2997,1.3873,1.3868,1.3726,1.347,1.3431,1.3055,1.2354,1.1984,1.1924,1.2073,1.1849,1.1773,0.0,0.0,0.0,0.0,0.0,0.0,0.0,0.0,0.0,0.0,0.0,1.6316,1.6994,0.0,0.0,0.0,1.6836,1.692,1.7204,1.6205,0.0,0.0,0.0,0.0,0.0,0.0,0.0,1.406,1.3649,1.3197,1.2495,1.2382,1.2382,1.2382,1.2382,1.2469,1.2559,0.0,1.2885,1.3046,1.3117,1.3105,1.2772,1.2255,1.1607,1.0785,0.9972,0.9339,0.8921,0.8863,0.8729,0.8331,0.8218,0.8155,0.8155,0.8157,0.8081,0.7888,0.7842,0.7815,0.7741,0.7826,0.7899,1.1156,1.0934,1.056,1.0381,1.0348,1.0393,1.0471,1.0716,1.0721,1.0787,1.0953,1.0806,1.083,1.0972,1.0972,0.0,1.1543,1.1543,1.1628,1.1817,1.1817,1.1827,1.1794,1.1841,1.185,1.1865,1.1869,1.1817,1.1874,1.1869,1.186,1.1841,1.1855,1.2018,1.2224,1.1998,1.2311,1.3291,1.2797,1.2853,1.3374,1.3426,1.3426,1.3374,1.2869,1.2491,1.2234,1.1771,1.1435,1.126,1.1639,1.1693,1.1314,0.0,0.0,0.0,0.0,0.0,0.0,0.0,0.0,0.0,0.0,0.0,0.0,0.0,0.0,0.0,1.5495,0.0,1.4796,1.4004,0.0,0.0,0.0,1.5491,1.5618,1.4804,1.4169,1.4062,0.0,0.0,1.2382,0.0,1.2382,1.2382,1.2382,1.2512,1.2771,1.2767,1.2989,1.3277,1.3327,1.3058,1.2354,1.2024,1.1185,0.9579,0.86,0.8207,0.8265,0.8318,0.8446,0.8519,0.8576,0.8573,0.8581,0.8552,0.8486,0.8221,0.8155,0.8139,0.8103,0.8133,0.8193,1.1789,1.159,1.1491,1.1269,1.0981,1.0972,1.1184,1.1515,1.1524,1.1553,1.1595,1.1548,1.1553,1.16,1.1595,1.1652,1.1746,1.1742,1.177,1.1813,1.1817,1.1855,1.2006,1.201,1.209,1.2227,1.2236,1.2236,1.2236,1.2236,1.2209,1.2024,1.2161,1.2163,1.1924,1.2011,1.2169,1.2379,1.2428,1.2724,1.3319,1.3789,1.3789,1.3314,1.2877,1.2417,1.1942,1.1646,1.1567,1.1661,1.1768,1.1849,1.1898,1.2017,0.0,0.0,0.0,0.0,0.0,0.0,0.0,0.0,0.0,1.6172,1.7106,0.0,1.7281,0.0,1.4915,1.455,1.5984,1.4826,0.0,0.0,1.5081,1.5098,1.3447,1.384,1.3846,1.2925,1.2599,1.2382,1.2382,1.2382,1.2382,1.2382,1.2382,1.2405,1.2517,1.28,1.3084,1.3088,1.2754,1.2427,1.2105,1.0906,0.9673,0.8552,0.8222,0.8158,0.8214,0.8337,0.8426,0.8459,0.8532,0.8579,0.8587,0.8587,0.8562,0.8473,0.8394,0.8272,0.8163,0.8223,0.8337,1.2015,1.1954,1.1855,1.1737,1.1559,1.1515,1.1605,1.1813,1.1817,1.1817,1.1817,1.1817,1.1869,1.1907,1.1911,1.1958,1.2091,1.2038,1.2091,1.2101,1.2195,1.2304,1.2422,1.2512,1.2611,1.272,1.272,1.2673,1.2587,1.2587,1.2479,1.2227,1.233,1.2269,1.2057,1.2161,1.2383,1.2602,1.2488,1.255,1.2876,1.3256,1.3251,1.293,1.2699,1.237,1.1968,1.1799,1.1798,1.1817,1.1855,1.1963,1.2076,1.2125,1.21,0.0,0.0,0.0,0.0,0.0,0.0,0.0,0.0,0.0,0.0,0.0,1.7093,1.6798,1.5089,1.4437,1.5585,1.434,1.3413,1.3413,1.3943,1.3825,1.2545,1.298,1.3142,1.2495,1.2382,1.2382,1.2382,1.2382,1.2382,1.2382,1.2382,1.2474,1.2578,1.2795,1.2847,1.2488,1.2277,1.1782,1.1072,0.9633,0.8503,0.8147,0.8081,0.8079,0.8147,0.8301,0.8418,0.8424,0.8511,0.8587,0.8587,0.8587,0.8587,0.8579,0.8541,0.8429,0.8258,0.832,0.8391,1.2238,1.2184,1.1997,1.202,1.2205,1.1987,1.1893,1.1898,1.1893,1.1898,1.1898,1.1898,1.1963,1.2165,1.2165,1.2278,1.2517,1.2467,1.2467,1.2476,1.2715,1.2805,1.287,1.3041,1.3065,1.3065,1.3065,1.298,1.2866,1.2861,1.2706,1.2526,1.2467,1.2521,1.2576,1.2493,1.2683,1.3152,1.2659,1.2382,1.2382,1.2382,1.2382,1.2382,1.2363,1.2264,1.21,1.2085,1.2001,1.1879,1.2015,1.2128,1.2128,1.2123,1.2123,0.0,1.2234,0.0,0.0,0.0,0.0,0.0,0.0,0.0,0.0,1.6028,1.6769,1.7312,1.5328,1.4164,1.4417,1.3186,1.2382,1.2382,1.2382,1.2382,1.2382,1.2382,1.2382,1.2382,1.2382,1.2382,1.2382,1.2382,1.2382,1.2382,1.2382,1.2388,1.2506,1.252,1.2327,1.1744,1.1587,1.0844,0.9542,0.848,0.7933,0.7947,0.8015,0.8089,0.8092,0.8228,0.8391,0.8402,0.8497,0.8584,0.8587,0.8587,0.8587,0.8587,0.8581,0.8538,0.8437,0.8426,0.8435,1.2743,1.2857,1.2479,1.2446,1.263,1.2413,1.2269,1.2269,1.2269,1.2269,1.2269,1.2269,1.2446,1.2644,1.2649,1.2758,1.2947,1.2947,1.2951,1.2951,1.2989,1.307,1.3013,1.3108,1.3065,1.3065,1.3065,1.3046,1.307,1.307,1.2989,1.2951,1.2947,1.3173,1.3564,0.0,0.0,0.0,1.2441,1.2382,1.2382,1.2382,1.2382,1.2382,1.2227,0.0,1.209,1.2085,1.2067,1.2091,1.2222,0.0,0.0,0.0,0.0,0.0,0.0,0.0,0.0,0.0,0.0,0.0,1.5506,1.5747,1.5741,1.5518,1.5672,1.6393,1.4648,1.3472,1.3521,1.2876,1.2382,1.2382,1.2382,1.2382,1.2382,1.2382,1.2382,1.2382,1.2382,1.2382,1.2382,1.2382,1.2382,1.2382,1.2382,1.2123,1.1511,1.1642,1.1634,1.1412,1.0512,0.9394,0.8337,0.7983,0.7861,0.7877,0.7883,0.7969,0.7991,0.8108,0.8266,0.8274,0.8443,0.8584,0.8584,0.8587,0.8587,0.8587,0.8587,0.8554,0.8446,0.8492,0.853,1.3098,0.0,1.2999,1.2975,0.0,1.2956,1.2847,1.2739,1.2644,1.2658,1.2748,1.2748,1.281,1.2965,1.287,1.2819,1.297,1.281,1.2814,1.2979,1.3074,1.3184,1.323,1.3325,1.3435,1.3372,1.3372,1.332,1.323,1.3225,1.3173,1.3069,1.3065,1.3241,1.3469,1.3136,1.2758,1.2387,1.2382,1.2382,1.2382,1.2382,1.2382,1.2382,0.0,0.0,0.0,0.0,0.0,0.0,0.0,0.0,0.0,0.0,0.0,1.2382,1.2713,1.2989,1.3315,1.4121,1.4708,1.4982,1.5303,1.5565,1.5891,1.5624,1.5405,1.5232,1.4331,1.3472,1.293,1.2604,1.2382,1.2382,1.2382,1.2382,1.2382,1.2382,1.2382,1.2382,1.2382,1.2382,1.2382,1.2382,1.2382,1.2382,1.2382,1.206,1.1299,1.1202,1.1009,1.0205,0.9084,0.814,0.7793,0.7755,0.7788,0.779,0.7834,0.7867,0.7933,0.8021,0.8147,0.8163,0.8339,0.8503,0.8508,0.8546,0.8587,0.8587,0.8587,0.8573,0.8511,0.8546,0.8571,1.3358,1.3542,1.3471,1.3438,1.3443,1.3443,1.3343,1.3159,0.0,0.0,0.0,1.3065,1.3141,1.3112,1.2951,1.2951,1.2918,1.2743,1.2758,1.2994,1.3155,1.3273,1.3447,1.3613,1.3688,1.3688,1.3688,1.3603,1.3452,1.3443,1.3353,1.325,1.3236,1.3159,1.3184,1.3121,1.2937,1.2514,1.255,1.2481,1.2498,1.2498,1.2479,1.2387,1.2382,1.2382,1.2382,1.2382,1.2382,1.2382,1.2382,1.2382,1.2382,1.2382,1.2382,1.2382,1.2382,1.2599,1.3098,1.3689,1.4337,1.4982,1.5041,1.5196,1.5731,1.5571,1.5083,1.4116,1.3954,1.3462,1.2491,1.2382,1.2382,1.2382,1.2382,1.2382,1.2382,1.2382,1.2382,1.2382,1.2382,1.2382,1.2382,1.2382,1.2382,1.2382,1.2219,1.1782,1.0907,1.0531,1.0042,0.8731,0.7929,0.7391,0.733,0.739,0.7456,0.7292,0.7375,0.7559,0.7702,0.7846,0.7983,0.8065,0.8244,0.8361,0.8391,0.8473,0.8552,0.8557,0.8576,0.8587,0.8587,0.8384,0.8248,1.3996,1.4156,1.3797,1.3646,1.3646,1.3646,1.3627,1.357,1.3192,1.3098,1.3065,1.3065,1.3226,1.3343,1.3315,1.3395,1.3551,1.3528,1.3528,0.0,1.3589,1.3618,1.3646,1.3674,1.3688,1.3688,1.3688,1.3674,1.3651,1.3646,1.3627,1.3599,1.3603,1.3514,1.3358,1.3343,1.3225,1.2989,1.298,1.2895,1.2729,1.278,1.263,1.2396,1.2382,1.2382,1.2382,1.2382,1.2382,1.2382,1.2382,1.2382,1.2382,1.2382,1.2382,1.2382,1.2382,1.2441,1.255,1.3093,1.391,1.4874,1.5041,1.5035,1.5089,1.4229,1.3586,1.3418,1.3034,1.2599,1.2387,1.2382,1.2382,1.2382,1.2382,1.2382,1.2382,1.2382,1.2382,1.2382,1.2382,1.2382,1.2382,1.2382,1.2382,1.2278,1.1618,1.0688,0.942,0.8871,0.849,0.7754,0.7391,0.7156,0.6892,0.6788,0.6662,0.6139,0.6213,0.6519,0.695,0.7153,0.7406,0.7924,0.8036,0.8119,0.8135,0.8361,0.8293,0.8246,0.8239,0.8371,0.8238,0.7438,0.7045,1.4293,1.4454,1.4279,1.4199,1.4185,1.3962,1.3863,1.3849,1.3665,1.3509,1.3419,1.3528,1.357,1.3551,1.3551,1.3542,1.3523,1.3405,1.3419,1.3523,1.3523,1.3584,1.3684,1.3688,1.3688,1.3688,1.3688,1.3688,1.3688,1.3688,1.3688,1.3688,1.3688,1.3641,1.3556,1.3551,1.3504,1.3405,1.324,1.3079,1.2989,1.288,1.2771,1.2616,1.2502,1.2382,1.2382,1.2382,1.2382,1.2382,1.2382,1.2382,1.2382,1.2382,1.2382,1.2382,1.2382,1.2382,1.2382,1.2989,1.364,1.4498,1.4229,1.4067,1.4067,1.3905,1.3635,1.3315,1.3039,1.2767,1.2441,1.2382,1.2382,1.2382,1.2382,1.2382,1.2382,1.2382,1.2382,1.2382,1.2382,1.2382,1.2382,1.2382,1.2164,1.1728,1.0574,0.9368,0.8537,0.782,0.7338,0.7225,0.6955,0.6694,0.6467,0.6259,0.5989,0.5708,0.5821,0.6016,0.6337,0.6445,0.6586,0.6846,0.6988,0.7049,0.7058,0.7143,0.7135,0.6763,0.6769,0.6689,0.6101,0.54,0.5364,1.4548,1.47,1.464,1.4612,1.4527,1.4133,1.3967,1.4005,1.3953,1.3844,1.3731,1.3915,1.3939,1.3835,1.3788,1.3703,1.3575,1.3377,1.34,1.3575,1.3499,1.3566,1.374,1.3717,1.3688,1.3688,1.3688,1.3688,1.3688,1.3688,1.3688,1.3688,1.3688,1.3688,1.3688,1.3688,1.3688,1.367,1.3372,1.3159,1.3122,1.297,1.2791,1.2687,1.2526,1.2382,1.2382,1.2382,1.2382,1.2382,1.2382,1.2382,1.2382,1.2382,1.2382,1.2382,1.2382,1.2382,1.2436,1.293,1.3527,1.3954,1.3581,1.332,1.3315,1.3581,1.363,1.3207,1.3044,1.2876,1.2495,1.2382,1.2382,1.2382,1.2382,1.2382,1.2382,1.2382,1.2382,1.2382,1.2382,1.2332,1.2164,1.211,1.1618,1.0519,0.9199,0.8318,0.7928,0.6874,0.6374,0.6541,0.6374,0.6047,0.594,0.5641,0.534,0.5235,0.5311,0.5397,0.5542,0.5663,0.5786,0.5921,0.6025,0.6006,0.5833,0.5831,0.5625,0.506,0.4918,0.4579,0.3551,0.3258,0.3353,1.4819,1.4838,1.4898,1.4794,1.4508,1.3986,1.384,1.3977,1.3811,1.3712,1.3726,1.3915,1.4099,1.4213,1.4048,1.4043,1.4156,1.401,1.401,1.4133,1.3835,1.3778,1.3953,1.3788,1.3688,1.3703,1.3703,1.3707,1.3712,1.3698,1.3693,1.3688,1.3688,1.3693,1.3688,1.3688,1.3688,1.3688,1.3655,1.3447,1.3088,1.3051,1.2857,1.2424,1.2401,1.2382,1.2382,1.2382,1.2382,1.2382,1.2382,1.2382,1.2382,1.2382,1.2382,1.2382,1.2382,1.2382,1.2441,1.2935,1.3315,1.3369,1.3315,1.3266,1.3261,1.2876,1.2545,1.2495,1.2491,1.2491,1.2441,1.2382,1.2382,1.2382,1.2382,1.2382,1.2382,1.2382,1.2382,1.2382,1.2382,1.2114,1.1568,1.1345,1.0574,0.9199,0.8315,0.7482,0.6816,0.6096,0.5539,0.5594,0.5485,0.526,0.4886,0.4779,0.4569,0.4186,0.4049,0.4419,0.48,0.5049,0.517,0.5421,0.5609,0.5315,0.4832,0.4614,0.4346,0.3409,0.3123,0.2972,0.1769,0.1393,0.1605,1.487,1.487,1.487,1.4818,1.4508,1.4095,1.3934,1.3996,1.3915,1.3877,1.3892,1.3972,1.3991,1.3948,1.3986,1.3996,1.3948,1.3986,1.4048,1.4118,1.3953,1.3991,1.4151,1.3977,1.3939,1.4038,1.3939,1.3882,1.3877,1.3882,1.3877,1.3877,1.3877,1.3816,1.3703,1.3688,1.3688,1.3688,1.3688,1.3547,1.3296,1.3258,1.3112,1.2838,1.2696,1.2564,1.2401,1.2382,1.2382,1.2382,1.2382,1.2382,1.2382,1.2382,1.2382,1.2382,1.2382,1.2382,1.2382,1.2604,1.2767,1.2767,1.2767,1.2772,1.2767,1.255,1.2382,1.2382,1.2382,1.2382,1.2382,1.2382,1.2382,1.2382,1.2382,1.2382,1.2382,1.2382,1.2382,1.2382,1.2382,1.2278,1.1782,1.0954,0.9911,0.8647,0.7873,0.7041,0.6374,0.5761,0.526,0.4925,0.4592,0.4424,0.4433,0.4224,0.4069,0.3889,0.3839,0.4082,0.4244,0.4315,0.4439,0.4684,0.4312,0.388,0.339,0.2718,0.2175,0.1496,0.0692,0.0255,-0.013,-0.0327,-0.0197,1.487,1.4926,1.4874,1.477,1.4596,1.4189,1.4014,1.4,1.3948,1.3925,1.3929,1.3986,1.3892,1.3736,1.391,1.3948,1.3882,1.3967,1.4081,1.4151,1.4071,1.4118,1.4284,1.417,1.4142,1.4203,1.4137,1.409,1.409,1.4095,1.4066,1.4024,1.4014,1.3901,1.3712,1.3688,1.3688,1.3688,1.3688,1.3618,1.349,1.3471,1.3343,1.3141,1.2927,1.2687,1.254,1.2419,1.2382,1.2382,1.2382,1.2382,1.2382,1.2382,1.2382,1.2382,1.2382,1.2382,1.2382,1.2382,1.2382,1.2382,1.2382,1.2382,1.2382,1.2382,1.2382,1.2382,1.2382,1.2382,1.2382,1.2382,1.2382,1.2382,1.2382,1.2382,1.2382,1.2382,1.2382,1.2382,1.2164,1.1778,1.1232,0.9966,0.8754,0.8149,0.7265,0.6596,0.6042,0.5371,0.4702,0.4313,0.3866,0.381,0.415,0.3983,0.3754,0.3741,0.3804,0.3879,0.3861,0.3748,0.3517,0.3513,0.2651,0.1973,0.1602,0.0924,0.0432,-0.0371,-0.0998,-0.1391,-0.1215,-0.1478,-0.1493,1.487,1.4842,1.4663,1.4579,1.4532,1.4189,1.401,1.3977,1.3802,1.3712,1.3745,1.3915,1.3892,1.3707,1.3901,1.4099,1.4222,1.4076,1.4199,1.4409,1.4175,1.4118,1.4303,1.4298,1.4213,1.4151,1.4251,1.4303,1.4303,1.4288,1.4199,1.4033,1.4038,1.391,1.3731,1.3698,1.3688,1.3688,1.3688,1.3684,1.367,1.3665,1.3476,1.3069,1.288,1.2823,1.272,1.255,1.2382,1.2382,1.2382,1.2382,1.2382,1.2382,1.2382,1.2382,1.2382,1.2382,1.2382,1.2382,1.2382,1.2382,1.2382,1.2382,1.2382,1.2382,1.2382,1.2382,1.2382,1.2382,1.2382,1.2382,1.2382,1.2382,1.2382,1.2382,1.2382,1.2382,1.2382,1.2278,1.1837,1.0903,0.9144,0.7875,0.7651,0.721,0.6318,0.5594,0.5427,0.4534,0.3921,0.3755,0.3643,0.3643,0.3649,0.3681,0.3719,0.3706,0.383,0.3912,0.3575,0.3292,0.2881,0.2401,0.1659,0.086,0.0,-0.0555,-0.0863,-0.13,-0.1621,-0.1827,-0.1704,-0.1917,-0.1934,1.487,1.4847,1.4718,1.4553,1.4397,1.4128,1.3939,1.3802,1.3721,1.3688,1.3698,1.3773,1.3764,1.3693,1.3769,1.3849,1.3915,1.3977,1.4095,1.4213,1.4076,1.4189,1.4482,1.4383,1.4435,1.4577,1.4544,1.4515,1.4496,1.4378,1.435,1.4378,1.427,1.4104,1.391,1.3759,1.3688,1.3688,1.3688,1.3688,1.3688,1.3688,1.3365,1.2627,1.2843,1.2956,1.2772,1.2554,1.2382,1.2382,1.2382,1.2382,1.2382,1.2382,1.2382,1.2382,1.2382,1.2382,1.2382,1.2382,1.2382,1.2382,1.2382,1.2382,1.2382,1.2382,1.2382,1.2382,1.2382,1.2382,1.2382,1.2382,1.2382,1.2382,1.2382,1.2382,1.2382,1.2382,1.2382,1.2327,1.2055,1.1232,0.9581,0.903,0.8423,0.7374,0.6485,0.5817,0.5371,0.4648,0.3977,0.3698,0.3587,0.3587,0.3587,0.3601,0.363,0.367,0.3782,0.3822,0.3617,0.2923,0.2459,0.2107,0.1207,0.0121,-0.0668,-0.11,-0.1532,-0.1723,-0.1985,-0.1989,-0.1992,-0.2011,-0.2027,1.4733,1.4723,1.4662,1.4511,1.4293,1.4095,1.3929,1.3788,1.3717,1.3688,1.3698,1.3759,1.3759,1.3712,1.3764,1.3745,1.3707,1.384,1.3944,1.401,1.4014,1.4161,1.4378,1.435,1.4454,1.4685,1.4612,1.4657,1.4635,1.4515,1.4496,1.4541,1.4477,1.4279,1.4033,1.3863,1.3764,1.3707,1.3688,1.3688,1.3688,1.3688,1.3384,1.2855,1.3051,1.296,1.2476,1.215,1.2169,1.2341,1.2382,1.2382,1.2382,1.2382,1.2382,1.2382,1.2382,1.2382,1.2382,1.2382,1.2382,1.2382,1.2382,1.2382,1.2382,1.2382,1.2382,1.2382,1.2382,1.2382,1.2382,1.2382,1.2382,1.2382,1.2382,1.2382,1.2382,1.2382,1.211,1.1505,1.0899,1.0072,0.9023,0.8468,0.7753,0.6707,0.6093,0.5536,0.5148,0.459,0.4089,0.3699,0.3587,0.3587,0.3587,0.3595,0.36,0.3635,0.3676,0.3704,0.3431,0.2689,0.1996,0.1649,0.0769,-0.0358,-0.114,-0.1572,-0.1822,-0.1949,-0.1956,-0.196,-0.1966,-0.1973,-0.1996,1.4303,1.4331,1.4534,1.4463,1.4241,1.4081,1.4005,1.3929,1.3764,1.3688,1.3712,1.3887,1.3844,1.3759,1.3859,1.3868,1.3721,1.3717,1.3816,1.3972,1.3986,1.4005,1.4071,1.4218,1.4322,1.4411,1.4548,1.4728,1.486,1.4626,1.4551,1.4565,1.4527,1.4383,1.4029,1.3981,1.3873,1.3736,1.3688,1.3688,1.3688,1.3688,1.3629,1.349,1.3367,1.2754,1.1729,1.1538,1.1795,1.2296,1.2382,1.2382,1.2382,1.2382,1.2382,1.2382,1.2382,1.2382,1.2382,1.2382,1.2382,1.2382,1.2382,1.2382,1.2382,1.2382,1.2382,1.2382,1.2382,1.2382,1.2327,1.2273,1.2327,1.2382,1.2332,1.2219,1.2273,1.2327,1.1723,1.0237,0.9078,0.7479,0.6596,0.6371,0.6091,0.5704,0.5093,0.4702,0.4592,0.4145,0.3699,0.3643,0.3587,0.3587,0.3587,0.3587,0.3589,0.3598,0.3639,0.3672,0.3217,0.2596,0.1621,0.1045,-0.0175,-0.1294,-0.1423,-0.1791,-0.1846,-0.1911,-0.192,-0.1934,-0.1945,-0.1957,-0.198,1.3887,1.391,1.4118,1.4085,1.391,1.3972,1.3929,1.3788,1.3712,1.3688,1.3703,1.3764,1.3755,1.3717,1.3764,1.3755,1.3688,1.3693,1.3726,1.3788,1.3797,1.3873,1.4,1.4076,1.426,1.4501,1.4532,1.4598,1.4635,1.4598,1.4565,1.4546,1.4482,1.435,1.4203,1.3944,1.3745,1.3703,1.3688,1.3688,1.3688,1.3688,1.3384,1.2775,1.2598,1.2246,1.1697,1.2072,1.2326,1.2396,1.2382,1.2382,1.2382,1.2382,1.2382,1.2382,1.2382,1.2382,1.2382,1.2382,1.2382,1.2382,1.2382,1.2382,1.2382,1.2382,1.2382,1.2382,1.2382,1.2219,1.1673,1.1509,1.1728,1.2332,1.1891,1.1509,1.145,1.1008,1.046,0.9908,0.9023,0.8195,0.7313,0.6591,0.5871,0.5316,0.4814,0.448,0.4369,0.3977,0.3643,0.3587,0.3587,0.3587,0.3587,0.3587,0.3587,0.3587,0.3613,0.3635,0.3185,0.2277,0.1314,0.0229,-0.0981,-0.1625,-0.1815,-0.1878,-0.1873,-0.1879,-0.1893,-0.1909,-0.1866,-0.1885,-0.1966,1.3457,1.3485,1.3693,1.3655,1.349,1.3688,1.3707,1.3599,1.366,1.3688,1.3688,1.3693,1.3688,1.3688,1.3688,1.3688,1.3688,1.3688,1.3688,1.3688,1.3688,1.3769,1.3915,1.4066,1.4185,1.4378,1.4477,1.4515,1.4515,1.4452,1.4553,1.4586,1.4496,1.4388,1.4293,1.3986,1.3783,1.3707,1.3688,1.3504,1.3204,1.3144,1.2664,1.1872,1.1993,1.1984,1.171,1.2427,1.2743,1.2448,1.2382,1.2382,1.2382,1.2382,1.2382,1.2382,1.2382,1.2382,1.2382,1.2382,1.2382,1.2382,1.2382,1.2382,1.2382,1.2382,1.2382,1.2382,1.2055,1.1673,1.1181,1.0739,1.0899,1.1337,1.0958,1.0629,1.0464,0.9856,0.9247,0.8803,0.8082,0.7362,0.6589,0.5924,0.5369,0.4758,0.4424,0.4145,0.4089,0.3866,0.3699,0.3587,0.3587,0.3587,0.3587,0.3587,0.3587,0.3587,0.3593,0.3601,0.3436,0.2028,0.0847,-0.0283,-0.1478,-0.1652,-0.1836,-0.184,-0.184,-0.1853,-0.1864,-0.1882,-0.1899,-0.1865,-0.1947,1.2918,1.2946,1.3089,1.3008,1.2816,1.3005,1.3048,1.3193,1.3337,1.3361,1.3504,1.3444,1.3629,1.3688,1.3721,1.374,1.3712,1.3736,1.374,1.3726,1.3707,1.3712,1.3764,1.4066,1.417,1.4104,1.4246,1.4326,1.435,1.4189,1.4367,1.4546,1.4385,1.4447,1.4231,1.4095,1.3798,1.3527,1.3509,1.3084,1.2178,1.2113,1.1752,1.097,1.1627,1.1823,1.162,1.2117,1.2571,1.2438,1.2382,1.2382,1.2382,1.2382,1.2382,1.2382,1.2382,1.2382,1.2382,1.2382,1.2382,1.2382,1.2273,1.2327,1.2219,1.2001,1.1887,1.1887,1.1396,1.0962,1.0688,1.019,0.9798,0.9688,0.9691,0.9688,0.9578,0.8809,0.8146,0.7479,0.6316,0.5204,0.4869,0.4257,0.3921,0.3754,0.3754,0.3754,0.3699,0.3643,0.3643,0.3587,0.3587,0.3587,0.3587,0.3587,0.3587,0.3587,0.3587,0.3587,0.3363,0.1961,0.0561,-0.0617,-0.1461,-0.1686,-0.1801,-0.1811,-0.1813,-0.1817,-0.1832,-0.1851,-0.1874,-0.19,-0.1929,1.0651,1.0671,1.0908,1.0952,1.0936,1.1097,1.1249,1.1362,1.1406,1.1984,1.2444,1.2599,1.2955,1.3643,1.3793,1.3925,1.3789,1.3854,1.3925,1.3901,1.3755,1.3698,1.3736,1.3953,1.4066,1.4033,1.4189,1.4312,1.4259,1.3726,1.3838,1.4555,1.3694,1.3609,1.4145,1.3897,1.3337,1.2728,1.2599,1.2118,1.1333,1.1148,1.1088,1.091,1.1027,1.0982,1.0659,1.0618,1.1292,1.2296,1.2382,1.2382,1.2327,1.2327,1.2327,1.2382,1.2382,1.2387,1.2387,1.2382,1.2382,1.2332,1.1891,1.1455,1.14,1.0844,1.0566,1.0457,1.0237,0.9856,0.9364,0.9034,0.8644,0.8091,0.8644,0.8702,0.8039,0.7315,0.6818,0.6541,0.5539,0.4814,0.4424,0.3977,0.3587,0.3587,0.3587,0.3587,0.3587,0.3587,0.3587,0.3587,0.3587,0.3587,0.3587,0.3587,0.3587,0.3587,0.3587,0.3587,0.3082,0.2074,0.0785,-0.0449,-0.1178,-0.1459,-0.1684,-0.18,-0.1795,-0.1795,-0.1804,-0.1825,-0.1849,-0.1874,-0.1907,0.9861,0.9805,0.9906,0.9943,1.0021,1.0175,1.0302,1.0392,1.0467,1.0882,1.1431,1.1519,1.1863,1.2487,1.26,1.2699,1.2755,1.3198,1.3115,1.2721,1.2563,1.2928,1.3523,1.3906,1.3967,1.3901,1.4085,1.417,1.4132,1.3622,1.3834,1.4114,1.3206,1.2989,1.3332,1.2769,1.2234,1.1696,1.1575,1.1148,1.0243,1.0183,0.9876,0.9819,0.993,1.0158,1.0196,0.998,1.0347,1.1118,1.1337,1.1446,1.1837,1.1837,1.2005,1.2327,1.2382,1.2273,1.2001,1.2164,1.2223,1.1951,1.1564,1.1459,1.1185,1.0574,1.0296,0.9908,0.9523,0.903,0.8647,0.854,0.8481,0.8533,0.8754,0.8533,0.7374,0.6763,0.6207,0.5761,0.5148,0.4369,0.4201,0.3811,0.3643,0.3587,0.3587,0.3587,0.3587,0.3587,0.3587,0.3587,0.3587,0.3587,0.3587,0.3587,0.3587,0.3587,0.3587,0.3587,0.297,0.2129,0.1121,0.0056,-0.0729,-0.129,-0.1514,-0.1683,-0.1795,-0.1795,-0.1795,-0.1806,-0.1834,-0.1857,-0.1889,0.9667,0.9548,0.9548,0.9537,0.9503,0.97,0.9621,0.9805,0.9806,1.0124,1.0377,1.0473,1.0685,1.0763,1.1255,1.1031,1.1181,1.2073,1.1868,1.151,1.1367,1.191,1.2995,1.342,1.3485,1.3523,1.3779,1.3991,1.3915,1.3863,1.3956,1.3929,1.3119,1.271,1.2873,1.1971,1.116,1.1209,1.1269,1.0789,1.0001,0.9819,0.9562,0.9029,0.9083,0.9417,0.9643,0.9546,0.9467,0.9523,0.9688,1.0296,1.0903,1.0962,1.1291,1.1778,1.1832,1.1614,1.1181,1.1559,1.1728,1.1177,1.1505,1.1782,1.0907,1.0578,1.019,0.9849,0.9089,0.8868,0.8813,0.8702,0.8978,0.9357,0.9684,0.8972,0.7706,0.6763,0.6096,0.5427,0.4871,0.4201,0.381,0.3587,0.3587,0.3587,0.3587,0.3587,0.3587,0.3587,0.3587,0.3587,0.3587,0.3587,0.3587,0.3587,0.3587,0.3587,0.3587,0.3475,0.3025,0.2241,0.1401,0.056,-0.0168,-0.0785,-0.129,-0.1458,-0.1739,-0.1795,-0.1795,-0.1808,-0.1827,-0.1849,-0.1877,0.7788,0.7859,0.7862,0.78,0.7791,0.7844,0.7956,0.7956,0.7983,0.8587,0.9182,0.9416,0.9898,1.0543,1.0705,1.1123,1.0996,1.1332,1.1309,1.1119,1.0984,1.1053,1.1607,1.212,1.2518,1.2677,1.3366,1.3788,1.3718,1.3141,1.3296,1.3929,1.2837,1.2821,1.3285,1.263,1.2599,1.2053,1.1812,1.1212,1.0611,1.0361,1.019,0.9779,0.9222,0.861,0.811,0.79,0.7768,0.8091,0.9027,0.9911,1.0021,1.0076,1.0296,1.0511,1.0511,1.0347,1.0186,1.0406,1.0351,1.0296,1.0131,0.9526,1.0076,0.9585,0.953,0.9578,0.9633,0.9416,0.9526,0.9523,0.9688,0.9962,0.9959,0.9523,0.8367,0.726,0.6313,0.5481,0.4479,0.3754,0.3643,0.3587,0.3587,0.3587,0.3587,0.3587,0.3587,0.3587,0.3587,0.3587,0.3587,0.3587,0.3587,0.3587,0.3587,0.3587,0.3587,0.3587,0.3081,0.2688,0.2017,0.1233,0.0448,-0.0224,-0.0897,-0.1514,-0.1795,-0.1795,-0.1795,-0.1803,-0.1816,-0.1839,-0.1865,0.7244,0.7255,0.7312,0.7266,0.724,0.7279,0.7304,0.726,0.7249,0.7601,0.8111,0.8256,0.8605,0.9153,0.9429,0.9568,0.9803,0.9996,1.0223,1.0195,0.9946,0.9588,0.9663,1.0422,1.1027,1.1514,1.2062,1.247,1.2397,1.2143,1.1975,1.2631,1.1618,1.1405,1.2085,1.1675,1.1152,1.1333,1.1088,1.0789,1.0789,1.0789,1.0763,1.0554,0.9891,0.9188,0.8939,0.8633,0.8504,0.864,0.9302,0.9581,0.9251,0.9251,0.9581,1.0241,0.9962,1.0072,1.0296,1.0406,1.0464,1.0351,1.0245,1.0355,1.0406,0.997,0.9695,0.9798,0.9853,0.9908,1.0351,1.0406,1.0515,1.0954,1.1008,1.0625,0.9636,0.7977,0.6369,0.5425,0.4367,0.381,0.3587,0.3587,0.3587,0.3587,0.3587,0.3587,0.3587,0.3587,0.3587,0.3587,0.3587,0.3587,0.3587,0.3587,0.3587,0.3587,0.3587,0.3587,0.3418,0.3081,0.2744,0.1905,0.1121,0.0224,-0.0448,-0.1121,-0.1739,-0.1795,-0.1795,-0.1795,-0.1804,-0.1827,-0.1855,0.7258,0.719,0.7293,0.7266,0.7237,0.7282,0.7269,0.7224,0.721,0.7276,0.7301,0.7266,0.7591,0.7561,0.7799,0.7876,0.8215,0.8553,0.9107,0.9376,0.8846,0.8452,0.8415,0.8967,0.9576,1.0361,1.091,1.1054,1.1157,1.0936,1.1187,1.0949,1.0199,1.0458,1.0372,0.9454,0.9569,1.0728,1.0368,1.0183,1.0668,1.0793,1.0778,1.0711,1.0347,1.0087,0.9932,0.9774,0.9684,0.9794,0.9794,0.9412,0.8923,0.8813,0.9199,1.0794,1.0131,1.0072,1.046,1.0684,1.0739,1.0907,1.1396,1.1618,1.1126,1.0958,1.0739,1.0511,1.0457,1.068,1.1181,1.1291,1.1618,1.2055,1.2327,1.1946,1.0844,0.8637,0.7196,0.5704,0.4534,0.3699,0.3587,0.3587,0.3587,0.3587,0.3587,0.3587,0.3587,0.3587,0.3587,0.3587,0.3587,0.3587,0.3587,0.3587,0.3587,0.3587,0.3587,0.3587,0.3587,0.3418,0.3025,0.2577,0.1793,0.0896,0.0056,-0.0673,-0.1177,-0.157,-0.1795,-0.1795,-0.1804,-0.1818,-0.1843,0.723,0.7309,0.7271,0.7266,0.7237,0.7285,0.7266,0.7224,0.721,0.7221,0.7198,0.729,0.7336,0.7396,0.7494,0.7733,0.8027,0.8349,0.848,0.8542,0.8259,0.8076,0.8033,0.8175,0.8358,0.8784,0.9754,1.0572,1.0647,1.0804,1.0508,1.0705,1.0443,1.0486,1.0486,1.0425,0.9997,1.0607,1.0429,1.0425,1.0728,1.077,1.0763,1.0714,1.0345,1.0257,1.0254,1.0044,0.9794,0.9794,0.9794,0.9739,0.9743,0.9688,0.9911,1.0021,0.9962,0.9962,1.0406,1.0186,1.0076,1.0017,1.0457,1.0848,1.1017,1.1185,1.1345,1.1723,1.1778,1.1941,1.2164,1.2055,1.2169,1.2382,1.2327,1.2001,1.0962,0.9743,0.83,0.6697,0.5089,0.3587,0.3587,0.3587,0.3587,0.3587,0.3587,0.3587,0.3587,0.3587,0.3587,0.3587,0.3587,0.3587,0.3587,0.3587,0.3587,0.3587,0.3587,0.3587,0.3587,0.3587,0.3306,0.2914,0.2353,0.1513,0.0728,-0.0168,-0.0953,-0.157,-0.1739,-0.1795,-0.1802,-0.181,-0.1825,0.7245,0.7249,0.7307,0.7266,0.7245,0.7282,0.7266,0.7221,0.721,0.721,0.7226,0.7214,0.7241,0.7271,0.7369,0.7597,0.7872,0.8117,0.8149,0.807,0.8038,0.8002,0.7869,0.7869,0.7933,0.8113,0.8906,0.939,0.9271,0.9268,0.939,0.9271,0.9329,0.9515,0.9758,0.9393,0.9933,1.0358,1.0297,1.0297,1.071,1.0714,1.0662,1.0547,1.0355,1.0345,1.0714,1.0624,1.0743,1.1063,1.1168,1.1114,1.1114,1.1059,1.0899,1.0515,1.0127,1.0292,1.0785,1.0844,1.068,1.1114,1.1114,1.1286,1.1618,1.1837,1.1946,1.2219,1.2382,1.2382,1.2382,1.2382,1.2382,1.2382,1.2382,1.211,1.1509,1.0511,0.913,0.7581,0.5922,0.4534,0.3587,0.3587,0.3587,0.3587,0.3587,0.3587,0.3587,0.3587,0.3587,0.3587,0.3587,0.3587,0.3587,0.3587,0.3587,0.3587,0.3587,0.3587,0.3587,0.3587,0.3587,0.3419,0.2801,0.2073,0.1065,0.0056,-0.0729,-0.1458,-0.1627,-0.1683,-0.1739,-0.1802,-0.1817,0.721,0.7218,0.7258,0.7244,0.7235,0.7255,0.7244,0.7224,0.721,0.721,0.721,0.7215,0.7218,0.719,0.7296,0.7467,0.7679,0.7896,0.7921,0.7872,0.785,0.7839,0.7837,0.7839,0.7842,0.7933,0.8055,0.7933,0.8113,0.8175,0.7991,0.8113,0.7994,0.8158,0.8687,0.8424,0.9102,0.9309,0.9493,0.9433,0.9936,1.0031,1.0137,1.0237,0.9978,1.0168,1.0839,1.1011,1.1244,1.1728,1.211,1.2327,1.2382,1.2382,1.2055,1.14,1.068,1.1227,1.1669,1.1782,1.1618,1.2055,1.2273,1.2387,1.2332,1.2273,1.2327,1.2382,1.2382,1.2382,1.2382,1.2382,1.2382,1.2382,1.2382,1.2273,1.1891,1.1063,0.9849,0.8303,0.67,0.5314,0.4089,0.3587,0.3587,0.3587,0.3587,0.3587,0.3587,0.3587,0.3587,0.3587,0.3587,0.3587,0.3587,0.3587,0.3587,0.3587,0.3587,0.3587,0.3587,0.3587,0.3587,0.3587,0.325,0.2521,0.1401,0.0561,0.0,-0.0561,-0.1234,-0.1627,-0.1739,-0.1797,-0.1808,0.721,0.721,0.7224,0.7221,0.7213,0.7235,0.7229,0.7213,0.721,0.721,0.721,0.721,0.721,0.724,0.7282,0.7415,0.7543,0.7663,0.7728,0.7695,0.7701,0.7706,0.772,0.7722,0.7766,0.7807,0.7839,0.7933,0.7908,0.7908,0.7864,0.7861,0.7903,0.7942,0.8025,0.7837,0.7782,0.7937,0.7864,0.7867,0.8043,0.8081,0.8469,0.8887,0.9067,0.9299,1.0115,1.0544,1.0966,1.1236,1.1946,1.2327,1.2382,1.2382,1.2382,1.2273,1.2164,1.2169,1.2327,1.2219,1.2114,1.2387,1.2382,1.2382,1.2382,1.2382,1.2382,1.2382,1.2382,1.2382,1.2382,1.2382,1.2382,1.2382,1.2382,1.2273,1.2001,1.1618,1.0402,0.9244,0.7697,0.5813,0.4257,0.3867,0.3587,0.3587,0.3587,0.3587,0.3587,0.3587,0.3587,0.3587,0.3587,0.3587,0.3587,0.3587,0.3587,0.3587,0.3587,0.3587,0.3587,0.3587,0.3587,0.3531,0.3306,0.3081,0.2297,0.1569,0.0953,0.0168,-0.0617,-0.1234,-0.1683,-0.1742,-0.1745,0.7217,0.721,0.721,0.721,0.721,0.721,0.721,0.721,0.721,0.721,0.721,0.721,0.721,0.7235,0.7282,0.7323,0.735,0.7445,0.7491,0.75,0.7505,0.7535,0.7587,0.76,0.7641,0.7668,0.7671,0.7655,0.7701,0.7799,0.7847,0.7777,0.7769,0.7709,0.7611,0.7597,0.757,0.7538,0.7524,0.7521,0.75,0.7453,0.7585,0.8039,0.7978,0.8426,0.9064,0.9414,0.9915,1.0245,1.0844,1.1177,1.1505,1.1728,1.1782,1.2382,1.2382,1.2382,1.2382,1.2382,1.2382,1.2382,1.2382,1.2382,1.2382,1.2382,1.2382,1.2382,1.2382,1.2382,1.2382,1.2382,1.2382,1.2382,1.2382,1.2327,1.2164,1.1728,1.1013,0.9853,0.8637,0.6753,0.5035,0.4201,0.3811,0.3587,0.3587,0.3587,0.3587,0.3587,0.3587,0.3587,0.3587,0.3587,0.3587,0.3587,0.3587,0.3587,0.3587,0.3587,0.3587,0.3587,0.3587,0.3587,0.3475,0.325,0.2913,0.2353,0.1624,0.0784,-0.0056,-0.0504,-0.0953,-0.1627,-0.1693,0.7236,0.7213,0.721,0.721,0.721,0.721,0.721,0.721,0.721,0.721,0.721,0.721,0.721,0.7226,0.7236,0.7241,0.7229,0.7249,0.7282,0.729,0.7307,0.7366,0.744,0.7417,0.7494,0.7516,0.7554,0.7548,0.7589,0.7663,0.7714,0.7657,0.7655,0.7587,0.7505,0.7467,0.7393,0.7399,0.7399,0.7517,0.768,0.7445,0.7468,0.7491,0.7435,0.7543,0.8097,0.854,0.8978,0.9306,1.0186,1.0739,1.1126,1.1564,1.1837,1.2327,1.2382,1.2382,1.2382,1.2382,1.2382,1.2382,1.2382,1.2382,1.2382,1.2382,1.2382,1.2382,1.2382,1.2382,1.2382,1.2382,1.2382,1.2382,1.2382,1.2382,1.2327,1.1946,1.1509,1.0684,0.9412,0.7916,0.6311,0.4868,0.4145,0.3699,0.3587,0.3587,0.3587,0.3587,0.3587,0.3587,0.3587,0.3587,0.3587,0.3587,0.3587,0.3587,0.3587,0.3587,0.3587,0.3587,0.3587,0.3587,0.3587,0.3475,0.325,0.2801,0.2296,0.1568,0.0896,0.0392,-0.0168,-0.0953,-0.1587,0.7218,0.721,0.7204,0.7204,0.721,0.721,0.721,0.721,0.721,0.721,0.721,0.721,0.721,0.7218,0.7226,0.7235,0.7213,0.7218,0.7237,0.7237,0.7235,0.7252,0.7317,0.7361,0.7396,0.7475,0.7464,0.7472,0.7505,0.7491,0.7535,0.7532,0.7524,0.7451,0.7385,0.7347,0.7304,0.7252,0.7292,0.7729,0.7891,0.7806,0.7689,0.8125,0.7721,0.7265,0.7376,0.8205,0.8595,0.8868,0.9911,1.0629,1.0907,1.1509,1.2001,1.2278,1.2382,1.2382,1.2382,1.2382,1.2382,1.2382,1.2382,1.2382,1.2382,1.2382,1.2382,1.2382,1.2382,1.2382,1.2382,1.2382,1.2382,1.2382,1.2382,1.2382,1.2327,1.211,1.1673,1.1291,1.0241,0.8858,0.7529,0.6144,0.4423,0.3866,0.3587,0.3587,0.3587,0.3587,0.3587,0.3587,0.3587,0.3587,0.3587,0.3587,0.3587,0.3587,0.3587,0.3587,0.3587,0.3587,0.3587,0.3587,0.3587,0.3587,0.3587,0.3194,0.2801,0.2352,0.1792,0.1177,0.0448,-0.0336,-0.1025,0.7008,0.6993,0.6937,0.7076,0.721,0.721,0.721,0.721,0.721,0.721,0.721,0.721,0.721,0.721,0.721,0.721,0.721,0.721,0.721,0.721,0.7224,0.7243,0.7222,0.7236,0.7249,0.7298,0.7301,0.7296,0.7288,0.732,0.7298,0.7309,0.7375,0.7323,0.7263,0.7236,0.7254,0.7232,0.7265,0.7654,0.8208,0.8318,0.8426,0.914,0.9085,0.8806,0.8916,0.9082,0.892,0.8978,0.9801,1.0241,1.0574,1.1286,1.1891,1.2332,1.2382,1.2382,1.2382,1.2382,1.2382,1.2382,1.2382,1.2382,1.2382,1.2382,1.2382,1.2382,1.2382,1.2382,1.2382,1.2382,1.2382,1.2382,1.2382,1.2382,1.2327,1.2169,1.1946,1.1564,1.0962,1.0021,0.8689,0.7362,0.5532,0.4033,0.3811,0.3587,0.3587,0.3587,0.3587,0.3587,0.3587,0.3587,0.3587,0.3587,0.3587,0.3587,0.3587,0.3587,0.3587,0.3587,0.3587,0.3587,0.3587,0.3587,0.3587,0.3587,0.3362,0.2913,0.2353,0.1737,0.1009,0.0336,-0.0398,0.688,0.6804,0.6804,0.6896,0.7046,0.7089,0.7161,0.7166,0.7196,0.721,0.721,0.721,0.721,0.721,0.721,0.721,0.721,0.721,0.721,0.721,0.721,0.721,0.721,0.7218,0.7232,0.721,0.721,0.7224,0.7237,0.7215,0.7232,0.7206,0.7228,0.7214,0.719,0.721,0.721,0.721,0.7265,0.7651,0.8374,0.8208,0.8702,0.9361,0.9357,0.9416,0.9467,0.9629,0.9416,0.942,0.9746,1.0186,1.0515,1.0954,1.1728,1.2164,1.2382,1.2382,1.2382,1.2382,1.2382,1.2382,1.2382,1.2382,1.2382,1.2382,1.2382,1.2382,1.2382,1.2382,1.2382,1.2382,1.2382,1.2382,1.2382,1.2382,1.2332,1.2223,1.2114,1.1891,1.1291,1.0794,0.8968,0.7473,0.5644,0.4145,0.3755,0.3587,0.3587,0.3587,0.3587,0.3587,0.3587,0.3587,0.3587,0.3587,0.3587,0.3587,0.3587,0.3587,0.3587,0.3587,0.3587,0.3587,0.3587,0.3587,0.3587,0.3587,0.3587,0.3531,0.297,0.2409,0.1792,0.1121,0.0283,0.6796,0.6804,0.679,0.6796,0.6825,0.694,0.6989,0.6999,0.715,0.7202,0.7207,0.721,0.721,0.721,0.721,0.721,0.721,0.721,0.721,0.721,0.721,0.721,0.721,0.721,0.721,0.721,0.721,0.721,0.721,0.721,0.721,0.721,0.7235,0.7179,0.7213,0.721,0.721,0.721,0.721,0.7709,0.8152,0.7931,0.8537,0.9526,0.9526,0.9585,1.0182,1.0347,1.0131,0.9966,1.0629,1.0958,1.0962,1.1728,1.2223,1.2327,1.2382,1.2382,1.2382,1.2382,1.2382,1.2382,1.2382,1.2382,1.2382,1.2382,1.2382,1.2382,1.2382,1.2382,1.2382,1.2382,1.2382,1.2382,1.2382,1.2382,1.2332,1.2332,1.2223,1.211,1.1891,1.1286,0.9299,0.7365,0.559,0.4369,0.3811,0.3587,0.3587,0.3587,0.3587,0.3587,0.3587,0.3587,0.3587,0.3587,0.3587,0.3587,0.3587,0.3587,0.3587,0.3587,0.3587,0.3587,0.3587,0.3587,0.3587,0.3587,0.3587,0.3587,0.3587,0.3138,0.252,0.1851,0.1017,0.6508,0.6559,0.6559,0.6559,0.6538,0.6779,0.6864,0.6885,0.6989,0.7084,0.7199,0.721,0.721,0.721,0.721,0.721,0.721,0.721,0.721,0.721,0.721,0.721,0.721,0.721,0.721,0.721,0.721,0.721,0.721,0.721,0.721,0.721,0.721,0.721,0.721,0.721,0.721,0.721,0.7265,0.7598,0.8322,0.8263,0.8758,1.041,1.0135,1.0406,1.1173,1.1177,1.1118,1.0794,1.1459,1.1623,1.1404,1.2005,1.2387,1.2382,1.2382,1.2382,1.2382,1.2382,1.2382,1.2382,1.2382,1.2382,1.2382,1.2382,1.2382,1.2382,1.2382,1.2382,1.2382,1.2382,1.2382,1.2382,1.2382,1.2382,1.2387,1.2387,1.2327,1.2273,1.2055,1.1177,0.9633,0.8364,0.67,0.5146,0.4534,0.3811,0.3643,0.3587,0.3587,0.3587,0.3587,0.3587,0.3587,0.3587,0.3587,0.3587,0.3587,0.3587,0.3587,0.3587,0.3587,0.3587,0.3587,0.3587,0.3587,0.3587,0.3587,0.3587,0.3587,0.3587,0.3138,0.2409,0.1627,0.6387,0.6387,0.6387,0.6387,0.6419,0.6654,0.6757,0.6809,0.6891,0.6986,0.7076,0.715,0.7174,0.7196,0.721,0.721,0.721,0.721,0.721,0.721,0.721,0.721,0.721,0.721,0.721,0.721,0.721,0.721,0.721,0.721,0.721,0.721,0.721,0.721,0.721,0.721,0.721,0.721,0.7265,0.7432,0.782,0.8094,0.865,0.975,1.0355,1.0954,1.1728,1.206,1.2164,1.1896,1.1896,1.2169,1.1896,1.2001,1.2382,1.2382,1.2382,1.2382,1.2382,1.2382,1.2382,1.2382,1.2382,1.2382,1.2382,1.2382,1.2382,1.2382,1.2382,1.2382,1.2382,1.2382,1.2382,1.2382,1.2382,1.2382,1.2382,1.2382,1.2382,1.2327,1.211,1.1122,1.03,0.9251,0.8033,0.6647,0.5314,0.459,0.3811,0.3643,0.3643,0.3587,0.3587,0.3587,0.3587,0.3587,0.3587,0.3587,0.3587,0.3587,0.3587,0.3587,0.3587,0.3587,0.3587,0.3587,0.3587,0.3587,0.3587,0.3587,0.3587,0.3587,0.3587,0.3026,0.2297,0.6387,0.6387,0.6387,0.6387,0.6408,0.6567,0.6679,0.6787,0.6796,0.6866,0.6978,0.6978,0.7029,0.718,0.7196,0.7202,0.721,0.721,0.721,0.721,0.721,0.721,0.721,0.721,0.721,0.721,0.721,0.721,0.721,0.721,0.721,0.721,0.721,0.721,0.721,0.721,0.721,0.721,0.721,0.7321,0.7487,0.7432,0.8042,0.8923,0.9636,1.046,1.1232,1.1896,1.2219,1.2273,1.2327,1.2382,1.2382,1.2382,1.2382,1.2382,1.2382,1.2382,1.2382,1.2382,1.2382,1.2382,1.2382,1.2382,1.2382,1.2382,1.2382,1.2382,1.2382,1.2382,1.2382,1.2382,1.2382,1.2382,1.2382,1.2382,1.2382,1.2382,1.2382,1.2327,1.2273,1.1669,1.1126,1.0186,0.9085,0.8033,0.67,0.5757,0.4866,0.3698,0.3699,0.3587,0.3587,0.3587,0.3587,0.3587,0.3587,0.3587,0.3587,0.3587,0.3587,0.3587,0.3587,0.3587,0.3587,0.3587,0.3587,0.3587,0.3587,0.3587,0.3587,0.3587,0.3587,0.3587,0.2971,0.6387,0.6387,0.6387,0.6387,0.6392,0.6425,0.6559,0.6665,0.6673,0.6741,0.6855,0.6855,0.6921,0.7029,0.7035,0.7139,0.7182,0.721,0.721,0.721,0.721,0.721,0.721,0.721,0.721,0.721,0.721,0.721,0.721,0.721,0.721,0.721,0.721,0.721,0.721,0.721,0.721,0.721,0.721,0.721,0.721,0.721,0.7709,0.8426,0.9251,1.0076,1.0958,1.1841,1.2223,1.2382,1.2382,1.2382,1.2382,1.2382,1.2382,1.2382,1.2382,1.2382,1.2382,1.2382,1.2382,1.2382,1.2382,1.2382,1.2382,1.2382,1.2382,1.2382,1.2382,1.2382,1.2382,1.2382,1.2382,1.2382,1.2382,1.2382,1.2382,1.2327,1.2327,1.2273,1.2219,1.1946,1.1404,1.0907,0.986,0.9085,0.8143,0.7088,0.5922,0.4756,0.4033,0.3977,0.3587,0.3587,0.3587,0.3587,0.3587,0.3587,0.3587,0.3587,0.3587,0.3587,0.3587,0.3587,0.3587,0.3587,0.3587,0.3587,0.3587,0.3587,0.3587,0.3587,0.3587,0.3587,0.3419,0.6387,0.6387,0.6387,0.6387,0.6387,0.6387,0.6433,0.654,0.6495,0.6562,0.6722,0.673,0.6798,0.691,0.6967,0.7078,0.7133,0.7191,0.721,0.721,0.7204,0.721,0.721,0.721,0.721,0.721,0.721,0.721,0.721,0.721,0.721,0.721,0.721,0.721,0.721,0.721,0.721,0.721,0.721,0.721,0.721,0.721,0.7598,0.8042,0.8865,0.9746,1.057,1.145,1.2001,1.2327,1.2382,1.2382,1.2382,1.2382,1.2382,1.2382,1.2382,1.2382,1.2382,1.2382,1.2382,1.2382,1.2382,1.2382,1.2382,1.2382,1.2382,1.2382,1.2382,1.2382,1.2382,1.2382,1.2382,1.2382,1.2382,1.2382,1.2327,1.2273,1.2219,1.2164,1.2005,1.1787,1.1459,1.1076,1.0633,0.986,0.914,0.8312,0.7088,0.5701,0.4981,0.4648,0.4033,0.3587,0.3643,0.3699,0.3587,0.3587,0.3587,0.3587,0.3587,0.3587,0.3587,0.3587,0.3587,0.3587,0.3587,0.3587,0.3587,0.3587,0.3587,0.3587,0.3587,0.3587,0.3362,0.6387,0.6387,0.6387,0.6387,0.6387,0.6387,0.6389,0.6387,0.6448,0.6449,0.6592,0.6551,0.6673,0.6785,0.6864,0.6926,0.698,0.7095,0.7141,0.7191,0.7174,0.718,0.7204,0.721,0.721,0.721,0.721,0.721,0.721,0.721,0.721,0.721,0.721,0.721,0.721,0.721,0.721,0.721,0.721,0.721,0.721,0.721,0.721,0.7376,0.8149,0.8975,0.9856,1.068,1.1509,1.2055,1.2382,1.2382,1.2382,1.2382,1.2382,1.2382,1.2382,1.2382,1.2382,1.2382,1.2382,1.2382,1.2382,1.2382,1.2382,1.2382,1.2382,1.2382,1.2382,1.2382,1.2382,1.2382,1.2382,1.2382,1.2382,1.2382,1.2382,1.2273,1.211,1.2001,1.1782,1.1623,1.1514,1.1131,1.0802,1.0359,0.997,0.9309,0.8423,0.698,0.6202,0.5536,0.4369,0.3811,0.4033,0.3977,0.3643,0.3587,0.3643,0.3587,0.3587,0.3587,0.3587,0.3587,0.3587,0.3587,0.3587,0.3587,0.3587,0.3587,0.3587,0.3587,0.3587,0.3587,0.3531,0.6387,0.6387,0.6387,0.6387,0.6387,0.6387,0.6387,0.6387,0.6387,0.6403,0.6427,0.6443,0.6497,0.6662,0.6711,0.6771,0.6853,0.691,0.6945,0.6997,0.7024,0.7059,0.718,0.7163,0.7185,0.721,0.721,0.7202,0.721,0.721,0.721,0.721,0.721,0.721,0.721,0.721,0.721,0.721,0.721,0.721,0.721,0.721,0.721,0.7432,0.8039,0.8809,0.9691,1.057,1.145,1.2219,1.2327,1.2382,1.2382,1.2382,1.2382,1.2382,1.2382,1.2382,1.2382,1.2382,1.2382,1.2382,1.2382,1.2382,1.2382,1.2382,1.2382,1.2382,1.2382,1.2382,1.2382,1.2382,1.2382,1.2382,1.2382,1.2382,1.2382,1.2164,1.2001,1.1782,1.1564,1.1514,1.1459,1.124,1.0857,1.0692,1.0578,1.019,0.975,0.8696,0.7697,0.6755,0.4702,0.4089,0.4423,0.4367,0.4145,0.3811,0.3755,0.3699,0.3587,0.3587,0.3587,0.3587,0.3587,0.3587,0.3587,0.3587,0.3587,0.3587,0.3587,0.3587,0.3587,0.3587,0.3587,0.6282,0.6287,0.6339,0.6393,0.6381,0.6387,0.6387,0.6387,0.6387,0.6387,0.6387,0.6392,0.6427,0.6556,0.6592,0.6635,0.6728,0.6787,0.6844,0.6891,0.691,0.6934,0.698,0.7067,0.6983,0.7002,0.7067,0.7144,0.7191,0.721,0.721,0.721,0.721,0.721,0.721,0.721,0.721,0.721,0.721,0.721,0.721,0.721,0.721,0.7432,0.7762,0.8478,0.9196,1.0076,1.0903,1.1728,1.211,1.2382,1.2382,1.2382,1.2382,1.2382,1.2382,1.2382,1.2382,1.2382,1.2382,1.2382,1.2382,1.2382,1.2382,1.2382,1.2382,1.2382,1.2382,1.2382,1.2382,1.2382,1.2382,1.2382,1.2327,1.2327,1.2164,1.2001,1.1837,1.1728,1.1568,1.1514,1.1459,1.1291,1.0962,1.0747,1.0692,1.0688,1.0359,1.0025,0.9137,0.8192,0.6308,0.5367,0.581,0.5423,0.4702,0.4311,0.3921,0.3699,0.3587,0.3587,0.3587,0.3587,0.3587,0.3587,0.3587,0.3587,0.3587,0.3587,0.3587,0.3587,0.3587,0.3587,0.3587,0.6094,0.6102,0.6248,0.6298,0.6333,0.6338,0.6333,0.6336,0.6404,0.636,0.6412,0.6426,0.6387,0.6478,0.6537,0.6522,0.6562,0.666,0.6725,0.6774,0.6779,0.6825,0.6836,0.6828,0.6844,0.6872,0.6923,0.7024,0.7166,0.7169,0.7172,0.7199,0.721,0.721,0.721,0.721,0.721,0.721,0.721,0.721,0.721,0.721,0.721,0.721,0.7265,0.7654,0.8481,0.9199,1.0076,1.1122,1.1946,1.2273,1.2382,1.2382,1.2382,1.2382,1.2382,1.2382,1.2382,1.2382,1.2382,1.2382,1.2382,1.2382,1.2382,1.2382,1.2382,1.2382,1.2382,1.2382,1.2382,1.2382,1.2382,1.2382,1.2327,1.2164,1.2001,1.1782,1.1673,1.1564,1.1514,1.1459,1.1404,1.1181,1.1017,1.0802,1.0692,1.0692,1.0637,1.0359,0.9801,0.9412,0.8468,0.7861,0.7473,0.6255,0.5258,0.4702,0.4313,0.3867,0.3587,0.3587,0.3587,0.3587,0.3587,0.3587,0.3587,0.3587,0.3587,0.3587,0.3587,0.3587,0.3587,0.3587,0.3587,0.6086,0.6089,0.6113,0.6135,0.6157,0.6157,0.6151,0.617,0.6265,0.6301,0.6323,0.6399,0.6387,0.6387,0.6403,0.643,0.6457,0.6492,0.6589,0.6643,0.6654,0.6717,0.6752,0.6728,0.6787,0.6809,0.6828,0.6902,0.6997,0.7018,0.7065,0.7191,0.7199,0.7204,0.721,0.721,0.721,0.721,0.721,0.721,0.721,0.721,0.721,0.721,0.721,0.7765,0.8318,0.8647,0.9695,1.0848,1.1896,1.2273,1.2382,1.2382,1.2382,1.2382,1.2382,1.2382,1.2382,1.2382,1.2382,1.2382,1.2382,1.2382,1.2382,1.2382,1.2382,1.2382,1.2382,1.2382,1.2382,1.2382,1.2382,1.2327,1.2273,1.2005,1.1787,1.1514,1.1291,1.1185,1.1076,1.1131,1.1181,1.1017,1.0852,1.0692,1.0692,1.0692,1.0692,1.0523,1.0359,1.0135,0.9966,0.9526,0.8696,0.6866,0.5757,0.5202,0.4536,0.3921,0.3587,0.3587,0.3587,0.3587,0.3587,0.3587,0.3587,0.3587,0.3587,0.3587,0.3587,0.3587,0.3587,0.3587,0.3587]},{"header":{"parameterUnit":"m.s-1","parameterCategory":1,"la1":31.0,"la2":29.5877,"lo1":-88.7671,"lo2":-86.6584,"dy":0.0162,"dx":0.0185,"nx":115,"ny":88,"refTime":"2023-08-31T06:00:00:Z","depth":0,"parameterNumber":3,"parameterNumberName":"V-component_of_WINDS"},"data":[0.0,0.0,0.0,0.0,0.0,0.0,0.0,0.0,0.0,0.0,0.0,0.0,0.0,0.0,0.0,0.0,0.0,0.0,0.0,0.0,0.0,0.0,0.0,0.0,0.0,0.0,0.0,0.0,0.0,0.0,0.0,0.0,0.0,0.0,0.0,0.0,0.0,0.0,0.0,0.0,0.0,0.0,0.0,0.0,0.0,0.0,0.0,0.0,0.0,0.0,0.0,0.0,0.0,0.0,0.0,0.0,0.0,0.0,0.0,0.0,0.0,0.0,0.0,0.0,0.0,0.0,0.0,0.0,0.0,0.0,0.0,0.0,0.0,0.0,0.0,0.0,0.0,0.0,0.0,0.0,0.0,0.0,0.0,0.0,0.0,0.0,0.0,0.0,0.0,0.0,0.0,0.0,0.0,0.0,0.0,0.0,0.0,0.0,0.0,0.0,0.0,0.0,0.0,0.0,0.0,0.0,0.0,0.0,0.0,0.0,0.0,0.0,0.0,0.0,0.0,0.0,0.0,0.0,0.0,0.0,0.0,0.0,0.0,0.0,0.0,0.0,0.0,0.0,0.0,0.0,0.0,0.0,0.0,0.0,0.0,0.0,0.0,0.0,0.0,0.0,0.0,0.0,0.0,0.0,0.0,0.0,0.0,0.0,0.0,0.0,0.0,0.0,0.0,0.0,0.0,0.0,0.0,0.0,0.0,0.0,0.0,0.0,0.0,0.0,0.0,0.0,0.0,0.0,0.0,0.0,0.0,0.0,0.0,0.0,0.0,0.0,0.0,0.0,0.0,0.0,0.0,0.0,0.0,0.0,0.0,0.0,0.0,0.0,0.0,0.0,0.0,0.0,0.0,0.0,0.0,0.0,0.0,0.0,0.0,0.0,0.0,0.0,0.0,0.0,0.0,0.0,0.0,0.0,0.0,0.0,0.0,0.0,0.0,0.0,0.0,0.0,0.0,0.0,0.0,0.0,0.0,0.0,0.0,0.0,0.0,0.0,0.0,0.0,0.0,0.0,0.0,0.0,0.0,0.0,0.0,0.0,0.0,0.0,0.0,0.0,0.0,0.0,0.0,0.0,0.0,0.0,0.0,0.0,0.0,0.0,0.0,0.0,0.0,0.0,0.0,0.0,0.0,0.0,0.0,0.0,0.0,0.0,0.0,0.0,0.0,0.0,0.0,0.0,0.0,0.0,0.0,0.0,0.0,0.0,0.0,0.0,0.0,0.0,0.0,0.0,0.0,0.0,0.0,0.0,0.0,0.0,0.0,0.0,0.0,0.0,0.0,0.0,0.0,0.0,0.0,0.0,0.0,0.0,0.0,0.0,0.0,0.0,0.0,0.0,0.0,0.0,0.0,0.0,0.0,0.0,0.0,0.0,0.0,0.0,0.0,0.0,0.0,0.0,0.0,0.0,0.0,0.0,0.0,0.0,0.0,0.0,0.0,0.0,0.0,0.0,0.0,0.0,0.0,0.0,0.0,0.0,0.0,0.0,0.0,0.0,0.0,0.0,0.0,0.0,0.0,0.0,0.0,0.0,0.0,0.0,0.0,0.0,0.0,0.0,0.0,0.0,0.0,0.0,0.0,0.0,0.0,0.0,0.0,0.0,0.0,0.0,0.0,0.0,0.0,0.0,0.0,0.0,0.0,0.0,0.0,0.0,0.0,0.0,0.0,0.0,0.0,0.0,0.0,0.0,0.0,0.0,0.0,0.0,0.0,0.0,0.0,0.0,0.0,0.0,0.0,0.0,0.0,0.0,0.0,0.0,0.0,0.0,0.0,0.0,0.0,0.0,0.0,0.0,0.0,0.0,0.0,0.0,0.0,0.0,0.0,0.0,0.0,0.0,0.0,0.0,0.0,0.0,0.0,0.0,0.0,0.0,0.0,0.0,0.0,0.0,0.0,0.0,0.0,0.0,0.0,0.0,0.0,0.0,0.0,0.0,0.0,0.0,0.0,0.0,0.0,0.0,0.0,0.0,0.0,0.0,0.0,0.0,0.0,0.0,0.0,0.0,0.0,0.0,0.0,0.0,0.0,0.0,0.0,0.0,0.0,0.0,0.0,0.0,0.0,0.0,0.0,0.0,0.0,0.0,0.0,0.0,0.0,0.0,0.0,0.0,0.0,0.0,0.0,0.0,0.0,0.0,0.0,0.0,0.0,0.0,0.0,0.0,0.0,0.0,0.0,0.0,0.0,0.0,0.0,0.0,0.0,0.0,0.0,0.0,0.0,0.0,0.0,0.0,0.0,0.0,0.0,0.0,0.0,0.0,0.0,0.0,0.0,0.0,0.0,0.0,0.0,0.0,0.0,0.0,0.0,0.0,0.0,0.0,0.0,0.0,0.0,0.0,0.0,0.0,0.0,0.0,0.0,0.0,0.0,0.0,0.0,0.0,0.0,0.0,0.0,0.0,0.0,0.0,0.0,0.0,0.0,0.0,0.0,0.0,0.0,0.0,0.0,0.0,0.0,0.0,0.0,0.0,0.0,0.0,0.0,0.0,0.0,0.0,0.0,0.0,0.0,0.0,0.0,0.0,0.0,0.0,0.0,0.0,0.0,0.0,0.0,0.0,0.0,0.0,0.0,0.0,0.0,0.0,0.0,0.0,0.0,0.0,0.0,0.0,0.0,0.0,0.0,0.0,0.0,0.0,0.0,0.0,0.0,0.0,0.0,0.0,0.0,0.0,0.0,0.0,0.0,0.0,0.0,0.0,0.0,0.0,0.0,0.0,0.0,0.0,0.0,0.0,0.0,0.0,0.0,0.0,0.0,0.0,0.0,0.0,0.0,0.0,0.0,0.0,0.0,0.0,0.0,0.0,0.0,0.0,0.0,0.0,0.0,0.0,0.0,0.0,0.0,0.0,0.0,0.0,0.0,0.0,0.0,0.0,0.0,0.0,0.0,0.0,0.0,0.0,0.0,0.0,0.0,0.0,0.0,0.0,0.0,0.0,0.0,0.0,0.0,0.0,0.0,0.0,0.0,0.0,0.0,0.0,0.0,0.0,0.0,0.0,0.0,0.0,0.0,0.0,0.0,0.0,0.0,0.0,0.0,0.0,0.0,0.0,0.0,0.0,0.0,0.0,0.0,0.0,0.0,0.0,0.0,0.0,0.0,0.0,0.0,0.0,0.0,0.0,0.0,0.0,0.0,0.0,0.0,0.0,0.0,0.0,0.0,0.0,0.0,0.0,0.0,0.0,0.0,0.0,0.0,0.0,0.0,0.0,0.0,0.0,0.0,0.0,0.0,0.0,0.0,0.0,0.0,0.0,0.0,0.0,0.0,0.0,0.0,0.0,0.0,0.0,0.0,0.0,0.0,0.0,0.0,0.0,0.0,0.0,0.0,0.0,0.0,0.0,0.0,0.0,0.0,0.0,0.0,0.0,0.0,0.0,0.0,0.0,0.0,0.0,0.0,0.0,0.0,0.0,0.0,0.0,0.0,0.0,0.0,0.0,0.0,0.0,0.0,0.0,0.0,0.0,0.0,0.0,0.0,0.0,0.0,0.0,0.0,0.0,0.0,0.0,0.0,0.0,0.0,0.0,0.0,0.0,0.0,0.0,0.0,0.0,0.0,0.0,0.0,0.0,0.0,0.0,0.0,0.0,0.0,0.0,0.0,0.0,0.0,0.0,0.0,0.0,0.0,0.0,0.0,0.0,0.0,0.0,0.0,0.0,0.0,0.0,0.0,0.0,0.0,0.0,0.0,0.0,0.0,0.0,0.0,0.0,0.0,0.0,0.0,0.0,0.0,0.0,0.0,0.0,0.0,0.0,0.0,0.0,0.0,0.0,0.0,0.0,0.0,0.0,0.0,0.0,0.0,0.0,0.0,0.0,0.0,0.0,0.0,0.0,0.0,0.0,0.0,0.0,0.0,0.0,0.0,0.0,0.0,0.0,0.0,0.0,0.0,0.0,0.0,0.0,0.0,0.0,0.0,0.0,0.0,0.0,0.0,0.0,0.0,0.0,0.0,0.0,0.0,0.0,0.0,0.0,0.0,0.0,0.0,0.0,0.0,0.0,0.0,0.0,0.0,0.0,0.0,0.0,0.0,0.0,0.0,0.0,0.0,0.0,0.0,0.0,0.0,0.0,0.0,0.0,0.0,0.0,0.0,0.0,0.0,0.0,0.0,0.0,0.0,0.0,0.0,0.0,0.0,0.0,0.0,0.0,0.0,0.0,0.0,0.0,0.0,0.0,0.0,0.0,0.0,0.0,0.0,0.0,0.0,0.0,0.0,0.0,0.0,0.0,0.0,0.0,0.0,0.0,3.0162,0.0,0.0,0.0,0.0,0.0,0.0,0.0,0.0,0.0,0.0,0.0,0.0,0.0,0.0,0.0,0.0,0.0,0.0,0.0,0.0,0.0,0.0,0.0,0.0,0.0,0.0,0.0,0.0,0.0,0.0,0.0,0.0,0.0,0.0,0.0,0.0,0.0,0.0,0.0,0.0,0.0,0.0,0.0,0.0,0.0,0.0,0.0,0.0,0.0,0.0,0.0,0.0,0.0,0.0,0.0,0.0,0.0,0.0,0.0,0.0,0.0,0.0,0.0,0.0,0.0,0.0,0.0,0.0,0.0,0.0,0.0,0.0,0.0,0.0,0.0,0.0,0.0,0.0,0.0,0.0,0.0,0.0,0.0,0.0,0.0,0.0,0.0,0.0,0.0,0.0,0.0,0.0,0.0,0.0,0.0,0.0,0.0,0.0,0.0,0.0,0.0,0.0,0.0,0.0,0.0,0.0,0.0,0.0,0.0,0.0,3.0481,2.9809,3.1365,3.1505,3.0021,0.0,0.0,0.0,0.0,0.0,0.0,0.0,0.0,0.0,0.0,0.0,0.0,0.0,0.0,0.0,0.0,0.0,0.0,0.0,0.0,0.0,0.0,0.0,0.0,0.0,0.0,0.0,0.0,0.0,0.0,0.0,0.0,0.0,0.0,0.0,0.0,0.0,0.0,0.0,0.0,0.0,0.0,0.0,0.0,0.0,0.0,0.0,0.0,0.0,0.0,0.0,0.0,0.0,0.0,0.0,0.0,0.0,0.0,0.0,0.0,0.0,0.0,0.0,0.0,0.0,0.0,0.0,0.0,0.0,0.0,0.0,0.0,0.0,0.0,0.0,0.0,0.0,0.0,0.0,0.0,0.0,0.0,0.0,0.0,0.0,0.0,0.0,0.0,0.0,0.0,0.0,0.0,0.0,0.0,0.0,0.0,0.0,0.0,0.0,0.0,0.0,0.0,0.0,0.0,0.0,0.0,0.0,0.0,0.0,0.0,0.0,0.0,3.1448,3.1629,3.057,0.0,0.0,0.0,0.0,0.0,0.0,0.0,0.0,0.0,0.0,0.0,0.0,0.0,0.0,0.0,0.0,0.0,0.0,0.0,0.0,0.0,0.0,0.0,0.0,0.0,0.0,0.0,0.0,0.0,0.0,0.0,0.0,0.0,0.0,0.0,0.0,0.0,0.0,0.0,0.0,0.0,0.0,0.0,0.0,0.0,0.0,0.0,0.0,0.0,0.0,0.0,0.0,0.0,0.0,0.0,0.0,0.0,0.0,0.0,0.0,0.0,0.0,0.0,0.0,0.0,0.0,0.0,0.0,0.0,0.0,0.0,0.0,0.0,0.0,0.0,0.0,0.0,0.0,0.0,0.0,0.0,0.0,0.0,0.0,0.0,0.0,0.0,0.0,0.0,0.0,0.0,0.0,0.0,0.0,0.0,0.0,0.0,0.0,0.0,0.0,0.0,0.0,0.0,0.0,0.0,0.0,0.0,0.0,0.0,0.0,3.0338,3.1651,3.2119,0.0,3.2227,0.0,0.0,0.0,0.0,0.0,0.0,0.0,0.0,0.0,0.0,0.0,0.0,0.0,0.0,0.0,0.0,0.0,0.0,0.0,0.0,0.0,0.0,0.0,0.0,0.0,0.0,0.0,0.0,0.0,0.0,0.0,0.0,0.0,0.0,0.0,0.0,0.0,0.0,0.0,0.0,0.0,0.0,0.0,0.0,0.0,0.0,0.0,0.0,0.0,0.0,0.0,0.0,0.0,0.0,0.0,0.0,0.0,0.0,0.0,0.0,0.0,0.0,0.0,0.0,0.0,0.0,0.0,0.0,0.0,0.0,0.0,0.0,0.0,0.0,0.0,0.0,0.0,0.0,0.0,0.0,0.0,0.0,0.0,0.0,0.0,0.0,0.0,0.0,0.0,0.0,0.0,0.0,0.0,0.0,0.0,0.0,0.0,0.0,0.0,0.0,0.0,0.0,0.0,0.0,0.0,0.0,0.0,0.0,0.0,0.0,3.0208,3.1225,3.1525,3.1905,0.0,0.0,0.0,0.0,0.0,0.0,0.0,0.0,0.0,0.0,0.0,0.0,0.0,0.0,0.0,0.0,0.0,0.0,0.0,0.0,0.0,0.0,0.0,0.0,0.0,0.0,0.0,0.0,0.0,0.0,0.0,0.0,0.0,0.0,0.0,0.0,0.0,0.0,0.0,0.0,0.0,0.0,0.0,0.0,0.0,0.0,0.0,0.0,0.0,0.0,0.0,0.0,0.0,0.0,0.0,0.0,0.0,0.0,0.0,0.0,0.0,0.0,0.0,0.0,0.0,0.0,0.0,0.0,0.0,0.0,0.0,0.0,0.0,0.0,0.0,0.0,0.0,0.0,0.0,0.0,0.0,0.0,0.0,0.0,0.0,0.0,0.0,0.0,0.0,0.0,0.0,0.0,0.0,0.0,0.0,0.0,0.0,0.0,0.0,0.0,0.0,0.0,0.0,0.0,0.0,0.0,0.0,0.0,0.0,0.0,3.0236,3.0565,3.1455,3.1506,3.1784,3.2362,0.0,0.0,0.0,0.0,0.0,0.0,0.0,0.0,0.0,0.0,0.0,0.0,0.0,0.0,0.0,0.0,0.0,0.0,0.0,0.0,0.0,0.0,0.0,0.0,0.0,0.0,0.0,0.0,0.0,0.0,0.0,0.0,0.0,0.0,0.0,0.0,0.0,0.0,0.0,0.0,0.0,0.0,0.0,0.0,0.0,0.0,0.0,0.0,0.0,0.0,0.0,0.0,0.0,0.0,0.0,0.0,0.0,0.0,0.0,0.0,0.0,0.0,0.0,0.0,0.0,0.0,0.0,0.0,0.0,0.0,0.0,0.0,0.0,0.0,0.0,0.0,0.0,0.0,0.0,0.0,0.0,0.0,0.0,0.0,0.0,0.0,0.0,0.0,0.0,0.0,0.0,0.0,0.0,0.0,0.0,0.0,0.0,0.0,0.0,0.0,0.0,0.0,0.0,0.0,0.0,0.0,0.0,0.0,3.256,3.1549,3.1685,3.3148,3.2618,3.2279,0.0,0.0,0.0,0.0,0.0,0.0,0.0,0.0,0.0,0.0,0.0,0.0,0.0,0.0,0.0,0.0,0.0,0.0,0.0,0.0,0.0,0.0,0.0,0.0,0.0,0.0,0.0,0.0,0.0,0.0,0.0,0.0,0.0,0.0,0.0,0.0,0.0,0.0,0.0,0.0,0.0,0.0,0.0,0.0,0.0,0.0,0.0,0.0,0.0,0.0,0.0,0.0,0.0,0.0,0.0,0.0,0.0,0.0,0.0,0.0,0.0,0.0,0.0,0.0,0.0,0.0,0.0,0.0,0.0,0.0,0.0,0.0,0.0,0.0,0.0,0.0,0.0,0.0,0.0,0.0,0.0,0.0,0.0,0.0,0.0,0.0,0.0,0.0,0.0,0.0,0.0,0.0,0.0,0.0,0.0,0.0,0.0,0.0,0.0,0.0,0.0,0.0,0.0,0.0,0.0,0.0,0.0,0.0,0.0,3.065,3.1166,3.2014,3.3173,3.2547,3.2409,0.0,0.0,0.0,0.0,0.0,0.0,0.0,0.0,0.0,0.0,0.0,0.0,0.0,0.0,0.0,0.0,0.0,0.0,0.0,0.0,0.0,0.0,0.0,0.0,0.0,0.0,0.0,0.0,0.0,0.0,0.0,0.0,0.0,0.0,0.0,0.0,0.0,0.0,0.0,0.0,0.0,0.0,0.0,0.0,0.0,0.0,0.0,0.0,0.0,0.0,0.0,0.0,0.0,0.0,0.0,0.0,0.0,0.0,0.0,0.0,0.0,0.0,0.0,0.0,0.0,0.0,0.0,0.0,0.0,0.0,0.0,0.0,0.0,0.0,0.0,0.0,0.0,0.0,0.0,0.0,0.0,0.0,0.0,0.0,0.0,0.0,0.0,0.0,0.0,0.0,0.0,0.0,0.0,0.0,0.0,0.0,0.0,0.0,0.0,0.0,0.0,0.0,0.0,0.0,0.0,0.0,0.0,0.0,0.0,3.0282,0.0,3.2455,3.306,3.2433,3.2185,0.0,0.0,0.0,0.0,0.0,0.0,0.0,0.0,0.0,0.0,0.0,0.0,0.0,0.0,0.0,0.0,0.0,0.0,0.0,0.0,0.0,0.0,0.0,0.0,0.0,0.0,0.0,0.0,0.0,0.0,0.0,0.0,0.0,0.0,0.0,0.0,0.0,0.0,0.0,0.0,0.0,0.0,0.0,0.0,0.0,0.0,0.0,0.0,0.0,0.0,0.0,0.0,0.0,0.0,0.0,0.0,0.0,0.0,0.0,0.0,0.0,0.0,0.0,0.0,0.0,0.0,0.0,0.0,0.0,0.0,0.0,0.0,0.0,0.0,0.0,0.0,0.0,0.0,0.0,0.0,0.0,0.0,0.0,0.0,0.0,0.0,0.0,0.0,0.0,0.0,0.0,0.0,0.0,0.0,0.0,0.0,0.0,0.0,0.0,0.0,0.0,0.0,0.0,0.0,0.0,0.0,0.0,0.0,3.0461,3.1902,3.2612,3.3032,3.3039,3.2411,3.1643,0.0,0.0,0.0,0.0,0.0,0.0,0.0,0.0,0.0,0.0,0.0,0.0,0.0,0.0,0.0,0.0,0.0,0.0,0.0,0.0,0.0,0.0,0.0,0.0,0.0,0.0,0.0,0.0,0.0,0.0,0.0,0.0,0.0,0.0,0.0,0.0,0.0,0.0,0.0,0.0,0.0,0.0,0.0,0.0,0.0,0.0,0.0,0.0,0.0,0.0,0.0,0.0,0.0,0.0,0.0,0.0,0.0,0.0,0.0,0.0,0.0,0.0,0.0,0.0,0.0,0.0,0.0,0.0,0.0,0.0,0.0,0.0,0.0,0.0,0.0,0.0,0.0,0.0,0.0,0.0,0.0,0.0,0.0,0.0,0.0,0.0,0.0,0.0,0.0,0.0,0.0,0.0,0.0,0.0,0.0,0.0,0.0,0.0,0.0,0.0,0.0,0.0,0.0,0.0,0.0,0.0,0.0,0.0,0.0,3.1136,3.2516,3.405,3.5513,3.3276,3.267,0.0,0.0,0.0,0.0,0.0,0.0,0.0,0.0,0.0,0.0,0.0,0.0,0.0,0.0,0.0,0.0,0.0,0.0,0.0,0.0,0.0,0.0,0.0,0.0,0.0,0.0,0.0,0.0,0.0,0.0,0.0,0.0,0.0,0.0,0.0,0.0,0.0,0.0,0.0,0.0,0.0,0.0,0.0,0.0,0.0,0.0,0.0,0.0,0.0,0.0,0.0,0.0,0.0,0.0,0.0,0.0,0.0,0.0,0.0,0.0,0.0,0.0,0.0,0.0,0.0,0.0,0.0,0.0,0.0,0.0,0.0,0.0,0.0,0.0,0.0,0.0,0.0,0.0,0.0,0.0,0.0,0.0,0.0,0.0,0.0,0.0,0.0,0.0,0.0,0.0,0.0,0.0,0.0,0.0,0.0,0.0,0.0,0.0,0.0,0.0,0.0,0.0,0.0,0.0,0.0,0.0,0.0,0.0,0.0,3.2593,3.3677,3.4982,3.6414,3.384,3.3145,3.4556,0.0,0.0,0.0,0.0,0.0,0.0,0.0,0.0,0.0,0.0,0.0,0.0,0.0,0.0,0.0,0.0,0.0,0.0,0.0,0.0,0.0,0.0,0.0,0.0,0.0,0.0,0.0,0.0,0.0,0.0,0.0,0.0,0.0,0.0,0.0,0.0,0.0,0.0,0.0,0.0,0.0,0.0,0.0,0.0,0.0,0.0,0.0,0.0,0.0,0.0,0.0,0.0,0.0,0.0,0.0,0.0,0.0,0.0,0.0,0.0,0.0,0.0,0.0,0.0,0.0,0.0,0.0,0.0,0.0,0.0,0.0,0.0,0.0,0.0,0.0,0.0,0.0,0.0,0.0,0.0,0.0,0.0,0.0,0.0,0.0,0.0,0.0,0.0,0.0,0.0,0.0,0.0,0.0,0.0,0.0,0.0,0.0,0.0,0.0,0.0,0.0,0.0,0.0,0.0,0.0,0.0,0.0,0.0,3.5675,3.5915,3.6058,3.6028,3.4252,3.3262,0.0,0.0,0.0,0.0,0.0,0.0,0.0,0.0,0.0,0.0,0.0,0.0,0.0,0.0,0.0,0.0,0.0,0.0,0.0,0.0,0.0,0.0,0.0,0.0,0.0,0.0,0.0,0.0,0.0,0.0,0.0,0.0,0.0,0.0,0.0,0.0,0.0,0.0,0.0,0.0,0.0,0.0,0.0,0.0,0.0,0.0,0.0,0.0,0.0,0.0,0.0,0.0,0.0,0.0,0.0,0.0,0.0,0.0,0.0,0.0,0.0,0.0,0.0,0.0,0.0,0.0,0.0,0.0,0.0,0.0,0.0,0.0,0.0,0.0,0.0,0.0,0.0,0.0,0.0,0.0,0.0,0.0,0.0,0.0,0.0,0.0,0.0,0.0,0.0,0.0,0.0,0.0,0.0,0.0,0.0,0.0,0.0,0.0,0.0,0.0,0.0,0.0,0.0,0.0,0.0,0.0,0.0,0.0,0.0,3.6558,3.8415,3.9371,3.9244,3.5923,3.4659,0.0,0.0,0.0,0.0,0.0,0.0,0.0,0.0,0.0,0.0,0.0,0.0,0.0,0.0,0.0,0.0,0.0,0.0,0.0,0.0,0.0,0.0,0.0,0.0,0.0,0.0,0.0,0.0,0.0,0.0,0.0,0.0,0.0,0.0,0.0,0.0,0.0,0.0,0.0,0.0,0.0,0.0,0.0,0.0,0.0,0.0,0.0,0.0,0.0,0.0,0.0,0.0,0.0,0.0,0.0,0.0,0.0,0.0,0.0,0.0,0.0,0.0,0.0,0.0,0.0,0.0,0.0,0.0,0.0,0.0,0.0,0.0,0.0,0.0,0.0,0.0,0.0,0.0,0.0,0.0,0.0,0.0,0.0,0.0,0.0,0.0,0.0,0.0,0.0,0.0,0.0,0.0,0.0,0.0,0.0,0.0,0.0,0.0,0.0,0.0,0.0,0.0,0.0,0.0,0.0,0.0,0.0,0.0,3.6501,3.8383,4.0507,4.1582,4.1525,3.8245,3.6559,0.0,0.0,0.0,0.0,0.0,0.0,0.0,0.0,0.0,0.0,0.0,0.0,0.0,0.0,0.0,0.0,0.0,0.0,0.0,0.0,0.0,0.0,0.0,0.0,0.0,0.0,0.0,0.0,0.0,0.0,0.0,0.0,0.0,0.0,0.0,0.0,0.0,0.0,0.0,0.0,0.0,0.0,0.0,0.0,0.0,0.0,0.0,0.0,0.0,0.0,0.0,0.0,0.0,0.0,0.0,0.0,0.0,0.0,0.0,0.0,0.0,0.0,0.0,0.0,0.0,0.0,0.0,0.0,0.0,0.0,0.0,0.0,0.0,0.0,0.0,0.0,0.0,0.0,0.0,0.0,0.0,0.0,0.0,0.0,0.0,0.0,0.0,0.0,0.0,0.0,0.0,0.0,0.0,0.0,0.0,0.0,0.0,0.0,0.0,0.0,0.0,0.0,0.0,0.0,0.0,0.0,0.0,0.0,3.8059,4.0439,4.2076,4.2927,4.2853,4.0565,3.8505,0.0,0.0,0.0,0.0,0.0,0.0,0.0,0.0,0.0,0.0,0.0,0.0,0.0,0.0,0.0,0.0,0.0,0.0,0.0,0.0,0.0,0.0,0.0,0.0,0.0,0.0,0.0,0.0,0.0,0.0,0.0,0.0,0.0,0.0,0.0,0.0,0.0,0.0,0.0,0.0,0.0,0.0,0.0,0.0,0.0,0.0,0.0,0.0,0.0,0.0,0.0,0.0,0.0,0.0,0.0,0.0,0.0,0.0,0.0,0.0,0.0,0.0,0.0,0.0,0.0,0.0,0.0,0.0,0.0,0.0,0.0,0.0,0.0,0.0,0.0,0.0,0.0,0.0,0.0,0.0,0.0,0.0,0.0,0.0,0.0,0.0,0.0,0.0,0.0,0.0,0.0,0.0,0.0,0.0,0.0,0.0,0.0,0.0,0.0,0.0,0.0,0.0,0.0,0.0,0.0,0.0,0.0,0.0,3.7988,4.0384,4.259,4.3745,4.3726,4.0764,3.8677,0.0,0.0,0.0,0.0,0.0,0.0,0.0,0.0,0.0,0.0,0.0,0.0,0.0,0.0,0.0,0.0,0.0,0.0,0.0,0.0,0.0,0.0,0.0,0.0,0.0,0.0,0.0,0.0,0.0,0.0,0.0,0.0,0.0,0.0,0.0,0.0,0.0,0.0,0.0,0.0,0.0,0.0,0.0,0.0,0.0,0.0,0.0,0.0,3.7018,0.0,0.0,0.0,0.0,0.0,0.0,0.0,0.0,0.0,0.0,0.0,0.0,0.0,0.0,0.0,0.0,0.0,0.0,0.0,0.0,0.0,0.0,0.0,0.0,0.0,0.0,0.0,0.0,0.0,0.0,0.0,0.0,0.0,0.0,0.0,0.0,0.0,0.0,0.0,0.0,0.0,0.0,0.0,0.0,0.0,0.0,0.0,0.0,0.0,0.0,0.0,0.0,0.0,0.0,0.0,0.0,0.0,0.0,0.0,3.9063,4.1479,4.3132,4.4005,4.3912,4.1571,3.9695,0.0,0.0,0.0,0.0,0.0,0.0,0.0,0.0,0.0,0.0,0.0,0.0,0.0,0.0,0.0,0.0,0.0,0.0,0.0,0.0,0.0,0.0,0.0,0.0,0.0,0.0,0.0,0.0,0.0,0.0,0.0,0.0,0.0,0.0,0.0,0.0,0.0,0.0,0.0,0.0,0.0,0.0,0.0,0.0,0.0,0.0,0.0,0.0,0.0,0.0,0.0,0.0,0.0,0.0,0.0,0.0,0.0,0.0,0.0,0.0,0.0,0.0,0.0,0.0,0.0,0.0,0.0,0.0,0.0,0.0,0.0,0.0,0.0,0.0,0.0,0.0,0.0,0.0,0.0,0.0,0.0,0.0,0.0,0.0,0.0,0.0,0.0,0.0,0.0,0.0,0.0,0.0,0.0,0.0,0.0,0.0,0.0,0.0,0.0,0.0,0.0,0.0,0.0,0.0,0.0,0.0,0.0,3.7875,4.0178,4.2705,4.3578,4.4005,4.3968,4.2556,4.0958,3.9175,0.0,0.0,0.0,0.0,0.0,0.0,0.0,0.0,0.0,0.0,0.0,0.0,0.0,0.0,0.0,0.0,0.0,0.0,0.0,0.0,0.0,0.0,0.0,0.0,0.0,0.0,0.0,0.0,0.0,0.0,0.0,0.0,0.0,0.0,0.0,0.0,0.0,0.0,3.2799,3.4624,0.0,0.0,0.0,0.0,0.0,0.0,0.0,0.0,3.8077,0.0,0.0,0.0,0.0,0.0,0.0,0.0,0.0,0.0,0.0,0.0,0.0,0.0,0.0,0.0,0.0,0.0,0.0,0.0,0.0,0.0,0.0,0.0,0.0,0.0,0.0,0.0,0.0,0.0,0.0,0.0,0.0,0.0,0.0,0.0,0.0,0.0,0.0,0.0,0.0,0.0,0.0,0.0,0.0,0.0,0.0,0.0,0.0,0.0,0.0,0.0,0.0,0.0,0.0,0.0,0.0,3.7461,3.7894,3.9621,4.2723,4.3596,4.4005,4.3986,4.3095,4.1497,3.9194,0.0,0.0,0.0,0.0,0.0,0.0,0.0,0.0,0.0,0.0,0.0,0.0,0.0,0.0,0.0,0.0,0.0,0.0,0.0,0.0,0.0,0.0,0.0,0.0,0.0,0.0,0.0,0.0,0.0,0.0,0.0,0.0,0.0,0.0,0.0,0.0,0.0,0.0,0.0,3.6127,3.7122,0.0,0.0,0.0,0.0,0.0,0.0,0.0,0.0,3.7897,0.0,0.0,0.0,0.0,0.0,0.0,0.0,0.0,0.0,0.0,0.0,0.0,0.0,0.0,0.0,0.0,0.0,0.0,0.0,0.0,0.0,0.0,0.0,0.0,0.0,0.0,0.0,0.0,0.0,0.0,0.0,0.0,0.0,0.0,0.0,0.0,0.0,0.0,0.0,0.0,0.0,0.0,0.0,0.0,0.0,0.0,0.0,0.0,0.0,0.0,0.0,0.0,0.0,0.0,0.0,3.7801,3.9157,4.0996,4.3318,4.3801,4.4005,4.3986,4.2816,4.1423,0.0,0.0,0.0,0.0,0.0,0.0,0.0,0.0,0.0,0.0,0.0,0.0,0.0,0.0,0.0,0.0,0.0,0.0,0.0,0.0,0.0,0.0,0.0,0.0,0.0,0.0,0.0,0.0,0.0,0.0,0.0,0.0,0.0,0.0,0.0,0.0,0.0,0.0,0.0,0.0,3.7122,3.7756,3.8154,0.0,0.0,0.0,0.0,0.0,0.0,3.9329,3.9552,0.0,0.0,0.0,0.0,0.0,0.0,0.0,0.0,0.0,0.0,0.0,0.0,0.0,0.0,0.0,0.0,0.0,0.0,0.0,0.0,0.0,0.0,0.0,0.0,0.0,0.0,0.0,0.0,0.0,0.0,0.0,0.0,0.0,0.0,0.0,0.0,0.0,0.0,0.0,0.0,0.0,0.0,0.0,0.0,0.0,0.0,0.0,0.0,0.0,0.0,0.0,0.0,0.0,0.0,0.0,3.8154,4.042,4.2389,4.3931,4.4005,4.4005,4.3986,4.276,4.1553,0.0,0.0,0.0,0.0,0.0,0.0,0.0,0.0,0.0,0.0,0.0,0.0,0.0,0.0,0.0,0.0,0.0,0.0,0.0,0.0,0.0,0.0,0.0,0.0,0.0,0.0,0.0,0.0,0.0,0.0,0.0,0.0,0.0,0.0,0.0,0.0,0.0,0.0,0.0,0.0,0.0,3.8461,3.8527,3.9057,0.0,0.0,0.0,0.0,4.0213,4.0926,0.0,0.0,0.0,0.0,0.0,0.0,0.0,0.0,0.0,0.0,0.0,0.0,0.0,0.0,0.0,0.0,0.0,0.0,0.0,0.0,0.0,0.0,0.0,0.0,0.0,0.0,0.0,0.0,0.0,0.0,0.0,0.0,0.0,0.0,0.0,0.0,0.0,0.0,0.0,0.0,0.0,0.0,0.0,0.0,0.0,0.0,0.0,0.0,0.0,0.0,0.0,0.0,0.0,0.0,0.0,0.0,3.8952,4.0717,4.237,4.3912,4.4005,4.4005,4.4005,4.3819,4.2686,0.0,0.0,0.0,0.0,0.0,0.0,0.0,0.0,0.0,0.0,0.0,0.0,0.0,0.0,0.0,0.0,0.0,0.0,0.0,0.0,0.0,0.0,0.0,0.0,0.0,0.0,0.0,0.0,0.0,0.0,0.0,0.0,0.0,0.0,0.0,0.0,0.0,0.0,0.0,0.0,0.0,3.9379,3.9653,3.9536,3.9806,0.0,0.0,4.0602,4.1574,4.242,0.0,0.0,0.0,0.0,0.0,0.0,0.0,0.0,0.0,0.0,0.0,0.0,0.0,0.0,0.0,0.0,0.0,0.0,0.0,0.0,0.0,0.0,0.0,0.0,0.0,0.0,0.0,0.0,0.0,0.0,0.0,0.0,0.0,0.0,0.0,0.0,0.0,0.0,0.0,0.0,0.0,0.0,0.0,0.0,0.0,0.0,0.0,0.0,0.0,0.0,0.0,0.0,0.0,0.0,0.0,3.7485,3.9082,4.0754,4.2389,4.3931,4.4005,4.4005,4.4005,4.3559,4.2612,0.0,0.0,0.0,0.0,0.0,0.0,0.0,0.0,0.0,0.0,0.0,0.0,0.0,0.0,0.0,0.0,0.0,0.0,0.0,0.0,0.0,0.0,0.0,0.0,0.0,0.0,0.0,0.0,0.0,0.0,0.0,0.0,0.0,0.0,0.0,0.0,0.0,0.0,0.0,0.0,0.0,0.0,4.0317,4.066,0.0,0.0,0.0,4.2385,4.2389,0.0,0.0,0.0,0.0,0.0,0.0,0.0,0.0,0.0,0.0,0.0,0.0,0.0,0.0,0.0,0.0,0.0,0.0,0.0,0.0,0.0,0.0,0.0,0.0,0.0,0.0,0.0,0.0,0.0,0.0,0.0,0.0,0.0,0.0,0.0,0.0,0.0,0.0,0.0,0.0,0.0,0.0,0.0,0.0,0.0,0.0,0.0,0.0,0.0,0.0,0.0,0.0,0.0,0.0,0.0,0.0,0.0,3.9101,4.1144,4.2797,4.3949,4.4005,4.4005,4.4005,4.341,0.0,0.0,0.0,0.0,0.0,0.0,0.0,0.0,0.0,0.0,0.0,0.0,0.0,0.0,0.0,0.0,0.0,0.0,0.0,0.0,0.0,0.0,0.0,0.0,0.0,0.0,0.0,3.315,0.0,0.0,0.0,0.0,0.0,0.0,0.0,0.0,0.0,0.0,0.0,0.0,0.0,0.0,4.1957,4.1271,4.1824,4.2313,0.0,0.0,4.3755,4.3608,4.482,4.5523,0.0,0.0,0.0,0.0,0.0,0.0,0.0,0.0,0.0,0.0,0.0,0.0,0.0,0.0,0.0,0.0,0.0,0.0,0.0,0.0,0.0,0.0,0.0,0.0,0.0,0.0,0.0,0.0,0.0,0.0,0.0,0.0,0.0,0.0,0.0,0.0,0.0,0.0,0.0,0.0,0.0,0.0,0.0,0.0,0.0,0.0,0.0,0.0,0.0,0.0,0.0,0.0,0.0,0.0,0.0,3.9194,4.2222,4.3875,4.4005,4.4005,4.4005,4.4005,4.3949,4.3188,0.0,0.0,0.0,0.0,0.0,0.0,0.0,0.0,0.0,0.0,0.0,0.0,0.0,0.0,0.0,0.0,0.0,0.0,0.0,0.0,0.0,0.0,0.0,0.0,0.0,0.0,0.0,0.0,0.0,0.0,0.0,0.0,0.0,0.0,0.0,0.0,0.0,0.0,0.0,0.0,0.0,4.2403,4.2932,4.2812,4.3415,0.0,0.0,4.3877,4.5697,4.607,4.5874,4.5003,0.0,0.0,0.0,0.0,0.0,0.0,0.0,0.0,0.0,0.0,0.0,0.0,0.0,0.0,0.0,0.0,0.0,0.0,0.0,0.0,0.0,0.0,0.0,0.0,0.0,0.0,0.0,0.0,0.0,0.0,0.0,0.0,0.0,0.0,0.0,0.0,0.0,0.0,0.0,0.0,0.0,0.0,0.0,0.0,0.0,0.0,0.0,0.0,0.0,0.0,0.0,0.0,0.0,3.8599,3.912,4.185,4.3503,4.3986,4.4005,4.4005,4.4005,4.4005,4.3485,0.0,0.0,0.0,0.0,0.0,0.0,0.0,0.0,0.0,0.0,0.0,0.0,0.0,0.0,0.0,0.0,0.0,0.0,0.0,0.0,0.0,0.0,0.0,0.0,0.0,0.0,0.0,0.0,3.6077,3.6541,3.7255,0.0,0.0,0.0,0.0,0.0,0.0,0.0,0.0,0.0,0.0,4.3767,4.4334,4.4501,0.0,0.0,4.6436,4.6407,4.6865,4.739,4.7434,4.6582,4.6714,0.0,0.0,0.0,0.0,0.0,0.0,0.0,0.0,0.0,0.0,0.0,0.0,0.0,0.0,0.0,0.0,0.0,0.0,0.0,0.0,0.0,0.0,0.0,0.0,0.0,0.0,0.0,0.0,0.0,0.0,0.0,0.0,0.0,0.0,0.0,0.0,0.0,0.0,0.0,0.0,0.0,0.0,0.0,0.0,0.0,0.0,0.0,0.0,0.0,0.0,0.0,0.0,3.8598,3.9101,4.1835,4.3475,4.3986,4.4005,4.4005,4.4005,4.4005,4.3615,0.0,0.0,0.0,0.0,0.0,0.0,0.0,0.0,0.0,0.0,0.0,0.0,0.0,0.0,0.0,0.0,0.0,0.0,0.0,0.0,0.0,0.0,0.0,0.0,0.0,0.0,0.0,0.0,3.747,3.7793,3.8223,0.0,0.0,0.0,0.0,0.0,0.0,0.0,0.0,0.0,0.0,4.5312,4.5795,4.6064,4.6492,4.7321,4.7735,4.7919,4.7806,4.8092,4.8111,4.7491,0.0,0.0,0.0,0.0,0.0,0.0,0.0,0.0,0.0,0.0,0.0,0.0,0.0,0.0,0.0,0.0,0.0,0.0,0.0,0.0,0.0,0.0,0.0,0.0,0.0,0.0,0.0,0.0,0.0,0.0,3.2133,0.0,0.0,0.0,0.0,0.0,0.0,0.0,0.0,0.0,0.0,0.0,0.0,0.0,0.0,0.0,0.0,0.0,0.0,0.0,0.0,0.0,0.0,3.9283,3.9171,4.2495,4.4155,4.4005,4.4005,4.4005,4.4005,4.4005,4.3633,4.2816,0.0,0.0,0.0,0.0,0.0,0.0,0.0,0.0,0.0,0.0,0.0,0.0,0.0,0.0,0.0,0.0,0.0,0.0,0.0,0.0,0.0,0.0,0.0,0.0,0.0,0.0,3.6542,3.722,3.8115,0.0,0.0,0.0,0.0,0.0,0.0,0.0,0.0,0.0,0.0,4.6805,4.6958,4.7307,4.7365,4.7668,4.852,4.799,4.7738,4.8553,4.8003,4.7416,0.0,0.0,0.0,0.0,0.0,0.0,0.0,0.0,0.0,0.0,0.0,0.0,0.0,0.0,0.0,0.0,0.0,0.0,0.0,0.0,0.0,0.0,0.0,0.0,0.0,0.0,0.0,3.436,3.3908,0.0,0.0,0.0,0.0,0.0,0.0,0.0,0.0,0.0,0.0,0.0,4.1425,4.1709,0.0,0.0,0.0,0.0,0.0,0.0,0.0,0.0,0.0,0.0,0.0,0.0,4.0122,4.0114,4.2808,4.4192,4.4005,4.4005,4.4005,4.4005,4.4113,4.38,4.2961,0.0,0.0,0.0,0.0,0.0,0.0,0.0,0.0,0.0,0.0,0.0,0.0,0.0,0.0,0.0,0.0,0.0,0.0,0.0,0.0,0.0,0.0,0.0,0.0,0.0,3.9326,0.0,0.0,0.0,0.0,0.0,0.0,0.0,0.0,0.0,0.0,0.0,4.6034,4.679,4.7104,4.7475,4.8174,4.8262,4.8566,0.0,0.0,0.0,0.0,0.0,0.0,0.0,0.0,0.0,0.0,0.0,0.0,0.0,0.0,4.9052,4.7925,4.7734,4.7734,4.7734,0.0,0.0,0.0,0.0,0.0,0.0,0.0,0.0,0.0,0.0,0.0,0.0,0.0,0.0,0.0,0.0,3.6481,0.0,0.0,0.0,0.0,0.0,0.0,0.0,0.0,4.0696,4.1825,4.2848,4.3152,4.3568,0.0,4.4118,4.3194,0.0,0.0,0.0,0.0,0.0,0.0,0.0,0.0,4.1052,4.0913,4.315,4.4252,4.402,4.4005,4.4005,4.4005,4.4192,4.4038,4.3459,4.3222,4.2871,0.0,0.0,0.0,0.0,0.0,0.0,0.0,0.0,0.0,0.0,0.0,0.0,0.0,0.0,0.0,0.0,0.0,0.0,0.0,0.0,0.0,0.0,0.0,4.1299,0.0,0.0,0.0,0.0,0.0,0.0,0.0,0.0,0.0,4.6637,4.7068,4.7502,4.7886,4.8124,4.8477,4.9059,0.0,0.0,0.0,0.0,0.0,0.0,0.0,5.0778,5.0873,5.0873,5.1007,5.137,5.1553,5.1771,5.2206,0.0,0.0,4.9198,4.8746,4.8862,4.9159,4.9507,4.9749,4.9749,5.0048,5.0211,0.0,0.0,0.0,0.0,0.0,0.0,0.0,0.0,3.7533,3.7988,0.0,3.7912,0.0,0.0,0.0,0.0,0.0,3.9494,0.0,0.0,4.2848,4.3682,4.3834,4.4573,4.4971,4.4971,4.499,4.4909,4.4687,4.3288,0.0,0.0,0.0,0.0,0.0,0.0,4.2138,4.1797,4.3643,4.4429,4.4147,4.4132,4.4113,4.4132,4.4285,4.4356,4.4314,4.3746,4.3364,4.3313,4.1649,0.0,0.0,0.0,0.0,0.0,0.0,0.0,0.0,0.0,0.0,0.0,0.0,0.0,0.0,0.0,0.0,0.0,0.0,0.0,0.0,4.1958,0.0,0.0,0.0,0.0,0.0,0.0,0.0,0.0,0.0,0.0,4.8224,4.8258,4.8658,4.9719,0.0,0.0,0.0,0.0,5.0239,5.1054,5.1211,5.1495,5.2253,5.24,5.2446,5.2654,0.0,0.0,5.4146,5.4314,5.46,5.5594,5.5624,5.4707,5.1254,5.0715,5.0896,5.1636,5.2472,5.3167,5.3234,5.3635,5.4216,3.9932,0.0,0.0,0.0,0.0,3.7988,3.8433,3.9237,3.9854,3.9892,3.9589,3.9968,0.0,0.0,0.0,0.0,0.0,0.0,4.0677,4.206,4.2552,4.3739,4.5464,4.5729,4.6127,4.6676,4.6676,4.6664,4.6606,4.6177,4.4726,4.2327,0.0,0.0,0.0,0.0,4.3885,4.3774,4.5467,4.6271,4.5938,4.5938,4.5985,4.6147,4.5507,4.5244,4.5439,4.4708,4.4248,4.4134,4.3205,0.0,0.0,0.0,0.0,0.0,0.0,0.0,0.0,0.0,0.0,0.0,0.0,0.0,0.0,0.0,0.0,0.0,0.0,0.0,4.2935,4.4014,4.4492,0.0,0.0,0.0,0.0,0.0,0.0,0.0,0.0,0.0,4.9381,4.9409,4.9532,0.0,0.0,4.9893,4.9893,5.0429,5.0921,5.1187,0.0,0.0,0.0,5.252,5.2621,5.2698,5.3331,5.4185,5.5194,5.538,5.5508,5.5913,5.5931,5.5555,5.4707,5.4409,5.4283,5.4042,5.4155,5.4124,5.3621,5.4158,5.4755,4.2488,3.9865,3.9172,3.921,3.9683,3.9683,4.0138,4.0923,4.1454,4.1567,4.1397,4.1598,4.1567,4.1397,4.1416,0.0,0.0,0.0,4.3114,4.4383,4.4383,4.5198,4.6601,4.6657,4.6923,4.7378,4.7397,4.7397,4.7397,4.7397,4.658,4.4968,0.0,0.0,4.3646,4.5021,4.5674,4.5538,4.6619,4.7066,4.6836,4.6817,4.69,4.6974,4.6457,4.6097,4.5906,4.5519,4.5091,4.4667,4.4221,4.3938,0.0,0.0,0.0,0.0,0.0,0.0,0.0,0.0,0.0,0.0,0.0,4.0383,4.0526,0.0,0.0,0.0,4.2741,4.3652,4.4673,4.5605,0.0,0.0,0.0,0.0,0.0,0.0,0.0,4.8633,4.9217,4.9683,4.9885,4.9893,4.9893,4.9893,4.9893,5.0012,5.0372,0.0,5.1438,5.2082,5.2608,5.3054,5.3456,5.3617,5.3741,5.3912,5.4803,5.5806,5.6725,5.7168,5.7545,5.79,5.8014,5.8023,5.8023,5.8043,5.7501,5.6128,5.5799,5.5606,5.5084,5.5683,5.6205,4.4743,4.3853,4.2356,4.1635,4.1503,4.1491,4.1996,4.278,4.2799,4.3265,4.3929,4.314,4.3234,4.4004,4.4004,0.0,4.6297,4.6297,4.6639,4.7397,4.7397,4.7434,4.7523,4.7491,4.7529,4.7586,4.7605,4.7618,4.7624,4.7605,4.7567,4.7491,4.7548,4.7104,4.6223,4.7029,4.7392,4.7126,4.7344,4.7349,4.7225,4.721,4.721,4.7225,4.7203,4.6819,4.6059,4.6139,4.5862,4.516,4.5004,4.501,4.5167,0.0,0.0,0.0,0.0,0.0,0.0,0.0,0.0,0.0,0.0,0.0,0.0,0.0,0.0,0.0,4.581,0.0,4.6573,4.6899,0.0,0.0,0.0,4.8032,4.8792,4.9188,4.9415,4.9446,0.0,0.0,4.9893,0.0,4.9893,4.9893,4.9893,5.0182,5.0983,5.1206,5.1855,5.3252,5.3703,5.4131,5.4876,5.509,5.5286,5.5745,5.6695,5.7483,5.8343,5.9184,6.0093,6.0615,6.1021,6.1002,6.106,6.0847,6.0383,5.8034,5.757,5.7454,5.7202,5.7869,5.8294,4.7283,4.6487,4.6089,4.5198,4.4042,4.4004,4.4857,4.6184,4.6222,4.6335,4.6506,4.6316,4.6335,4.6525,4.6506,4.6733,4.7112,4.7093,4.7207,4.7378,4.7397,4.777,4.8376,4.8395,4.8717,4.9267,4.9305,4.9305,4.9305,4.9305,4.8969,4.8452,4.9002,4.8558,4.7168,4.7952,4.8356,4.8302,4.8935,4.9201,4.9064,4.8893,4.8893,4.9045,4.7848,4.7162,4.7023,4.6493,4.6392,4.6771,4.6765,4.7087,4.7719,4.6257,0.0,0.0,0.0,0.0,0.0,0.0,0.0,0.0,0.0,4.4433,4.5003,0.0,4.5313,0.0,4.6945,4.7591,4.7087,4.8119,0.0,0.0,4.8756,4.8812,4.9535,4.9488,4.9506,4.9755,4.9838,4.9893,4.9893,4.9893,4.9893,4.9893,4.9893,4.9987,5.0201,5.1338,5.2234,5.2736,5.3902,5.492,5.5172,5.5461,5.5927,5.6801,5.7146,5.7589,5.8449,5.9319,5.9957,6.019,6.0712,6.1041,6.1099,6.1099,6.0925,6.0286,5.9725,5.8855,5.7628,5.8507,5.9319,4.8414,4.7946,4.7548,4.7074,4.6575,4.6184,4.6544,4.7378,4.7397,4.7397,4.7397,4.7397,4.7605,4.7978,4.7997,4.8187,4.8496,4.8509,4.8496,4.8534,4.8913,4.9349,4.9822,5.0182,5.058,5.1016,5.1016,5.0827,5.0486,5.0486,5.005,4.9267,4.9684,4.9438,4.8585,4.9002,4.9208,4.9172,4.9625,4.9871,4.9788,4.9688,4.9669,4.9774,4.8885,4.8264,4.8003,4.7542,4.7321,4.7397,4.777,4.8206,4.8661,4.7742,4.7426,0.0,0.0,0.0,0.0,0.0,0.0,0.0,0.0,0.0,0.0,0.0,4.6488,4.6948,4.8038,4.8543,4.8146,4.8999,4.9625,4.9625,4.9439,4.9431,4.9852,4.9741,4.9698,4.9885,4.9893,4.9893,4.9893,4.9893,4.9893,4.9893,4.9893,5.0031,5.0448,5.1319,5.2011,5.252,5.3712,5.4842,5.5349,5.5696,5.6058,5.6624,5.7048,5.7482,5.7965,5.9068,5.9899,5.9938,6.0557,6.1099,6.1099,6.1099,6.1099,6.1041,6.077,5.9977,5.8758,5.9203,5.9706,4.9083,4.9097,4.8117,4.8211,4.8951,4.8079,4.77,4.7719,4.77,4.7719,4.7719,4.7719,4.8206,4.9021,4.9021,4.9476,5.0201,5.0234,5.0234,5.0272,5.0997,5.1357,5.1381,5.2063,5.24,5.24,5.24,5.2059,5.1362,5.1343,5.0959,5.0239,5.0234,5.022,5.0207,5.0107,4.9938,4.9736,4.9843,4.9893,4.9893,4.9893,4.9893,4.9893,4.9817,4.9419,4.8755,4.8698,4.8357,4.7643,4.8414,4.8869,4.8869,4.885,4.885,0.0,4.8842,0.0,0.0,0.0,0.0,0.0,0.0,0.0,0.0,4.7217,4.7684,4.8217,4.8986,4.9396,4.9262,4.9646,4.9893,4.9893,4.9893,4.9893,4.9893,4.9893,4.9893,4.9893,4.9893,4.9893,4.9893,4.9893,4.9893,4.9893,4.9893,5.0153,5.0868,5.1166,5.1595,5.2431,5.3366,5.4518,5.5534,5.5903,5.6003,5.61,5.6583,5.7106,5.7125,5.8546,5.9706,5.9783,6.046,6.1079,6.1099,6.1099,6.1099,6.1099,6.106,6.075,6.0035,5.9957,6.0016,5.1111,5.1566,5.005,4.9917,5.0656,4.9784,4.9438,4.9438,4.9438,4.9438,4.9438,4.9438,4.9917,5.0713,5.0732,5.1168,5.1926,5.1926,5.1945,5.1945,5.2096,5.2177,5.2191,5.2329,5.24,5.24,5.24,5.2324,5.2177,5.2177,5.2096,5.1945,5.1926,5.1869,5.1748,0.0,0.0,0.0,4.9898,4.9893,4.9893,4.9893,4.9893,4.9893,4.9267,0.0,4.8717,4.8698,4.8623,4.8496,4.9248,0.0,0.0,0.0,0.0,0.0,0.0,0.0,0.0,0.0,0.0,0.0,4.8623,4.8463,4.8444,4.866,4.8775,4.864,4.9255,4.963,4.9596,4.9788,4.9893,4.9893,4.9893,4.9893,4.9893,4.9893,4.9893,4.9893,4.9893,4.9893,4.9893,4.9893,4.9893,4.9893,4.9893,5.0016,5.0361,5.0932,5.1415,5.1745,5.315,5.4667,5.5787,5.5917,5.5935,5.6051,5.6089,5.6255,5.6409,5.7695,5.8816,5.8874,6.0074,6.1079,6.1079,6.1099,6.1099,6.1099,6.1099,6.0867,6.0093,6.0422,6.0692,5.2291,0.0,5.2134,5.204,0.0,5.1964,5.1528,5.1092,5.0713,5.077,5.113,5.113,5.1376,5.176,5.1381,5.1414,5.1779,5.1376,5.1395,5.1817,5.2196,5.2632,5.3063,5.3442,5.3636,5.3631,5.3631,5.3423,5.3063,5.3044,5.2836,5.2419,5.24,5.2376,5.2317,5.1959,5.1168,4.9912,4.9893,4.9893,4.9893,4.9893,4.9893,4.9893,0.0,0.0,0.0,0.0,0.0,0.0,0.0,0.0,0.0,0.0,0.0,4.9893,4.983,4.9778,4.9692,4.9449,4.9257,4.9195,4.9096,4.8993,4.8909,4.8995,4.9044,4.9057,4.9368,4.963,4.9774,4.9857,4.9893,4.9893,4.9893,4.9893,4.9893,4.9893,4.9893,4.9893,4.9893,4.9893,4.9893,4.9893,4.9893,4.9893,4.9893,4.9992,5.0189,5.0531,5.0973,5.1598,5.2521,5.3663,5.4583,5.518,5.5412,5.5432,5.5741,5.5973,5.6003,5.7076,5.7965,5.8081,5.9339,6.0499,6.0538,6.0809,6.1099,6.1099,6.1099,6.1002,6.0557,6.0809,6.0983,5.3575,5.4314,5.4029,5.3897,5.3916,5.3916,5.3518,5.2779,0.0,0.0,0.0,5.24,5.2461,5.2589,5.1945,5.1703,5.1812,5.1111,5.1168,5.1874,5.2518,5.3233,5.3935,5.4598,5.4901,5.4901,5.4901,5.456,5.3954,5.3916,5.3556,5.2897,5.284,5.2779,5.2632,5.2627,5.1888,5.0423,5.0334,5.0291,5.0126,5.0126,5.005,4.9912,4.9893,4.9893,4.9893,4.9893,4.9893,4.9893,4.9893,4.9893,4.9893,4.9893,4.9893,4.9893,4.9893,4.9838,4.975,4.957,4.9387,4.9195,4.9197,4.9129,4.896,4.9012,4.9144,4.943,4.9476,4.9592,4.9866,4.9893,4.9893,4.9893,4.9893,4.9893,4.9893,4.9893,4.9893,4.9893,4.9893,4.9893,4.9893,4.9893,4.9893,4.9893,4.9933,5.0038,5.0236,5.0356,5.0774,5.1828,5.2273,5.2589,5.3425,5.4304,5.4788,5.4928,5.5548,5.5996,5.6134,5.6725,5.7258,5.7385,5.8662,5.9493,5.9706,6.0286,6.0847,6.0886,6.1021,6.1099,6.1099,6.1107,6.1106,5.6133,5.6777,5.5337,5.4731,5.4731,5.4731,5.4655,5.4427,5.2911,5.2291,5.24,5.24,5.2802,5.3518,5.3404,5.3726,5.4352,5.4257,5.4257,0.0,5.4503,5.4617,5.4731,5.4844,5.4901,5.4901,5.4901,5.4844,5.475,5.4731,5.4655,5.4541,5.456,5.42,5.3575,5.3518,5.3044,5.2096,5.2059,5.1717,5.1054,5.1021,5.0656,4.995,4.9893,4.9893,4.9893,4.9893,4.9893,4.9893,4.9893,4.9893,4.9893,4.9893,4.9893,4.9893,4.9893,4.9898,4.9871,4.9731,4.9529,4.9228,4.9197,4.9179,4.9162,4.9418,4.9619,4.9644,4.9726,4.9838,4.9912,4.9893,4.9893,4.9893,4.9893,4.9893,4.9893,4.9893,4.9893,4.9893,4.9893,4.9893,4.9893,4.9893,4.9893,4.9939,5.0076,5.0283,5.0516,5.0635,5.1076,5.1885,5.2174,5.2582,5.3247,5.4304,5.4752,5.4951,5.5611,5.6126,5.6094,5.6719,5.7218,5.7287,5.8099,5.8699,5.8815,5.9493,5.9956,6.0101,6.0536,6.101,6.1028,6.1131,6.1237,5.7327,5.7971,5.727,5.6948,5.6891,5.6,5.5602,5.5546,5.4806,5.4181,5.3821,5.4257,5.4427,5.4352,5.4352,5.4314,5.4238,5.3764,5.3821,5.4238,5.4238,5.4484,5.4882,5.4901,5.4901,5.4901,5.4901,5.4901,5.4901,5.4901,5.4901,5.4901,5.4901,5.4712,5.4371,5.4352,5.4162,5.3764,5.2859,5.2215,5.1855,5.1419,5.0983,5.0599,5.0144,4.9893,4.9893,4.9893,4.9893,4.9893,4.9893,4.9893,4.9893,4.9893,4.9893,4.9893,4.9893,4.9893,4.9893,4.9778,4.9604,4.934,4.9418,4.9464,4.9464,4.951,4.9585,4.9692,4.9745,4.9816,4.9898,4.9893,4.9893,4.9893,4.9893,4.9893,4.9893,4.9893,4.9893,4.9893,4.9893,4.9893,4.9893,4.9893,4.9946,5.005,5.0287,5.0545,5.0673,5.0808,5.0998,5.1409,5.1525,5.1717,5.2198,5.3384,5.4142,5.431,5.5378,5.6065,5.6167,5.6567,5.6708,5.6776,5.7428,5.7932,5.801,5.8707,5.9181,5.9362,5.999,6.0471,6.0592,6.0953,6.1309,5.835,5.8957,5.8992,5.8878,5.8537,5.6683,5.6019,5.6171,5.5962,5.5527,5.5072,5.5811,5.5906,5.5489,5.5299,5.4958,5.4446,5.365,5.3745,5.4446,5.4143,5.4408,5.511,5.5015,5.4901,5.4901,5.4901,5.4901,5.4901,5.4901,5.4901,5.4901,5.4901,5.4901,5.4901,5.4901,5.4901,5.4825,5.3631,5.2779,5.2385,5.1779,5.13,5.0884,5.0239,4.9893,4.9893,4.9893,4.9893,4.9893,4.9893,4.9893,4.9893,4.9893,4.9893,4.9893,4.9893,4.9893,4.9879,4.9774,4.9615,4.9476,4.96,4.9711,4.9692,4.96,4.9566,4.9721,4.9764,4.9788,4.9885,4.9893,4.9893,4.9893,4.9893,4.9893,4.9893,4.9893,4.9893,4.9893,4.9893,4.9925,4.9946,4.9959,5.0076,5.0298,5.0557,5.0729,5.0771,5.0925,5.099,5.0969,5.099,5.1089,5.114,5.2569,5.3621,5.3749,5.5155,5.6049,5.6271,5.6239,5.6226,5.633,5.6732,5.7146,5.7301,5.791,5.8421,5.8571,5.919,5.9845,6.0208,6.0889,6.1412,5.9712,5.9788,5.9753,5.9336,5.8461,5.6095,5.5508,5.6057,5.5394,5.4996,5.5053,5.5811,5.655,5.7005,5.6341,5.6323,5.6777,5.619,5.619,5.6683,5.5489,5.5261,5.5962,5.5299,5.4901,5.4958,5.4958,5.4977,5.4996,5.4939,5.492,5.4901,5.4901,5.492,5.4901,5.4901,5.4901,5.4901,5.4769,5.3935,5.2494,5.2343,5.1566,5.0063,4.9969,4.9893,4.9893,4.9893,4.9893,4.9893,4.9893,4.9893,4.9893,4.9893,4.9893,4.9893,4.9893,4.9893,4.9898,4.9792,4.9692,4.9678,4.9692,4.9726,4.9707,4.9788,4.9852,4.9885,4.9866,4.9866,4.9898,4.9893,4.9893,4.9893,4.9893,4.9893,4.9893,4.9893,4.9893,4.9893,4.9893,4.9978,5.0108,5.0139,5.0287,5.0557,5.0709,5.0819,5.0913,5.1024,5.1087,5.1081,5.1113,5.1117,5.133,5.2635,5.3575,5.3939,5.5301,5.6154,5.628,5.6297,5.6267,5.6302,5.6323,5.6489,5.665,5.704,5.7629,5.781,5.8373,5.9183,6.0052,6.0804,6.1287,5.9921,5.9921,5.9921,5.943,5.8461,5.6531,5.5887,5.6133,5.5811,5.5659,5.5716,5.6038,5.6114,5.5943,5.6095,5.6133,5.5943,5.6095,5.6341,5.6626,5.5962,5.6114,5.6758,5.6057,5.5906,5.6304,5.5906,5.5678,5.5659,5.5678,5.5659,5.5659,5.5659,5.5413,5.4958,5.4901,5.4901,5.4901,5.4901,5.4333,5.3328,5.3177,5.2589,5.149,5.0921,5.0391,4.9969,4.9893,4.9893,4.9893,4.9893,4.9893,4.9893,4.9893,4.9893,4.9893,4.9893,4.9893,4.9893,4.9857,4.9816,4.9816,4.9816,4.9835,4.9816,4.9871,4.9893,4.9893,4.9893,4.9893,4.9893,4.9893,4.9893,4.9893,4.9893,4.9893,4.9893,4.9893,4.9893,4.9893,4.9893,4.9939,5.0038,5.0186,5.0402,5.0654,5.078,5.0902,5.099,5.1063,5.1117,5.115,5.1201,5.1215,5.1313,5.2212,5.3184,5.3922,5.4905,5.5749,5.6285,5.6398,5.6407,5.6368,5.6359,5.637,5.6441,5.6595,5.6931,5.7129,5.7632,5.8476,5.9414,5.9862,6.0253,5.9921,5.9866,5.9658,5.9241,5.854,5.691,5.6209,5.6152,5.5943,5.5849,5.5868,5.6095,5.5716,5.5091,5.5792,5.5943,5.5678,5.6019,5.6474,5.6758,5.6436,5.6626,5.7289,5.6834,5.672,5.6967,5.6702,5.6512,5.6512,5.6531,5.6417,5.6247,5.6209,5.5754,5.4996,5.4901,5.4901,5.4901,5.4901,5.4617,5.4105,5.4029,5.3518,5.2461,5.1609,5.0884,5.0296,5.0044,4.9893,4.9893,4.9893,4.9893,4.9893,4.9893,4.9893,4.9893,4.9893,4.9893,4.9893,4.9893,4.9893,4.9893,4.9893,4.9893,4.9893,4.9893,4.9893,4.9893,4.9893,4.9893,4.9893,4.9893,4.9893,4.9893,4.9893,4.9893,4.9893,4.9893,4.9893,4.9893,4.9946,5.0019,5.0144,5.0391,5.0616,5.0736,5.089,5.0961,5.105,5.1105,5.1171,5.1225,5.1261,5.1265,5.1297,5.2055,5.2855,5.3502,5.4398,5.547,5.6098,5.6242,5.6492,5.6434,5.6481,5.6489,5.6462,5.6496,5.6561,5.6698,5.7198,5.7932,5.8601,5.8888,5.9493,5.9921,5.9807,5.9086,5.8745,5.8556,5.691,5.619,5.6057,5.5356,5.4996,5.5129,5.5811,5.5716,5.4977,5.5754,5.655,5.7043,5.6455,5.6948,5.8063,5.6853,5.6626,5.7365,5.7346,5.7005,5.6758,5.7156,5.7365,5.7365,5.7308,5.6948,5.6285,5.6304,5.5792,5.5072,5.4939,5.4901,5.4901,5.4901,5.4882,5.4825,5.4806,5.4048,5.266,5.1661,5.1192,5.1016,5.0334,4.9893,4.9893,4.9893,4.9893,4.9893,4.9893,4.9893,4.9893,4.9893,4.9893,4.9893,4.9893,4.9893,4.9893,4.9893,4.9893,4.9893,4.9893,4.9893,4.9893,4.9893,4.9893,4.9893,4.9893,4.9893,4.9893,4.9893,4.9893,4.9893,4.9893,4.9893,4.9939,5.0025,5.0217,5.0567,5.0799,5.0814,5.0898,5.0997,5.1081,5.1099,5.1186,5.1256,5.1288,5.1296,5.1296,5.1374,5.1822,5.2368,5.2995,5.3927,5.5076,5.5471,5.5821,5.6137,5.6394,5.6304,5.6282,5.6426,5.6501,5.6536,5.6743,5.7145,5.7725,5.7846,5.8562,5.9089,5.9921,5.9826,5.9033,5.8369,5.7744,5.6664,5.5906,5.5356,5.5034,5.4901,5.4939,5.5242,5.5204,5.492,5.5223,5.5546,5.5811,5.6057,5.6531,5.7005,5.6455,5.691,5.8085,5.7687,5.7895,5.8464,5.8331,5.8218,5.8142,5.7668,5.7554,5.7668,5.7232,5.6569,5.5792,5.5185,5.4901,5.4901,5.4901,5.4901,5.4901,5.4901,5.4619,5.4153,5.2736,5.1722,5.1225,5.0353,4.9893,4.9893,4.9893,4.9893,4.9893,4.9893,4.9893,4.9893,4.9893,4.9893,4.9893,4.9893,4.9893,4.9893,4.9893,4.9893,4.9893,4.9893,4.9893,4.9893,4.9893,4.9893,4.9893,4.9893,4.9893,4.9893,4.9893,4.9893,4.9893,4.9893,4.9893,4.9906,4.9973,5.0144,5.0466,5.0567,5.0672,5.0855,5.0976,5.1056,5.1105,5.1196,5.1252,5.1273,5.13,5.13,5.13,5.1495,5.1904,5.2489,5.3245,5.381,5.4274,5.4629,5.4945,5.5155,5.5338,5.5644,5.566,5.6024,5.6151,5.6399,5.684,5.6957,5.7035,5.7601,5.805,5.9089,5.9051,5.8805,5.8199,5.7327,5.6531,5.5868,5.5299,5.5015,5.4901,5.4939,5.5185,5.5185,5.4996,5.5204,5.5129,5.4977,5.5508,5.5925,5.619,5.6209,5.6796,5.7668,5.7554,5.7971,5.89,5.8878,5.8786,5.8973,5.8218,5.8142,5.8594,5.8066,5.727,5.6285,5.5602,5.5204,5.4977,5.4901,5.4901,5.4901,5.4901,5.4956,5.4862,5.359,5.2466,5.1719,5.0854,5.0206,4.9963,4.9893,4.9893,4.9893,4.9893,4.9893,4.9893,4.9893,4.9893,4.9893,4.9893,4.9893,4.9893,4.9893,4.9893,4.9893,4.9893,4.9893,4.9893,4.9893,4.9893,4.9893,4.9893,4.9893,4.9893,4.9893,4.9893,4.9893,4.9893,4.9959,5.0082,5.0197,5.035,5.0529,5.0605,5.0739,5.0947,5.1004,5.1068,5.1128,5.1181,5.1243,5.1292,5.13,5.13,5.13,5.1417,5.1476,5.1982,5.2567,5.2976,5.3229,5.3546,5.3791,5.3959,5.4252,5.4628,5.5008,5.5427,5.5654,5.5825,5.602,5.6138,5.6294,5.6489,5.7172,5.7365,5.7479,5.8293,5.8009,5.7118,5.6474,5.6171,5.5868,5.5204,5.4901,5.4996,5.5697,5.5527,5.5185,5.5583,5.5621,5.5034,5.5015,5.5413,5.6038,5.6095,5.6171,5.6436,5.7024,5.7441,5.7801,5.835,5.907,5.9601,5.8935,5.8631,5.8688,5.8537,5.7687,5.6266,5.6076,5.564,5.5091,5.4901,5.4901,5.4901,5.4901,5.4916,5.487,5.4116,5.338,5.2635,5.1777,5.0837,5.0014,4.9893,4.9893,4.9893,4.9893,4.9893,4.9893,4.9893,4.9893,4.9893,4.9893,4.9893,4.9893,4.9893,4.9893,4.9893,4.9893,4.9893,4.9893,4.9893,4.9893,4.9906,4.992,4.9906,4.9893,4.9925,4.9933,4.992,4.9906,5.0031,5.0317,5.0519,5.08,5.0961,5.097,5.0985,5.1049,5.1134,5.1171,5.1201,5.1239,5.1292,5.1296,5.13,5.13,5.13,5.13,5.132,5.1456,5.2041,5.2508,5.2597,5.2846,5.3061,5.3232,5.3554,5.393,5.4356,5.4697,5.4578,5.4732,5.4986,5.5396,5.5708,5.604,5.6704,5.5697,5.5792,5.6626,5.6493,5.5792,5.6038,5.5868,5.5299,5.4996,5.4901,5.4958,5.5204,5.5166,5.5015,5.5204,5.5166,5.4901,5.492,5.5053,5.5299,5.5337,5.564,5.6152,5.6455,5.7194,5.8161,5.8556,5.8821,5.8973,5.8821,5.8688,5.8613,5.8085,5.7554,5.6967,5.5925,5.5129,5.4958,5.4901,5.4901,5.4901,5.4901,5.4956,5.5061,5.4841,5.412,5.2762,5.1775,5.0852,4.995,4.9893,4.9893,4.9893,4.9893,4.9893,4.9893,4.9893,4.9893,4.9893,4.9893,4.9893,4.9893,4.9893,4.9893,4.9893,4.9893,4.9893,4.9893,4.9893,4.9933,5.0063,5.0101,5.005,4.9925,5.0012,5.0101,5.0095,5.0174,5.0291,5.0383,5.0529,5.067,5.0824,5.0923,5.103,5.1111,5.1161,5.1211,5.122,5.1252,5.1296,5.13,5.13,5.13,5.13,5.13,5.13,5.13,5.1671,5.1982,5.2071,5.2157,5.2347,5.2558,5.2881,5.3198,5.3641,5.3776,5.3639,5.3815,5.4205,5.4674,5.5164,5.571,5.6294,5.3973,5.4086,5.492,5.4769,5.4105,5.4901,5.4977,5.4541,5.4787,5.4901,5.4901,5.492,5.4901,5.4901,5.4901,5.4901,5.4901,5.4901,5.4901,5.4901,5.4901,5.5223,5.5811,5.6417,5.6891,5.7668,5.8066,5.8218,5.8218,5.8233,5.8369,5.8502,5.8142,5.7706,5.7327,5.6095,5.528,5.4977,5.4901,5.4927,5.5,5.5014,5.5127,5.5262,5.5236,5.4339,5.2819,5.2012,5.1111,5.0158,4.9893,4.9893,4.9893,4.9893,4.9893,4.9893,4.9893,4.9893,4.9893,4.9893,4.9893,4.9893,4.9893,4.9893,4.9893,4.9893,4.9893,4.9893,4.9973,5.0063,5.0175,5.0252,5.0197,5.01,5.0205,5.0275,5.031,5.0413,5.0508,5.0568,5.0668,5.0778,5.0903,5.1005,5.1086,5.1166,5.1215,5.1239,5.1243,5.1261,5.1292,5.13,5.13,5.13,5.13,5.13,5.13,5.13,5.1378,5.1495,5.1565,5.162,5.177,5.1855,5.2088,5.22,5.2565,5.2702,5.2683,5.3073,5.3385,5.3893,5.4381,5.5125,5.5767,5.2295,5.2409,5.3239,5.3158,5.2622,5.34,5.3832,5.3917,5.4505,5.4861,5.4927,5.4941,5.4916,5.4901,5.5034,5.511,5.4996,5.5091,5.511,5.5053,5.4977,5.4996,5.5204,5.6417,5.6834,5.6569,5.7137,5.746,5.7554,5.7715,5.7892,5.8613,5.8511,5.8214,5.7342,5.6531,5.5598,5.5022,5.4946,5.5028,5.5216,5.521,5.5288,5.5468,5.5295,5.4454,5.2959,5.2226,5.1375,5.012,4.9893,4.9893,4.9893,4.9893,4.9893,4.9893,4.9893,4.9893,4.9893,4.9893,4.9893,4.9893,4.992,4.9906,4.9933,4.9986,4.9993,4.9993,5.0107,5.0224,5.0283,5.0366,5.0404,5.0425,5.0445,5.0425,5.0446,5.0606,5.0717,5.08,5.0977,5.1122,5.1155,5.123,5.1256,5.1269,5.1269,5.1269,5.1292,5.1296,5.1296,5.13,5.13,5.13,5.13,5.13,5.13,5.13,5.13,5.13,5.1316,5.1349,5.1384,5.1441,5.1483,5.1496,5.157,5.1863,5.1921,5.2038,5.2468,5.3014,5.3678,5.442,5.524,5.0929,5.1025,5.1873,5.2084,5.2007,5.2772,5.3498,5.4033,5.4243,5.4619,5.4996,5.5121,5.5019,5.4973,5.558,5.5849,5.5822,5.5826,5.5849,5.5754,5.5166,5.4939,5.5091,5.5962,5.6417,5.6285,5.691,5.7403,5.7456,5.8007,5.8483,5.865,5.8155,5.7794,5.7263,5.5997,5.5289,5.5132,5.5121,5.5229,5.5395,5.5413,5.5425,5.548,5.5437,5.459,5.2981,5.1614,5.0671,5.0014,4.9893,4.9893,4.9906,4.9906,4.9906,4.9893,4.9893,4.9912,4.9912,4.9893,4.9893,4.9925,5.0012,5.0114,5.0126,5.0209,5.0249,5.0272,5.0317,5.0413,5.0526,5.0586,5.0635,5.0726,5.0635,5.0644,5.0754,5.0844,5.0932,5.0969,5.1087,5.1161,5.1215,5.1252,5.13,5.13,5.13,5.13,5.13,5.13,5.13,5.13,5.13,5.13,5.13,5.13,5.13,5.13,5.13,5.13,5.1314,5.1364,5.1381,5.1404,5.1432,5.1444,5.1437,5.155,5.1414,5.1394,5.1668,5.2273,5.2956,5.3678,5.4596,5.073,5.0442,5.096,5.1152,5.1256,5.2042,5.2694,5.3154,5.3537,5.4092,5.4657,5.4778,5.4925,5.5187,5.5682,5.612,5.6368,5.6326,5.6526,5.6796,5.6091,5.5446,5.5264,5.5773,5.6019,5.5754,5.6493,5.6834,5.6944,5.757,5.7901,5.7954,5.7487,5.7116,5.6896,5.5864,5.5183,5.532,5.5345,5.5413,5.5607,5.5618,5.5654,5.5684,5.5605,5.4809,5.3072,5.1344,5.0294,5.0149,5.01,5.0076,5.0025,5.0025,5.0005,4.9906,4.9893,4.992,4.9986,4.9946,4.9952,5.0018,5.0089,5.0133,5.0194,5.0287,5.0325,5.0383,5.0457,5.0567,5.0654,5.0692,5.0682,5.0653,5.0616,5.0653,5.0855,5.094,5.101,5.1063,5.1128,5.122,5.1234,5.1284,5.1296,5.13,5.13,5.13,5.13,5.13,5.13,5.13,5.13,5.13,5.13,5.13,5.13,5.13,5.13,5.13,5.132,5.1342,5.1374,5.1387,5.1381,5.139,5.1384,5.1398,5.1394,5.1394,5.1394,5.1726,5.2507,5.319,5.4088,5.1225,5.0591,5.0591,5.0534,5.0659,5.1397,5.1909,5.1954,5.259,5.3325,5.4012,5.4193,5.4649,5.537,5.5631,5.6094,5.686,5.6797,5.706,5.7213,5.6823,5.6033,5.519,5.5631,5.5635,5.5264,5.5784,5.6114,5.6334,5.6387,5.6766,5.7195,5.6825,5.6458,5.6321,5.5721,5.547,5.5401,5.5389,5.5504,5.5651,5.5684,5.5649,5.5441,5.5017,5.4445,5.2997,5.1506,5.0467,5.0457,5.0425,5.0325,5.0217,5.0224,5.0151,5.0019,5.0006,5.0057,5.0175,5.007,5.005,5.0156,5.0082,5.0038,5.0236,5.0306,5.0366,5.0374,5.0576,5.0616,5.0625,5.0644,5.0596,5.0488,5.0406,5.0558,5.0805,5.094,5.1024,5.1099,5.1175,5.1234,5.1265,5.13,5.13,5.13,5.13,5.13,5.13,5.13,5.13,5.13,5.13,5.13,5.13,5.13,5.13,5.13,5.13,5.1308,5.1297,5.1318,5.1348,5.1364,5.1367,5.1381,5.139,5.1385,5.1396,5.1394,5.1394,5.1785,5.2331,5.2956,5.3737,5.1346,5.181,5.1829,5.1423,5.099,5.1713,5.2071,5.2071,5.2245,5.2723,5.3435,5.4089,5.44,5.4557,5.5719,5.6891,5.7573,5.7627,5.7512,5.6872,5.6839,5.6209,5.5498,5.5529,5.532,5.5184,5.5141,5.5561,5.6061,5.6359,5.6744,5.7195,5.673,5.6373,5.6145,5.5535,5.5121,5.5223,5.5275,5.542,5.5558,5.5566,5.5319,5.4759,5.3666,5.3234,5.3075,5.1704,5.0836,5.0726,5.0548,5.0402,5.038,5.0369,5.0325,5.026,5.026,5.0294,5.0347,5.0302,5.0313,5.0325,5.0358,5.0476,5.0369,5.0485,5.0495,5.0446,5.0436,5.0497,5.0476,5.0457,5.0425,5.0372,5.0353,5.0457,5.0681,5.0851,5.0958,5.1074,5.1191,5.1269,5.1296,5.13,5.13,5.13,5.13,5.13,5.13,5.13,5.13,5.13,5.13,5.13,5.13,5.13,5.13,5.13,5.13,5.13,5.1294,5.1297,5.1327,5.1352,5.1365,5.1367,5.1398,5.1384,5.1394,5.1394,5.1394,5.1629,5.1999,5.2663,5.3405,5.1544,5.1621,5.2028,5.1699,5.1111,5.1796,5.197,5.166,5.1583,5.2026,5.27,5.325,5.3571,5.3975,5.5236,5.6421,5.7807,5.8943,5.8726,5.7819,5.7505,5.6913,5.587,5.5554,5.5437,5.5358,5.5261,5.5671,5.6208,5.6223,5.6339,5.6976,5.6473,5.6058,5.5956,5.5524,5.5432,5.5395,5.5425,5.5504,5.5504,5.5504,5.537,5.4614,5.3368,5.278,5.3061,5.1587,5.0817,5.0615,5.0498,5.0466,5.0527,5.0527,5.0466,5.0336,5.0372,5.035,5.0325,5.0302,5.031,5.0313,5.0355,5.0333,5.0302,5.041,5.0464,5.0404,5.0393,5.0383,5.0313,5.0302,5.0279,5.0186,5.0174,5.0256,5.0455,5.0724,5.0951,5.108,5.1201,5.1265,5.13,5.13,5.13,5.13,5.13,5.13,5.13,5.13,5.13,5.13,5.13,5.13,5.13,5.13,5.13,5.13,5.13,5.13,5.1292,5.1294,5.1294,5.1332,5.1355,5.1386,5.1385,5.1394,5.1396,5.1394,5.1394,5.1394,5.1648,5.2331,5.3112,5.1641,5.1157,5.1892,5.1699,5.1091,5.1815,5.1718,5.0995,5.0898,5.1362,5.195,5.2113,5.2757,5.3373,5.4207,5.5597,5.7541,5.9446,5.9601,5.8373,5.8317,5.7408,5.6308,5.5827,5.5726,5.5566,5.548,5.589,5.6089,5.5933,5.5923,5.6328,5.6052,5.5746,5.5623,5.5747,5.5688,5.5516,5.5604,5.5618,5.5527,5.5523,5.5446,5.5101,5.3541,5.2815,5.2626,5.1483,5.0406,5.0385,5.0385,5.0477,5.0606,5.0625,5.0557,5.024,5.0358,5.035,5.0291,5.0264,5.0252,5.0236,5.0107,5.0076,5.0188,5.0205,5.0252,5.026,5.0272,5.0245,5.0175,5.0151,5.0076,4.9973,4.9906,4.9999,5.0209,5.0596,5.0801,5.1049,5.1186,5.1292,5.13,5.13,5.13,5.13,5.13,5.13,5.13,5.13,5.13,5.13,5.13,5.13,5.13,5.13,5.13,5.13,5.13,5.13,5.13,5.1292,5.1297,5.1322,5.1336,5.1359,5.1387,5.1402,5.1393,5.1402,5.1394,5.1394,5.1668,5.2058,5.278,5.1447,5.2008,5.2152,5.1699,5.1091,5.1834,5.1699,5.0995,5.0898,5.0975,5.1215,5.1873,5.2202,5.2627,5.3323,5.5026,5.7114,5.8943,5.9398,5.8461,5.8305,5.7462,5.6265,5.5949,5.5922,5.5856,5.5675,5.5685,5.575,5.5581,5.5677,5.5719,5.5669,5.5562,5.5562,5.5573,5.5632,5.5539,5.5593,5.5573,5.5516,5.5408,5.537,5.5121,5.3222,5.2464,5.2444,5.1371,5.0385,5.0385,5.0385,5.0396,5.0415,5.0425,5.0402,5.038,5.0372,5.0372,5.0302,5.0347,5.0369,5.0361,5.0272,5.0228,5.0212,5.0194,5.0139,5.0031,5.0019,4.998,4.9946,4.9973,4.9965,4.9893,4.9906,4.9986,5.0224,5.0415,5.0613,5.087,5.1095,5.13,5.13,5.13,5.13,5.13,5.13,5.13,5.13,5.13,5.13,5.13,5.13,5.13,5.13,5.13,5.13,5.13,5.13,5.13,5.13,5.13,5.13,5.1323,5.1333,5.1345,5.1362,5.1386,5.1397,5.1402,5.1396,5.1394,5.159,5.1824,5.2273,5.1149,5.1583,5.1989,5.1699,5.1149,5.1815,5.1699,5.0975,5.0898,5.0898,5.1014,5.1331,5.1525,5.1738,5.2434,5.4058,5.6012,5.7753,5.7985,5.7424,5.7192,5.694,5.5993,5.5993,5.6003,5.5958,5.5837,5.5738,5.5778,5.5758,5.5738,5.5778,5.5748,5.5737,5.5695,5.5757,5.5624,5.5546,5.5558,5.5558,5.542,5.5121,5.4852,5.4258,5.2962,5.2008,5.1794,5.1075,5.0271,5.0162,5.0118,5.013,5.013,5.0142,5.0197,5.0279,5.0339,5.0306,5.0202,5.0209,5.0245,5.013,5.013,5.0132,5.0076,5.0025,4.9999,4.9933,4.9893,4.9893,4.9893,4.9893,4.9893,4.9893,4.9893,4.9959,5.0101,5.026,5.049,5.0726,5.0985,5.1186,5.13,5.13,5.13,5.13,5.13,5.13,5.13,5.13,5.13,5.13,5.13,5.13,5.13,5.13,5.13,5.13,5.13,5.13,5.13,5.13,5.13,5.1312,5.131,5.1325,5.1356,5.1387,5.1401,5.1385,5.14,5.1398,5.1396,5.159,5.2038,5.0898,5.0956,5.1641,5.1544,5.1072,5.1621,5.1544,5.0995,5.0898,5.0898,5.0898,5.0937,5.0956,5.1157,5.1912,5.313,5.4639,5.6186,5.636,5.6012,5.5857,5.578,5.576,5.578,5.5799,5.6003,5.5986,5.6003,5.5958,5.5949,5.5975,5.5958,5.5995,5.5833,5.5634,5.5537,5.5509,5.5256,5.5245,5.5255,5.4949,5.4455,5.4038,5.392,5.2557,5.1705,5.1548,5.0713,5.0201,5.005,4.9959,4.9906,4.9893,4.9893,4.9973,5.0126,5.0245,5.0125,5.0044,5.0038,5.0076,4.9973,4.992,4.9912,4.9925,4.992,4.9906,4.9893,4.9893,4.9893,4.9893,4.9893,4.9893,4.9893,4.9893,4.992,5.0012,5.0162,5.0374,5.0632,5.0889,5.1092,5.1243,5.13,5.13,5.13,5.13,5.13,5.13,5.13,5.13,5.13,5.13,5.13,5.13,5.13,5.13,5.13,5.13,5.13,5.13,5.13,5.13,5.13,5.1303,5.1325,5.1367,5.1384,5.1387,5.1384,5.1391,5.14,5.1396,5.1453,5.1765,5.0898,5.0898,5.0995,5.0975,5.0917,5.1072,5.1033,5.0917,5.0898,5.0898,5.0898,5.0898,5.0898,5.1111,5.1815,5.2763,5.3672,5.4523,5.4987,5.4755,5.4793,5.4832,5.4929,5.4948,5.5258,5.5548,5.578,5.6003,5.5829,5.5829,5.5954,5.5935,5.5791,5.5627,5.4925,5.4892,5.4506,5.3911,5.3823,5.3842,5.3816,5.3672,5.3474,5.3109,5.2425,5.1749,5.1437,5.0692,5.0243,5.0163,4.9999,4.9906,4.9893,4.9893,4.9893,4.992,4.9946,4.9965,4.9906,4.9933,4.9978,4.9912,4.9893,4.9893,4.9893,4.9893,4.9893,4.9893,4.9893,4.9893,4.9893,4.9893,4.9893,4.9893,4.9893,4.992,4.9986,5.0076,5.0283,5.0489,5.0748,5.1017,5.123,5.128,5.13,5.13,5.13,5.13,5.13,5.13,5.13,5.13,5.13,5.13,5.13,5.13,5.13,5.13,5.13,5.13,5.13,5.13,5.13,5.1304,5.13,5.1294,5.1316,5.1343,5.1358,5.1367,5.1383,5.1391,5.1398,5.1494,5.1572,5.1351,5.0898,5.0898,5.0898,5.0898,5.0898,5.0898,5.0898,5.0898,5.0898,5.0898,5.0898,5.0898,5.1072,5.1815,5.2105,5.2298,5.2975,5.3304,5.3362,5.3401,5.3614,5.3981,5.4078,5.4368,5.4561,5.4581,5.4465,5.4793,5.549,5.5838,5.5335,5.5277,5.4851,5.4155,5.4058,5.3865,5.3633,5.3536,5.3517,5.3362,5.3033,5.2719,5.2612,5.1831,5.1384,5.1077,5.0795,5.0421,5.0355,5.0209,5.0156,5.0082,5.005,5.0038,4.9893,4.9893,4.9893,4.9893,4.9893,4.9893,4.9893,4.9893,4.9893,4.9893,4.9893,4.9893,4.9893,4.9893,4.9893,4.9893,4.9893,4.9893,4.9893,4.9893,4.9906,4.9946,5.005,5.0193,5.0393,5.0596,5.0862,5.112,5.1234,5.1284,5.13,5.13,5.13,5.13,5.13,5.13,5.13,5.13,5.13,5.13,5.13,5.13,5.13,5.13,5.13,5.13,5.13,5.13,5.13,5.1308,5.1303,5.1304,5.1313,5.1322,5.1361,5.1387,5.1384,5.1397,5.14,5.173,5.1486,5.0917,5.0898,5.0898,5.0898,5.0898,5.0898,5.0898,5.0898,5.0898,5.0898,5.0898,5.0898,5.1014,5.1486,5.1525,5.1033,5.1583,5.1815,5.1873,5.1989,5.2414,5.2937,5.3196,5.3323,5.3478,5.3749,5.371,5.4,5.4523,5.489,5.4484,5.4465,5.3981,5.3401,5.313,5.3022,5.2647,5.2647,5.265,5.2567,5.2147,5.1907,5.1667,5.128,5.085,5.0764,5.0692,5.0596,5.0517,5.0347,5.0252,5.0188,5.0089,5.0025,4.9906,4.9893,4.9893,4.9893,4.9893,4.9893,4.9893,4.9893,4.9893,4.9893,4.9893,4.9893,4.9893,4.9893,4.9893,4.9893,4.9893,4.9893,4.9893,4.9893,4.9893,4.9906,4.9999,5.0101,5.0264,5.0477,5.0694,5.0939,5.1136,5.1239,5.1292,5.13,5.13,5.13,5.13,5.13,5.13,5.13,5.13,5.13,5.13,5.13,5.13,5.13,5.13,5.13,5.13,5.13,5.13,5.13,5.1308,5.1303,5.131,5.1296,5.1324,5.1359,5.1385,5.1386,5.1397,5.1929,5.0956,5.0898,5.0859,5.0859,5.0898,5.0898,5.0898,5.0898,5.0898,5.0898,5.0898,5.0898,5.0898,5.0956,5.1014,5.1072,5.0917,5.0956,5.1091,5.1091,5.1072,5.1602,5.2066,5.2376,5.2627,5.3188,5.3111,5.3169,5.3401,5.3304,5.3614,5.3594,5.3536,5.3014,5.255,5.2279,5.197,5.1602,5.1478,5.1335,5.1271,5.1087,5.1065,5.0938,5.0902,5.089,5.0874,5.0727,5.0682,5.0616,5.0402,5.0275,5.0236,5.0101,4.9986,4.9939,4.9893,4.9893,4.9893,4.9893,4.9893,4.9893,4.9893,4.9893,4.9893,4.9893,4.9893,4.9893,4.9893,4.9893,4.9893,4.9893,4.9893,4.9893,4.9893,4.9893,4.9906,4.9959,5.0063,5.0151,5.0336,5.0558,5.0753,5.0959,5.1196,5.1261,5.13,5.13,5.13,5.13,5.13,5.13,5.13,5.13,5.13,5.13,5.13,5.13,5.13,5.13,5.13,5.13,5.13,5.13,5.13,5.13,5.13,5.1307,5.131,5.1294,5.1316,5.1354,5.1385,5.1386,5.2197,4.9861,4.937,4.9359,4.995,5.0898,5.0898,5.0898,5.0898,5.0898,5.0898,5.0898,5.0898,5.0898,5.0898,5.0898,5.0898,5.0898,5.0898,5.0898,5.0898,5.0995,5.113,5.1389,5.1486,5.1583,5.1931,5.195,5.1912,5.1854,5.2086,5.1931,5.2008,5.2472,5.2105,5.1679,5.1486,5.1207,5.1053,5.089,5.0833,5.0747,5.0729,5.0691,5.0547,5.0557,5.0587,5.0567,5.0538,5.0587,5.0596,5.0423,5.0336,5.0287,5.0132,5.0012,4.9925,4.9893,4.9893,4.9893,4.9893,4.9893,4.9893,4.9893,4.9893,4.9893,4.9893,4.9893,4.9893,4.9893,4.9893,4.9893,4.9893,4.9893,4.9893,4.9893,4.9893,4.9906,4.9965,4.9999,5.0089,5.0224,5.038,5.0567,5.0778,5.1029,5.1248,5.1284,5.13,5.13,5.13,5.13,5.13,5.13,5.13,5.13,5.13,5.13,5.13,5.13,5.13,5.13,5.13,5.13,5.13,5.13,5.13,5.13,5.13,5.1296,5.1304,5.1313,5.1338,5.1357,5.1386,5.2186,4.8952,4.8411,4.8411,4.9068,5.0132,5.0442,5.055,5.0589,5.0801,5.0898,5.0898,5.0898,5.0898,5.0898,5.0898,5.0898,5.0898,5.0898,5.0898,5.0898,5.0898,5.0898,5.0898,5.0956,5.1053,5.0898,5.0898,5.0995,5.1091,5.0937,5.1053,5.1273,5.1428,5.1331,5.1157,5.0898,5.0898,5.0898,5.089,5.0814,5.072,5.0747,5.0644,5.0507,5.0488,5.0497,5.0467,5.0417,5.0497,5.0516,5.0434,5.0347,5.0279,5.0186,5.005,4.9946,4.9893,4.9893,4.9893,4.9893,4.9893,4.9893,4.9893,4.9893,4.9893,4.9893,4.9893,4.9893,4.9893,4.9893,4.9893,4.9893,4.9893,4.9893,4.9893,4.9893,4.9925,4.9952,4.9978,5.0012,5.0151,5.024,5.0538,5.0761,5.1017,5.1239,5.1288,5.13,5.13,5.13,5.13,5.13,5.13,5.13,5.13,5.13,5.13,5.13,5.13,5.13,5.13,5.13,5.13,5.13,5.13,5.13,5.13,5.13,5.13,5.1304,5.132,5.133,5.1316,5.1394,5.1855,4.8353,4.8411,4.8314,4.8353,4.8566,4.9378,4.9726,4.9803,5.0473,5.084,5.0879,5.0898,5.0898,5.0898,5.0898,5.0898,5.0898,5.0898,5.0898,5.0898,5.0898,5.0898,5.0898,5.0898,5.0898,5.0898,5.0898,5.0898,5.0898,5.0898,5.0898,5.0898,5.1072,5.108,5.0917,5.0898,5.0898,5.0898,5.0898,5.0825,5.0756,5.0791,5.0673,5.0476,5.0476,5.0485,5.0328,5.0294,5.0358,5.0391,5.0275,5.0205,5.0224,5.005,4.9952,4.9906,4.9893,4.9893,4.9893,4.9893,4.9893,4.9893,4.9893,4.9893,4.9893,4.9893,4.9893,4.9893,4.9893,4.9893,4.9893,4.9893,4.9893,4.9893,4.9893,4.9893,4.9925,4.9925,4.9952,4.9959,5.0012,5.0132,5.0479,5.0797,5.1042,5.122,5.1284,5.13,5.13,5.13,5.13,5.13,5.13,5.13,5.13,5.13,5.13,5.13,5.13,5.13,5.13,5.13,5.13,5.13,5.13,5.13,5.13,5.13,5.13,5.13,5.13,5.131,5.1305,5.1392,5.1767,4.6677,4.667,4.667,4.667,4.689,4.8237,4.8836,4.8991,4.9726,5.0403,5.0821,5.0898,5.0898,5.0898,5.0898,5.0898,5.0898,5.0898,5.0898,5.0898,5.0898,5.0898,5.0898,5.0898,5.0898,5.0898,5.0898,5.0898,5.0898,5.0898,5.0898,5.0898,5.0898,5.0898,5.0898,5.0898,5.0898,5.0898,5.089,5.0841,5.0748,5.0738,5.0635,5.0321,5.0377,5.0302,5.0137,5.0156,5.0149,5.024,5.0133,5.0095,5.0145,5.0005,4.9912,4.9893,4.9893,4.9893,4.9893,4.9893,4.9893,4.9893,4.9893,4.9893,4.9893,4.9893,4.9893,4.9893,4.9893,4.9893,4.9893,4.9893,4.9893,4.9893,4.9893,4.9893,4.9912,4.9912,4.9906,4.992,4.9973,5.0156,5.0436,5.0662,5.0889,5.1109,5.1186,5.1284,5.1296,5.13,5.13,5.13,5.13,5.13,5.13,5.13,5.13,5.13,5.13,5.13,5.13,5.13,5.13,5.13,5.13,5.13,5.13,5.13,5.13,5.13,5.13,5.13,5.131,5.1311,5.1419,4.5807,4.5807,4.5807,4.5807,4.6039,4.7347,4.8082,4.845,4.903,4.9707,5.0345,5.0473,5.0647,5.0801,5.0898,5.0898,5.0898,5.0898,5.0898,5.0898,5.0898,5.0898,5.0898,5.0898,5.0898,5.0898,5.0898,5.0898,5.0898,5.0898,5.0898,5.0898,5.0898,5.0898,5.0898,5.0898,5.0898,5.0898,5.089,5.0866,5.0808,5.0745,5.0673,5.0453,5.0333,5.0186,5.005,4.9992,4.9946,5.0031,5.0031,4.9965,5.0031,4.9986,4.9893,4.9893,4.9893,4.9893,4.9893,4.9893,4.9893,4.9893,4.9893,4.9893,4.9893,4.9893,4.9893,4.9893,4.9893,4.9893,4.9893,4.9893,4.9893,4.9893,4.9893,4.9893,4.9893,4.9893,4.9893,4.9906,4.9959,5.0169,5.0344,5.0527,5.0715,5.0916,5.1092,5.1181,5.1284,5.1296,5.1296,5.13,5.13,5.13,5.13,5.13,5.13,5.13,5.13,5.13,5.13,5.13,5.13,5.13,5.13,5.13,5.13,5.13,5.13,5.13,5.13,5.13,5.13,5.1317,5.1316,4.5807,4.5807,4.5807,4.5807,4.5962,4.6728,4.7521,4.8295,4.8353,4.8856,4.9649,4.9649,5.0016,5.0685,5.0801,5.084,5.0898,5.0898,5.0898,5.0898,5.0898,5.0898,5.0898,5.0898,5.0898,5.0898,5.0898,5.0898,5.0898,5.0898,5.0898,5.0898,5.0898,5.0898,5.0898,5.0898,5.0898,5.0898,5.0898,5.0882,5.0858,5.0866,5.0773,5.0606,5.0455,5.0291,5.0144,5.0031,4.9933,4.992,4.9906,4.9893,4.9893,4.9893,4.9893,4.9893,4.9893,4.9893,4.9893,4.9893,4.9893,4.9893,4.9893,4.9893,4.9893,4.9893,4.9893,4.9893,4.9893,4.9893,4.9893,4.9893,4.9893,4.9893,4.9893,4.9893,4.9893,4.9893,4.9893,4.9906,4.992,5.0044,5.0188,5.0347,5.0557,5.0715,5.0889,5.1024,5.1116,5.1273,5.1292,5.13,5.13,5.13,5.13,5.13,5.13,5.13,5.13,5.13,5.13,5.13,5.13,5.13,5.13,5.13,5.13,5.13,5.13,5.13,5.13,5.13,5.13,5.13,5.134,4.5807,4.5807,4.5807,4.5807,4.5845,4.6078,4.667,4.7424,4.7482,4.7966,4.8778,4.8778,4.9243,5.0016,5.0055,5.0395,5.0705,5.0898,5.0898,5.0898,5.0898,5.0898,5.0898,5.0898,5.0898,5.0898,5.0898,5.0898,5.0898,5.0898,5.0898,5.0898,5.0898,5.0898,5.0898,5.0898,5.0898,5.0898,5.0898,5.0898,5.0898,5.0898,5.0825,5.0691,5.0527,5.0369,5.0205,5.0044,4.9952,4.9893,4.9893,4.9893,4.9893,4.9893,4.9893,4.9893,4.9893,4.9893,4.9893,4.9893,4.9893,4.9893,4.9893,4.9893,4.9893,4.9893,4.9893,4.9893,4.9893,4.9893,4.9893,4.9893,4.9893,4.9893,4.9893,4.9893,4.9893,4.9906,4.9906,4.992,4.9933,4.9999,5.0145,5.0236,5.0432,5.0557,5.0698,5.0836,5.0985,5.1146,5.1248,5.1252,5.13,5.13,5.13,5.13,5.13,5.13,5.13,5.13,5.13,5.13,5.13,5.13,5.13,5.13,5.13,5.13,5.13,5.13,5.13,5.13,5.13,5.13,5.1312,4.5807,4.5807,4.5807,4.5807,4.5807,4.5807,4.6136,4.6535,4.6581,4.7064,4.7831,4.7889,4.8372,4.9165,4.9571,4.997,5.0357,5.0763,5.0898,5.0898,5.0859,5.0898,5.0898,5.0898,5.0898,5.0898,5.0898,5.0898,5.0898,5.0898,5.0898,5.0898,5.0898,5.0898,5.0898,5.0898,5.0898,5.0898,5.0898,5.0898,5.0898,5.0898,5.0841,5.0773,5.0596,5.0434,5.0268,5.0095,4.9986,4.9906,4.9893,4.9893,4.9893,4.9893,4.9893,4.9893,4.9893,4.9893,4.9893,4.9893,4.9893,4.9893,4.9893,4.9893,4.9893,4.9893,4.9893,4.9893,4.9893,4.9893,4.9893,4.9893,4.9893,4.9893,4.9893,4.9893,4.9906,4.992,4.9933,4.9946,5.0005,5.0057,5.0133,5.0219,5.0294,5.0432,5.0547,5.069,5.0836,5.103,5.1145,5.1196,5.1248,5.13,5.1296,5.1292,5.13,5.13,5.13,5.13,5.13,5.13,5.13,5.13,5.13,5.13,5.13,5.13,5.13,5.13,5.13,5.13,5.13,5.13,5.1296,4.5807,4.5807,4.5807,4.5807,4.5807,4.5807,4.5826,4.5807,4.5877,4.6252,4.6902,4.6987,4.7482,4.8275,4.8836,4.9281,4.9668,5.0086,5.0415,5.0763,5.0647,5.0685,5.0859,5.0898,5.0898,5.0898,5.0898,5.0898,5.0898,5.0898,5.0898,5.0898,5.0898,5.0898,5.0898,5.0898,5.0898,5.0898,5.0898,5.0898,5.0898,5.0898,5.0898,5.0874,5.0736,5.0577,5.0413,5.0245,5.0101,4.9973,4.9893,4.9893,4.9893,4.9893,4.9893,4.9893,4.9893,4.9893,4.9893,4.9893,4.9893,4.9893,4.9893,4.9893,4.9893,4.9893,4.9893,4.9893,4.9893,4.9893,4.9893,4.9893,4.9893,4.9893,4.9893,4.9893,4.9893,4.992,4.9959,4.9986,5.0038,5.0095,5.012,5.0207,5.0278,5.0352,5.041,5.0536,5.0672,5.0871,5.0972,5.1068,5.122,5.1284,5.1248,5.1252,5.1296,5.13,5.1296,5.13,5.13,5.13,5.13,5.13,5.13,5.13,5.13,5.13,5.13,5.13,5.13,5.13,5.13,5.13,5.1304,4.5807,4.5807,4.5807,4.5807,4.5807,4.5807,4.5807,4.5807,4.5807,4.5923,4.6097,4.6213,4.66,4.7405,4.7753,4.8179,4.8759,4.9165,4.9417,4.9784,4.9977,5.0229,5.0685,5.0569,5.0724,5.0898,5.0898,5.084,5.0898,5.0898,5.0898,5.0898,5.0898,5.0898,5.0898,5.0898,5.0898,5.0898,5.0898,5.0898,5.0898,5.0898,5.0898,5.0866,5.0754,5.0606,5.0445,5.0268,5.0095,4.9933,4.9906,4.9893,4.9893,4.9893,4.9893,4.9893,4.9893,4.9893,4.9893,4.9893,4.9893,4.9893,4.9893,4.9893,4.9893,4.9893,4.9893,4.9893,4.9893,4.9893,4.9893,4.9893,4.9893,4.9893,4.9893,4.9893,4.9893,4.9946,4.9986,5.0038,5.0089,5.012,5.0133,5.0182,5.0267,5.0302,5.0306,5.0366,5.0453,5.0606,5.0748,5.0882,5.1171,5.1243,5.1196,5.1201,5.1239,5.1284,5.1288,5.1292,5.13,5.13,5.13,5.13,5.13,5.13,5.13,5.13,5.13,5.13,5.13,5.13,5.13,5.13,5.13,4.4697,4.4736,4.5104,4.549,4.5768,4.5807,4.5807,4.5807,4.5807,4.5807,4.5807,4.5845,4.6097,4.6651,4.6902,4.7212,4.7869,4.8295,4.8701,4.903,4.9165,4.9339,4.9668,4.9892,4.9687,4.9823,5.0287,5.0434,5.0763,5.0898,5.0898,5.0898,5.0898,5.0898,5.0898,5.0898,5.0898,5.0898,5.0898,5.0898,5.0898,5.0898,5.0898,5.0866,5.0797,5.0663,5.0537,5.0369,5.0217,5.005,4.9959,4.9893,4.9893,4.9893,4.9893,4.9893,4.9893,4.9893,4.9893,4.9893,4.9893,4.9893,4.9893,4.9893,4.9893,4.9893,4.9893,4.9893,4.9893,4.9893,4.9893,4.9893,4.9893,4.9893,4.9906,4.9906,4.9946,4.9986,5.0025,5.005,5.0108,5.012,5.0133,5.0151,5.0224,5.029,5.0302,5.0283,5.0352,5.0399,5.0528,5.065,5.0919,5.1066,5.0998,5.106,5.1171,5.1205,5.1256,5.1292,5.13,5.13,5.13,5.13,5.13,5.13,5.13,5.13,5.13,5.13,5.13,5.13,5.13,5.13,5.13,4.3363,4.3421,4.411,4.4813,4.542,4.5459,4.542,4.5439,4.5568,4.5613,4.5626,4.5722,4.5807,4.609,4.6515,4.6774,4.7064,4.7386,4.785,4.8198,4.8237,4.8566,4.8643,4.8585,4.8701,4.8894,4.9262,4.9977,5.0589,5.0608,5.0627,5.0821,5.0898,5.0898,5.0898,5.0898,5.0898,5.0898,5.0898,5.0898,5.0898,5.0898,5.0898,5.0898,5.089,5.0833,5.0682,5.0557,5.0369,5.0169,4.9999,4.992,4.9893,4.9893,4.9893,4.9893,4.9893,4.9893,4.9893,4.9893,4.9893,4.9893,4.9893,4.9893,4.9893,4.9893,4.9893,4.9893,4.9893,4.9893,4.9893,4.9893,4.9893,4.9893,4.9906,4.9946,4.9986,5.0038,5.0063,5.0089,5.012,5.0133,5.0145,5.0175,5.0212,5.0278,5.0302,5.0302,5.0314,5.0352,5.0423,5.0477,5.0605,5.0703,5.0761,5.0945,5.1097,5.1171,5.1225,5.128,5.13,5.13,5.13,5.13,5.13,5.13,5.13,5.13,5.13,5.13,5.13,5.13,5.13,5.13,5.13,4.3305,4.3324,4.3498,4.3653,4.3808,4.3808,4.3769,4.3904,4.4581,4.4833,4.4987,4.5529,4.5807,4.5807,4.5923,4.6116,4.631,4.6561,4.6883,4.727,4.7347,4.7792,4.8043,4.7869,4.8295,4.845,4.8585,4.9107,4.9784,4.9939,5.0268,5.0763,5.0821,5.0859,5.0898,5.0898,5.0898,5.0898,5.0898,5.0898,5.0898,5.0898,5.0898,5.0898,5.0898,5.0816,5.0729,5.0654,5.0464,5.0228,5.0031,4.992,4.9893,4.9893,4.9893,4.9893,4.9893,4.9893,4.9893,4.9893,4.9893,4.9893,4.9893,4.9893,4.9893,4.9893,4.9893,4.9893,4.9893,4.9893,4.9893,4.9893,4.9893,4.9906,4.992,5.0005,5.0057,5.012,5.0151,5.0194,5.0219,5.0207,5.0175,5.0212,5.0248,5.0302,5.0302,5.0302,5.0302,5.0317,5.0352,5.0377,5.0391,5.0476,5.0606,5.0867,5.1024,5.1103,5.1206,5.1256,5.13,5.13,5.13,5.13,5.13,5.13,5.13,5.13,5.13,5.13,5.13,5.13,5.13,5.13,5.13]}]]